<?xml version='1.0' encoding='UTF-8'?>
<gpx version="1.1" creator="https://www.komoot.de" xmlns="http://www.topografix.com/GPX/1/1" xmlns:xsi="http://www.w3.org/2001/XMLSchema-instance" xsi:schemaLocation="http://www.topografix.com/GPX/1/1 http://www.topografix.com/GPX/1/1/gpx.xsd">
  <metadata>
    <name>gravel VCN 17-01-2025</name>
    <author>
      <link href="https://www.komoot.de">
        <text>komoot</text>
        <type>text/html</type>
      </link>
    </author>
  </metadata>
  <trk>
    <name>gravel VCN 17-01-2025</name>
    <trkseg>
      <trkpt lat="48.884357" lon="2.269394">
        <ele>40.253681</ele>
        <time>2025-01-14T22:52:52.093Z</time>
      </trkpt>
      <trkpt lat="48.884439" lon="2.269026">
        <ele>40.253681</ele>
        <time>2025-01-14T22:52:59.853Z</time>
      </trkpt>
      <trkpt lat="48.884462" lon="2.268923">
        <ele>40.253681</ele>
        <time>2025-01-14T22:53:01.741Z</time>
      </trkpt>
      <trkpt lat="48.884560" lon="2.268487">
        <ele>40.253681</ele>
        <time>2025-01-14T22:53:11.225Z</time>
      </trkpt>
      <trkpt lat="48.884586" lon="2.268373">
        <ele>40.253681</ele>
        <time>2025-01-14T22:53:14.053Z</time>
      </trkpt>
      <trkpt lat="48.884663" lon="2.268043">
        <ele>40.257535</ele>
        <time>2025-01-14T22:53:20.787Z</time>
      </trkpt>
      <trkpt lat="48.884795" lon="2.267467">
        <ele>40.295887</ele>
        <time>2025-01-14T22:53:33.513Z</time>
      </trkpt>
      <trkpt lat="48.884959" lon="2.266741">
        <ele>40.344153</ele>
        <time>2025-01-14T22:53:50.211Z</time>
      </trkpt>
      <trkpt lat="48.884904" lon="2.266710">
        <ele>40.349761</ele>
        <time>2025-01-14T22:53:51.797Z</time>
      </trkpt>
      <trkpt lat="48.884850" lon="2.266678">
        <ele>40.355303</ele>
        <time>2025-01-14T22:53:53.476Z</time>
      </trkpt>
      <trkpt lat="48.883946" lon="2.265544">
        <ele>39.811246</ele>
        <time>2025-01-14T22:54:21.673Z</time>
      </trkpt>
      <trkpt lat="48.883554" lon="2.265172">
        <ele>39.160148</ele>
        <time>2025-01-14T22:54:32.341Z</time>
      </trkpt>
      <trkpt lat="48.883371" lon="2.265002">
        <ele>38.857975</ele>
        <time>2025-01-14T22:54:37.176Z</time>
      </trkpt>
      <trkpt lat="48.883463" lon="2.264914">
        <ele>38.704825</ele>
        <time>2025-01-14T22:54:39.532Z</time>
      </trkpt>
      <trkpt lat="48.883526" lon="2.264769">
        <ele>38.543787</ele>
        <time>2025-01-14T22:54:42.033Z</time>
      </trkpt>
      <trkpt lat="48.883600" lon="2.264698">
        <ele>38.420493</ele>
        <time>2025-01-14T22:54:43.980Z</time>
      </trkpt>
      <trkpt lat="48.883739" lon="2.264516">
        <ele>38.162029</ele>
        <time>2025-01-14T22:54:48.110Z</time>
      </trkpt>
      <trkpt lat="48.883823" lon="2.264225">
        <ele>37.876100</ele>
        <time>2025-01-14T22:54:52.879Z</time>
      </trkpt>
      <trkpt lat="48.883850" lon="2.264033">
        <ele>37.759980</ele>
        <time>2025-01-14T22:54:56.050Z</time>
      </trkpt>
      <trkpt lat="48.884179" lon="2.263000">
        <ele>37.081157</ele>
        <time>2025-01-14T22:55:15.896Z</time>
      </trkpt>
      <trkpt lat="48.884284" lon="2.262779">
        <ele>36.919908</ele>
        <time>2025-01-14T22:55:20.435Z</time>
      </trkpt>
      <trkpt lat="48.884330" lon="2.262609">
        <ele>36.811188</ele>
        <time>2025-01-14T22:55:23.546Z</time>
      </trkpt>
      <trkpt lat="48.884387" lon="2.262421">
        <ele>36.688752</ele>
        <time>2025-01-14T22:55:27.078Z</time>
      </trkpt>
      <trkpt lat="48.884404" lon="2.262366">
        <ele>36.652810</ele>
        <time>2025-01-14T22:55:28.075Z</time>
      </trkpt>
      <trkpt lat="48.884424" lon="2.262302">
        <ele>36.610903</ele>
        <time>2025-01-14T22:55:29.198Z</time>
      </trkpt>
      <trkpt lat="48.884460" lon="2.262181">
        <ele>36.532358</ele>
        <time>2025-01-14T22:55:31.293Z</time>
      </trkpt>
      <trkpt lat="48.884854" lon="2.260946">
        <ele>35.719958</ele>
        <time>2025-01-14T22:55:52.819Z</time>
      </trkpt>
      <trkpt lat="48.884959" lon="2.260633">
        <ele>35.511931</ele>
        <time>2025-01-14T22:55:58.332Z</time>
      </trkpt>
      <trkpt lat="48.885073" lon="2.260336">
        <ele>35.308333</ele>
        <time>2025-01-14T22:56:04.067Z</time>
      </trkpt>
      <trkpt lat="48.885387" lon="2.259349">
        <ele>34.659205</ele>
        <time>2025-01-14T22:56:21.573Z</time>
      </trkpt>
      <trkpt lat="48.885444" lon="2.259174">
        <ele>34.615809</ele>
        <time>2025-01-14T22:56:25.007Z</time>
      </trkpt>
      <trkpt lat="48.885616" lon="2.258636">
        <ele>34.493006</ele>
        <time>2025-01-14T22:56:37.523Z</time>
      </trkpt>
      <trkpt lat="48.885701" lon="2.258348">
        <ele>34.428204</ele>
        <time>2025-01-14T22:56:43.661Z</time>
      </trkpt>
      <trkpt lat="48.885778" lon="2.258106">
        <ele>34.373016</ele>
        <time>2025-01-14T22:56:48.855Z</time>
      </trkpt>
      <trkpt lat="48.885978" lon="2.257458">
        <ele>34.226070</ele>
        <time>2025-01-14T22:57:01.170Z</time>
      </trkpt>
      <trkpt lat="48.886033" lon="2.257441">
        <ele>34.208549</ele>
        <time>2025-01-14T22:57:02.582Z</time>
      </trkpt>
      <trkpt lat="48.886090" lon="2.257366">
        <ele>34.185018</ele>
        <time>2025-01-14T22:57:04.367Z</time>
      </trkpt>
      <trkpt lat="48.886302" lon="2.256708">
        <ele>33.908771</ele>
        <time>2025-01-14T22:57:16.592Z</time>
      </trkpt>
      <trkpt lat="48.886342" lon="2.256566">
        <ele>33.808303</ele>
        <time>2025-01-14T22:57:19.087Z</time>
      </trkpt>
      <trkpt lat="48.886328" lon="2.256480">
        <ele>33.750683</ele>
        <time>2025-01-14T22:57:20.491Z</time>
      </trkpt>
      <trkpt lat="48.886296" lon="2.256225">
        <ele>33.581848</ele>
        <time>2025-01-14T22:57:24.410Z</time>
      </trkpt>
      <trkpt lat="48.887246" lon="2.253174">
        <ele>33.692920</ele>
        <time>2025-01-14T22:58:16.885Z</time>
      </trkpt>
      <trkpt lat="48.887299" lon="2.253012">
        <ele>33.867953</ele>
        <time>2025-01-14T22:58:22.080Z</time>
      </trkpt>
      <trkpt lat="48.887413" lon="2.252954">
        <ele>34.044798</ele>
        <time>2025-01-14T22:58:27.533Z</time>
      </trkpt>
      <trkpt lat="48.887499" lon="2.252967">
        <ele>34.171939</ele>
        <time>2025-01-14T22:58:31.448Z</time>
      </trkpt>
      <trkpt lat="48.887511" lon="2.252917">
        <ele>34.223426</ele>
        <time>2025-01-14T22:58:33.378Z</time>
      </trkpt>
      <trkpt lat="48.887558" lon="2.252598">
        <ele>34.539655</ele>
        <time>2025-01-14T22:58:45.273Z</time>
      </trkpt>
      <trkpt lat="48.887749" lon="2.252470">
        <ele>34.846712</ele>
        <time>2025-01-14T22:58:56.684Z</time>
      </trkpt>
      <trkpt lat="48.887796" lon="2.252376">
        <ele>34.963703</ele>
        <time>2025-01-14T22:59:01.371Z</time>
      </trkpt>
      <trkpt lat="48.887841" lon="2.252185">
        <ele>35.600700</ele>
        <time>2025-01-14T22:59:09.005Z</time>
      </trkpt>
      <trkpt lat="48.887842" lon="2.252157">
        <ele>35.688739</ele>
        <time>2025-01-14T22:59:10.085Z</time>
      </trkpt>
      <trkpt lat="48.887939" lon="2.251849">
        <ele>36.760931</ele>
        <time>2025-01-14T22:59:23.059Z</time>
      </trkpt>
      <trkpt lat="48.887993" lon="2.251674">
        <ele>37.367853</ele>
        <time>2025-01-14T22:59:30.325Z</time>
      </trkpt>
      <trkpt lat="48.888042" lon="2.251556">
        <ele>37.806019</ele>
        <time>2025-01-14T22:59:35.616Z</time>
      </trkpt>
      <trkpt lat="48.888148" lon="2.251416">
        <ele>38.476365</ele>
        <time>2025-01-14T22:59:43.498Z</time>
      </trkpt>
      <trkpt lat="48.888201" lon="2.251368">
        <ele>38.770903</ele>
        <time>2025-01-14T22:59:47.040Z</time>
      </trkpt>
      <trkpt lat="48.888377" lon="2.251186">
        <ele>39.787129</ele>
        <time>2025-01-14T22:59:59.418Z</time>
      </trkpt>
      <trkpt lat="48.888457" lon="2.251089">
        <ele>40.275653</ele>
        <time>2025-01-14T23:00:05.654Z</time>
      </trkpt>
      <trkpt lat="48.888612" lon="2.250989">
        <ele>41.079587</ele>
        <time>2025-01-14T23:00:15.856Z</time>
      </trkpt>
      <trkpt lat="48.889136" lon="2.250730">
        <ele>43.642400</ele>
        <time>2025-01-14T23:00:46.799Z</time>
      </trkpt>
      <trkpt lat="48.889442" lon="2.250462">
        <ele>44.622921</ele>
        <time>2025-01-14T23:01:02.761Z</time>
      </trkpt>
      <trkpt lat="48.889563" lon="2.250485">
        <ele>44.961528</ele>
        <time>2025-01-14T23:01:08.303Z</time>
      </trkpt>
      <trkpt lat="48.889602" lon="2.250464">
        <ele>45.076411</ele>
        <time>2025-01-14T23:01:10.384Z</time>
      </trkpt>
      <trkpt lat="48.889629" lon="2.250433">
        <ele>45.170350</ele>
        <time>2025-01-14T23:01:11.938Z</time>
      </trkpt>
      <trkpt lat="48.889653" lon="2.250407">
        <ele>45.252171</ele>
        <time>2025-01-14T23:01:13.236Z</time>
      </trkpt>
      <trkpt lat="48.889680" lon="2.250376">
        <ele>45.346110</ele>
        <time>2025-01-14T23:01:14.811Z</time>
      </trkpt>
      <trkpt lat="48.889704" lon="2.250349">
        <ele>45.429005</ele>
        <time>2025-01-14T23:01:16.279Z</time>
      </trkpt>
      <trkpt lat="48.889725" lon="2.250326">
        <ele>45.500864</ele>
        <time>2025-01-14T23:01:17.586Z</time>
      </trkpt>
      <trkpt lat="48.889788" lon="2.250249">
        <ele>45.725292</ele>
        <time>2025-01-14T23:01:21.300Z</time>
      </trkpt>
      <trkpt lat="48.889804" lon="2.250115">
        <ele>45.973947</ele>
        <time>2025-01-14T23:01:25.743Z</time>
      </trkpt>
      <trkpt lat="48.889979" lon="2.249861">
        <ele>46.645661</ele>
        <time>2025-01-14T23:01:36.646Z</time>
      </trkpt>
      <trkpt lat="48.890251" lon="2.249323">
        <ele>47.884734</ele>
        <time>2025-01-14T23:01:54.274Z</time>
      </trkpt>
      <trkpt lat="48.890447" lon="2.248835">
        <ele>48.695023</ele>
        <time>2025-01-14T23:02:05.522Z</time>
      </trkpt>
      <trkpt lat="48.890872" lon="2.247797">
        <ele>49.576986</ele>
        <time>2025-01-14T23:02:32.691Z</time>
      </trkpt>
      <trkpt lat="48.890928" lon="2.247691">
        <ele>49.675062</ele>
        <time>2025-01-14T23:02:35.736Z</time>
      </trkpt>
      <trkpt lat="48.890964" lon="2.247587">
        <ele>49.759833</ele>
        <time>2025-01-14T23:02:38.544Z</time>
      </trkpt>
      <trkpt lat="48.891088" lon="2.247245">
        <ele>50.041521</ele>
        <time>2025-01-14T23:02:47.212Z</time>
      </trkpt>
      <trkpt lat="48.891320" lon="2.246821">
        <ele>50.439377</ele>
        <time>2025-01-14T23:02:59.532Z</time>
      </trkpt>
      <trkpt lat="48.891579" lon="2.246456">
        <ele>50.505512</ele>
        <time>2025-01-14T23:03:10.284Z</time>
      </trkpt>
      <trkpt lat="48.892027" lon="2.246000">
        <ele>50.486651</ele>
        <time>2025-01-14T23:03:25.163Z</time>
      </trkpt>
      <trkpt lat="48.892403" lon="2.245684">
        <ele>50.471622</ele>
        <time>2025-01-14T23:03:35.817Z</time>
      </trkpt>
      <trkpt lat="48.892448" lon="2.245636">
        <ele>50.469699</ele>
        <time>2025-01-14T23:03:37.185Z</time>
      </trkpt>
      <trkpt lat="48.892508" lon="2.245572">
        <ele>50.467135</ele>
        <time>2025-01-14T23:03:39.016Z</time>
      </trkpt>
      <trkpt lat="48.892814" lon="2.245293">
        <ele>50.454652</ele>
        <time>2025-01-14T23:03:48.201Z</time>
      </trkpt>
      <trkpt lat="48.892963" lon="2.245166">
        <ele>50.404659</ele>
        <time>2025-01-14T23:03:52.497Z</time>
      </trkpt>
      <trkpt lat="48.894059" lon="2.244458">
        <ele>49.884656</ele>
        <time>2025-01-14T23:04:22.475Z</time>
      </trkpt>
      <trkpt lat="48.894442" lon="2.244264">
        <ele>49.708369</ele>
        <time>2025-01-14T23:04:32.774Z</time>
      </trkpt>
      <trkpt lat="48.894541" lon="2.244197">
        <ele>49.664231</ele>
        <time>2025-01-14T23:04:35.452Z</time>
      </trkpt>
      <trkpt lat="48.894532" lon="2.244167">
        <ele>49.659790</ele>
        <time>2025-01-14T23:04:35.985Z</time>
      </trkpt>
      <trkpt lat="48.894507" lon="2.244100">
        <ele>49.649416</ele>
        <time>2025-01-14T23:04:37.426Z</time>
      </trkpt>
      <trkpt lat="48.894485" lon="2.244039">
        <ele>49.640046</ele>
        <time>2025-01-14T23:04:38.564Z</time>
      </trkpt>
      <trkpt lat="48.894473" lon="2.244007">
        <ele>49.635085</ele>
        <time>2025-01-14T23:04:39.115Z</time>
      </trkpt>
      <trkpt lat="48.894514" lon="2.243959">
        <ele>49.624487</ele>
        <time>2025-01-14T23:04:40.400Z</time>
      </trkpt>
      <trkpt lat="48.894546" lon="2.243920">
        <ele>49.616088</ele>
        <time>2025-01-14T23:04:41.547Z</time>
      </trkpt>
      <trkpt lat="48.894567" lon="2.243902">
        <ele>49.611151</ele>
        <time>2025-01-14T23:04:42.170Z</time>
      </trkpt>
      <trkpt lat="48.894611" lon="2.243860">
        <ele>49.600510</ele>
        <time>2025-01-14T23:04:43.362Z</time>
      </trkpt>
      <trkpt lat="48.894825" lon="2.243517">
        <ele>49.536831</ele>
        <time>2025-01-14T23:04:51.239Z</time>
      </trkpt>
      <trkpt lat="48.894773" lon="2.243261">
        <ele>49.500749</ele>
        <time>2025-01-14T23:04:55.606Z</time>
      </trkpt>
      <trkpt lat="48.894759" lon="2.243234">
        <ele>49.496118</ele>
        <time>2025-01-14T23:04:56.264Z</time>
      </trkpt>
      <trkpt lat="48.894730" lon="2.243182">
        <ele>49.486935</ele>
        <time>2025-01-14T23:04:57.458Z</time>
      </trkpt>
      <trkpt lat="48.894836" lon="2.242982">
        <ele>49.452340</ele>
        <time>2025-01-14T23:05:01.701Z</time>
      </trkpt>
      <trkpt lat="48.894925" lon="2.242671">
        <ele>49.406664</ele>
        <time>2025-01-14T23:05:07.512Z</time>
      </trkpt>
      <trkpt lat="48.894943" lon="2.242429">
        <ele>49.373867</ele>
        <time>2025-01-14T23:05:11.544Z</time>
      </trkpt>
      <trkpt lat="48.894911" lon="2.242255">
        <ele>49.349535</ele>
        <time>2025-01-14T23:05:14.564Z</time>
      </trkpt>
      <trkpt lat="48.894945" lon="2.242226">
        <ele>49.341551</ele>
        <time>2025-01-14T23:05:15.724Z</time>
      </trkpt>
      <trkpt lat="48.894974" lon="2.242205">
        <ele>49.334972</ele>
        <time>2025-01-14T23:05:16.715Z</time>
      </trkpt>
      <trkpt lat="48.894978" lon="2.242192">
        <ele>49.333039</ele>
        <time>2025-01-14T23:05:17.010Z</time>
      </trkpt>
      <trkpt lat="48.894925" lon="2.242072">
        <ele>49.313571</ele>
        <time>2025-01-14T23:05:19.773Z</time>
      </trkpt>
      <trkpt lat="48.894962" lon="2.242018">
        <ele>49.303068</ele>
        <time>2025-01-14T23:05:21.581Z</time>
      </trkpt>
      <trkpt lat="48.894925" lon="2.241948">
        <ele>49.285595</ele>
        <time>2025-01-14T23:05:23.421Z</time>
      </trkpt>
      <trkpt lat="48.894698" lon="2.241501">
        <ele>49.156054</ele>
        <time>2025-01-14T23:05:34.788Z</time>
      </trkpt>
      <trkpt lat="48.894629" lon="2.241315">
        <ele>49.107073</ele>
        <time>2025-01-14T23:05:39.181Z</time>
      </trkpt>
      <trkpt lat="48.894579" lon="2.241010">
        <ele>49.034979</ele>
        <time>2025-01-14T23:05:45.015Z</time>
      </trkpt>
      <trkpt lat="48.894600" lon="2.241004">
        <ele>49.027525</ele>
        <time>2025-01-14T23:05:45.559Z</time>
      </trkpt>
      <trkpt lat="48.894810" lon="2.240951">
        <ele>48.953266</ele>
        <time>2025-01-14T23:05:50.918Z</time>
      </trkpt>
      <trkpt lat="48.895367" lon="2.240832">
        <ele>48.757049</ele>
        <time>2025-01-14T23:06:04.560Z</time>
      </trkpt>
      <trkpt lat="48.895389" lon="2.240787">
        <ele>48.744188</ele>
        <time>2025-01-14T23:06:05.445Z</time>
      </trkpt>
      <trkpt lat="48.895480" lon="2.240689">
        <ele>48.705292</ele>
        <time>2025-01-14T23:06:08.104Z</time>
      </trkpt>
      <trkpt lat="48.895634" lon="2.240565">
        <ele>48.566899</ele>
        <time>2025-01-14T23:06:12.256Z</time>
      </trkpt>
      <trkpt lat="48.896277" lon="2.240471">
        <ele>47.685571</ele>
        <time>2025-01-14T23:06:27.013Z</time>
      </trkpt>
      <trkpt lat="48.896536" lon="2.240433">
        <ele>47.330561</ele>
        <time>2025-01-14T23:06:32.619Z</time>
      </trkpt>
      <trkpt lat="48.897098" lon="2.240355">
        <ele>46.560604</ele>
        <time>2025-01-14T23:06:45.138Z</time>
      </trkpt>
      <trkpt lat="48.897110" lon="2.240353">
        <ele>46.544134</ele>
        <time>2025-01-14T23:06:45.442Z</time>
      </trkpt>
      <trkpt lat="48.897745" lon="2.240263">
        <ele>46.120917</ele>
        <time>2025-01-14T23:07:01.858Z</time>
      </trkpt>
      <trkpt lat="48.897796" lon="2.240225">
        <ele>46.107188</ele>
        <time>2025-01-14T23:07:03.343Z</time>
      </trkpt>
      <trkpt lat="48.897941" lon="2.240212">
        <ele>46.072071</ele>
        <time>2025-01-14T23:07:07.234Z</time>
      </trkpt>
      <trkpt lat="48.898387" lon="2.240148">
        <ele>45.963765</ele>
        <time>2025-01-14T23:07:19.212Z</time>
      </trkpt>
      <trkpt lat="48.898660" lon="2.240105">
        <ele>45.897410</ele>
        <time>2025-01-14T23:07:26.807Z</time>
      </trkpt>
      <trkpt lat="48.899257" lon="2.240020">
        <ele>45.657408</ele>
        <time>2025-01-14T23:07:43.137Z</time>
      </trkpt>
      <trkpt lat="48.899760" lon="2.239963">
        <ele>45.147465</ele>
        <time>2025-01-14T23:07:55.180Z</time>
      </trkpt>
      <trkpt lat="48.899954" lon="2.239989">
        <ele>44.950570</ele>
        <time>2025-01-14T23:07:59.597Z</time>
      </trkpt>
      <trkpt lat="48.900033" lon="2.240110">
        <ele>44.837230</ele>
        <time>2025-01-14T23:08:02.134Z</time>
      </trkpt>
      <trkpt lat="48.900060" lon="2.240127">
        <ele>44.807687</ele>
        <time>2025-01-14T23:08:02.771Z</time>
      </trkpt>
      <trkpt lat="48.900088" lon="2.240132">
        <ele>44.779184</ele>
        <time>2025-01-14T23:08:03.396Z</time>
      </trkpt>
      <trkpt lat="48.901139" lon="2.239990">
        <ele>43.676844</ele>
        <time>2025-01-14T23:08:28.004Z</time>
      </trkpt>
      <trkpt lat="48.901682" lon="2.239911">
        <ele>43.047299</ele>
        <time>2025-01-14T23:08:41.351Z</time>
      </trkpt>
      <trkpt lat="48.902148" lon="2.239844">
        <ele>42.507084</ele>
        <time>2025-01-14T23:08:52.237Z</time>
      </trkpt>
      <trkpt lat="48.902190" lon="2.239838">
        <ele>42.458398</ele>
        <time>2025-01-14T23:08:53.202Z</time>
      </trkpt>
      <trkpt lat="48.902268" lon="2.239827">
        <ele>42.367991</ele>
        <time>2025-01-14T23:08:55.018Z</time>
      </trkpt>
      <trkpt lat="48.902300" lon="2.239822">
        <ele>42.330864</ele>
        <time>2025-01-14T23:08:55.783Z</time>
      </trkpt>
      <trkpt lat="48.902330" lon="2.239818">
        <ele>42.296108</ele>
        <time>2025-01-14T23:08:56.479Z</time>
      </trkpt>
      <trkpt lat="48.902367" lon="2.239812">
        <ele>42.253164</ele>
        <time>2025-01-14T23:08:57.352Z</time>
      </trkpt>
      <trkpt lat="48.903194" lon="2.239683">
        <ele>41.344174</ele>
        <time>2025-01-14T23:09:16.663Z</time>
      </trkpt>
      <trkpt lat="48.904279" lon="2.239515">
        <ele>40.192373</ele>
        <time>2025-01-14T23:09:42.436Z</time>
      </trkpt>
      <trkpt lat="48.904470" lon="2.239486">
        <ele>39.989654</ele>
        <time>2025-01-14T23:09:47.276Z</time>
      </trkpt>
      <trkpt lat="48.904506" lon="2.239480">
        <ele>39.966253</ele>
        <time>2025-01-14T23:09:48.181Z</time>
      </trkpt>
      <trkpt lat="48.904574" lon="2.239468">
        <ele>39.922918</ele>
        <time>2025-01-14T23:09:49.959Z</time>
      </trkpt>
      <trkpt lat="48.904634" lon="2.239463">
        <ele>39.884878</ele>
        <time>2025-01-14T23:09:51.448Z</time>
      </trkpt>
      <trkpt lat="48.904706" lon="2.239456">
        <ele>39.839206</ele>
        <time>2025-01-14T23:09:53.296Z</time>
      </trkpt>
      <trkpt lat="48.905108" lon="2.239389">
        <ele>39.583202</ele>
        <time>2025-01-14T23:10:03.456Z</time>
      </trkpt>
      <trkpt lat="48.905985" lon="2.239257">
        <ele>39.025315</ele>
        <time>2025-01-14T23:10:24.977Z</time>
      </trkpt>
      <trkpt lat="48.906350" lon="2.239254">
        <ele>38.831956</ele>
        <time>2025-01-14T23:10:34.058Z</time>
      </trkpt>
      <trkpt lat="48.906644" lon="2.239211">
        <ele>38.771768</ele>
        <time>2025-01-14T23:10:41.677Z</time>
      </trkpt>
      <trkpt lat="48.906668" lon="2.239199">
        <ele>38.766620</ele>
        <time>2025-01-14T23:10:42.361Z</time>
      </trkpt>
      <trkpt lat="48.906747" lon="2.239187">
        <ele>38.750441</ele>
        <time>2025-01-14T23:10:44.393Z</time>
      </trkpt>
      <trkpt lat="48.906867" lon="2.239169">
        <ele>38.725868</ele>
        <time>2025-01-14T23:10:47.533Z</time>
      </trkpt>
      <trkpt lat="48.906942" lon="2.239158">
        <ele>38.710514</ele>
        <time>2025-01-14T23:10:49.457Z</time>
      </trkpt>
      <trkpt lat="48.906980" lon="2.239152">
        <ele>38.702728</ele>
        <time>2025-01-14T23:10:50.512Z</time>
      </trkpt>
      <trkpt lat="48.907040" lon="2.239083">
        <ele>38.687402</ele>
        <time>2025-01-14T23:10:52.457Z</time>
      </trkpt>
      <trkpt lat="48.907216" lon="2.239014">
        <ele>38.650364</ele>
        <time>2025-01-14T23:10:57.230Z</time>
      </trkpt>
      <trkpt lat="48.907344" lon="2.238917">
        <ele>38.621223</ele>
        <time>2025-01-14T23:11:00.935Z</time>
      </trkpt>
      <trkpt lat="48.907515" lon="2.238736">
        <ele>38.578773</ele>
        <time>2025-01-14T23:11:06.298Z</time>
      </trkpt>
      <trkpt lat="48.907859" lon="2.238352">
        <ele>38.491827</ele>
        <time>2025-01-14T23:11:17.027Z</time>
      </trkpt>
      <trkpt lat="48.908056" lon="2.238125">
        <ele>38.535975</ele>
        <time>2025-01-14T23:11:24.047Z</time>
      </trkpt>
      <trkpt lat="48.908562" lon="2.237517">
        <ele>38.701259</ele>
        <time>2025-01-14T23:11:43.842Z</time>
      </trkpt>
      <trkpt lat="48.908537" lon="2.237466">
        <ele>38.711978</ele>
        <time>2025-01-14T23:11:45.002Z</time>
      </trkpt>
      <trkpt lat="48.908563" lon="2.237436">
        <ele>38.720343</ele>
        <time>2025-01-14T23:11:46.069Z</time>
      </trkpt>
      <trkpt lat="48.908633" lon="2.237359">
        <ele>38.742486</ele>
        <time>2025-01-14T23:11:48.611Z</time>
      </trkpt>
      <trkpt lat="48.908706" lon="2.237278">
        <ele>38.765647</ele>
        <time>2025-01-14T23:11:51.404Z</time>
      </trkpt>
      <trkpt lat="48.908910" lon="2.236991">
        <ele>38.836872</ele>
        <time>2025-01-14T23:11:59.278Z</time>
      </trkpt>
      <trkpt lat="48.908968" lon="2.236870">
        <ele>38.862104</ele>
        <time>2025-01-14T23:12:02.034Z</time>
      </trkpt>
      <trkpt lat="48.909132" lon="2.236567">
        <ele>38.928237</ele>
        <time>2025-01-14T23:12:09.497Z</time>
      </trkpt>
      <trkpt lat="48.909157" lon="2.236521">
        <ele>38.938294</ele>
        <time>2025-01-14T23:12:10.524Z</time>
      </trkpt>
      <trkpt lat="48.909224" lon="2.236515">
        <ele>38.906710</ele>
        <time>2025-01-14T23:12:12.462Z</time>
      </trkpt>
      <trkpt lat="48.909299" lon="2.236386">
        <ele>38.808204</ele>
        <time>2025-01-14T23:12:15.575Z</time>
      </trkpt>
      <trkpt lat="48.909805" lon="2.235658">
        <ele>38.202181</ele>
        <time>2025-01-14T23:12:32.735Z</time>
      </trkpt>
      <trkpt lat="48.910063" lon="2.235287">
        <ele>37.893258</ele>
        <time>2025-01-14T23:12:41.067Z</time>
      </trkpt>
      <trkpt lat="48.910174" lon="2.235185">
        <ele>37.780414</ele>
        <time>2025-01-14T23:12:44.097Z</time>
      </trkpt>
      <trkpt lat="48.910249" lon="2.235069">
        <ele>37.687347</ele>
        <time>2025-01-14T23:12:46.593Z</time>
      </trkpt>
      <trkpt lat="48.910413" lon="2.234858">
        <ele>37.500447</ele>
        <time>2025-01-14T23:12:51.512Z</time>
      </trkpt>
      <trkpt lat="48.910429" lon="2.234839">
        <ele>37.482785</ele>
        <time>2025-01-14T23:12:51.968Z</time>
      </trkpt>
      <trkpt lat="48.910457" lon="2.234803">
        <ele>37.450884</ele>
        <time>2025-01-14T23:12:52.793Z</time>
      </trkpt>
      <trkpt lat="48.910424" lon="2.234714">
        <ele>37.392440</ele>
        <time>2025-01-14T23:12:54.270Z</time>
      </trkpt>
      <trkpt lat="48.910342" lon="2.234446">
        <ele>37.281704</ele>
        <time>2025-01-14T23:12:58.596Z</time>
      </trkpt>
      <trkpt lat="48.910334" lon="2.234281">
        <ele>37.222506</ele>
        <time>2025-01-14T23:13:01.041Z</time>
      </trkpt>
      <trkpt lat="48.910322" lon="2.234248">
        <ele>37.209012</ele>
        <time>2025-01-14T23:13:01.604Z</time>
      </trkpt>
      <trkpt lat="48.910157" lon="2.233768">
        <ele>37.015194</ele>
        <time>2025-01-14T23:13:10.021Z</time>
      </trkpt>
      <trkpt lat="48.910057" lon="2.233478">
        <ele>36.898017</ele>
        <time>2025-01-14T23:13:15.505Z</time>
      </trkpt>
      <trkpt lat="48.909998" lon="2.233399">
        <ele>36.855230</ele>
        <time>2025-01-14T23:13:17.648Z</time>
      </trkpt>
      <trkpt lat="48.909910" lon="2.233132">
        <ele>36.748357</ele>
        <time>2025-01-14T23:13:23.261Z</time>
      </trkpt>
      <trkpt lat="48.909269" lon="2.231634">
        <ele>36.262143</ele>
        <time>2025-01-14T23:13:54.654Z</time>
      </trkpt>
      <trkpt lat="48.909022" lon="2.231039">
        <ele>36.142945</ele>
        <time>2025-01-14T23:14:06.732Z</time>
      </trkpt>
      <trkpt lat="48.909010" lon="2.230927">
        <ele>36.123725</ele>
        <time>2025-01-14T23:14:08.557Z</time>
      </trkpt>
      <trkpt lat="48.908783" lon="2.230275">
        <ele>35.998754</ele>
        <time>2025-01-14T23:14:20.410Z</time>
      </trkpt>
      <trkpt lat="48.908541" lon="2.229582">
        <ele>36.027012</ele>
        <time>2025-01-14T23:14:33.409Z</time>
      </trkpt>
      <trkpt lat="48.908436" lon="2.229458">
        <ele>36.070904</ele>
        <time>2025-01-14T23:14:37.100Z</time>
      </trkpt>
      <trkpt lat="48.908407" lon="2.229374">
        <ele>36.091498</ele>
        <time>2025-01-14T23:14:38.855Z</time>
      </trkpt>
      <trkpt lat="48.908354" lon="2.229221">
        <ele>36.129035</ele>
        <time>2025-01-14T23:14:42.166Z</time>
      </trkpt>
      <trkpt lat="48.908330" lon="2.229150">
        <ele>36.146363</ele>
        <time>2025-01-14T23:14:43.727Z</time>
      </trkpt>
      <trkpt lat="48.908203" lon="2.228779">
        <ele>36.237152</ele>
        <time>2025-01-14T23:14:52.065Z</time>
      </trkpt>
      <trkpt lat="48.908137" lon="2.228571">
        <ele>36.287283</ele>
        <time>2025-01-14T23:14:56.754Z</time>
      </trkpt>
      <trkpt lat="48.908031" lon="2.228281">
        <ele>36.359303</ele>
        <time>2025-01-14T23:15:03.437Z</time>
      </trkpt>
      <trkpt lat="48.907616" lon="2.227089">
        <ele>36.615997</ele>
        <time>2025-01-14T23:15:30.679Z</time>
      </trkpt>
      <trkpt lat="48.907545" lon="2.226893">
        <ele>36.650165</ele>
        <time>2025-01-14T23:15:35.195Z</time>
      </trkpt>
      <trkpt lat="48.907252" lon="2.226274">
        <ele>36.766628</ele>
        <time>2025-01-14T23:15:48.501Z</time>
      </trkpt>
      <trkpt lat="48.906922" lon="2.225593">
        <ele>36.895803</ele>
        <time>2025-01-14T23:16:03.654Z</time>
      </trkpt>
      <trkpt lat="48.906645" lon="2.224547">
        <ele>36.706082</ele>
        <time>2025-01-14T23:16:23.499Z</time>
      </trkpt>
      <trkpt lat="48.906607" lon="2.224403">
        <ele>36.658176</ele>
        <time>2025-01-14T23:16:26.070Z</time>
      </trkpt>
      <trkpt lat="48.906596" lon="2.224100">
        <ele>36.564489</ele>
        <time>2025-01-14T23:16:31.047Z</time>
      </trkpt>
      <trkpt lat="48.906621" lon="2.223106">
        <ele>36.257389</ele>
        <time>2025-01-14T23:16:47.128Z</time>
      </trkpt>
      <trkpt lat="48.906630" lon="2.222944">
        <ele>36.207196</ele>
        <time>2025-01-14T23:16:49.782Z</time>
      </trkpt>
      <trkpt lat="48.906640" lon="2.222673">
        <ele>36.123399</ele>
        <time>2025-01-14T23:16:54.212Z</time>
      </trkpt>
      <trkpt lat="48.906680" lon="2.221367">
        <ele>35.455369</ele>
        <time>2025-01-14T23:17:14.811Z</time>
      </trkpt>
      <trkpt lat="48.906731" lon="2.220539">
        <ele>35.021681</ele>
        <time>2025-01-14T23:17:28.137Z</time>
      </trkpt>
      <trkpt lat="48.906767" lon="2.219957">
        <ele>34.716831</ele>
        <time>2025-01-14T23:17:37.502Z</time>
      </trkpt>
      <trkpt lat="48.906877" lon="2.218660">
        <ele>34.430222</ele>
        <time>2025-01-14T23:17:59.256Z</time>
      </trkpt>
      <trkpt lat="48.906917" lon="2.218327">
        <ele>34.362490</ele>
        <time>2025-01-14T23:18:05.065Z</time>
      </trkpt>
      <trkpt lat="48.907088" lon="2.217171">
        <ele>34.118526</ele>
        <time>2025-01-14T23:18:25.753Z</time>
      </trkpt>
      <trkpt lat="48.907310" lon="2.215849">
        <ele>33.296260</ele>
        <time>2025-01-14T23:18:48.558Z</time>
      </trkpt>
      <trkpt lat="48.907742" lon="2.214174">
        <ele>32.163740</ele>
        <time>2025-01-14T23:19:15.435Z</time>
      </trkpt>
      <trkpt lat="48.907786" lon="2.213999">
        <ele>32.030509</ele>
        <time>2025-01-14T23:19:18.224Z</time>
      </trkpt>
      <trkpt lat="48.907840" lon="2.213918">
        <ele>31.948470</ele>
        <time>2025-01-14T23:19:19.928Z</time>
      </trkpt>
      <trkpt lat="48.907919" lon="2.213910">
        <ele>31.862815</ele>
        <time>2025-01-14T23:19:21.725Z</time>
      </trkpt>
      <trkpt lat="48.907968" lon="2.213942">
        <ele>31.805127</ele>
        <time>2025-01-14T23:19:22.918Z</time>
      </trkpt>
      <trkpt lat="48.908045" lon="2.214094">
        <ele>31.668667</ele>
        <time>2025-01-14T23:19:25.761Z</time>
      </trkpt>
      <trkpt lat="48.908326" lon="2.214838">
        <ele>31.058508</ele>
        <time>2025-01-14T23:19:39.044Z</time>
      </trkpt>
      <trkpt lat="48.908455" lon="2.214862">
        <ele>30.917910</ele>
        <time>2025-01-14T23:19:42.340Z</time>
      </trkpt>
      <trkpt lat="48.908543" lon="2.214905">
        <ele>30.817917</ele>
        <time>2025-01-14T23:19:44.695Z</time>
      </trkpt>
      <trkpt lat="48.908620" lon="2.214842">
        <ele>30.723333</ele>
        <time>2025-01-14T23:19:46.978Z</time>
      </trkpt>
      <trkpt lat="48.908776" lon="2.214636">
        <ele>30.538752</ele>
        <time>2025-01-14T23:19:52.575Z</time>
      </trkpt>
      <trkpt lat="48.909053" lon="2.214865">
        <ele>30.587732</ele>
        <time>2025-01-14T23:20:00.994Z</time>
      </trkpt>
      <trkpt lat="48.909318" lon="2.215118">
        <ele>30.636339</ele>
        <time>2025-01-14T23:20:10.169Z</time>
      </trkpt>
      <trkpt lat="48.909851" lon="2.215627">
        <ele>30.734111</ele>
        <time>2025-01-14T23:20:29.031Z</time>
      </trkpt>
      <trkpt lat="48.909888" lon="2.215569">
        <ele>30.742365</ele>
        <time>2025-01-14T23:20:30.576Z</time>
      </trkpt>
      <trkpt lat="48.910069" lon="2.215113">
        <ele>30.796762</ele>
        <time>2025-01-14T23:20:40.700Z</time>
      </trkpt>
      <trkpt lat="48.910099" lon="2.215058">
        <ele>30.804061</ele>
        <time>2025-01-14T23:20:41.978Z</time>
      </trkpt>
      <trkpt lat="48.909845" lon="2.214825">
        <ele>30.680263</ele>
        <time>2025-01-14T23:20:49.988Z</time>
      </trkpt>
      <trkpt lat="48.909079" lon="2.214123">
        <ele>30.178205</ele>
        <time>2025-01-14T23:21:11.510Z</time>
      </trkpt>
      <trkpt lat="48.908600" lon="2.213633">
        <ele>29.854138</ele>
        <time>2025-01-14T23:21:25.402Z</time>
      </trkpt>
      <trkpt lat="48.908402" lon="2.213438">
        <ele>29.859996</ele>
        <time>2025-01-14T23:21:31.358Z</time>
      </trkpt>
      <trkpt lat="48.908110" lon="2.213043">
        <ele>30.011621</ele>
        <time>2025-01-14T23:21:41.641Z</time>
      </trkpt>
      <trkpt lat="48.908097" lon="2.212867">
        <ele>30.056794</ele>
        <time>2025-01-14T23:21:45.009Z</time>
      </trkpt>
      <trkpt lat="48.908099" lon="2.212841">
        <ele>30.063470</ele>
        <time>2025-01-14T23:21:45.510Z</time>
      </trkpt>
      <trkpt lat="48.908148" lon="2.212578">
        <ele>30.133194</ele>
        <time>2025-01-14T23:21:51.032Z</time>
      </trkpt>
      <trkpt lat="48.908157" lon="2.212549">
        <ele>30.141373</ele>
        <time>2025-01-14T23:21:51.721Z</time>
      </trkpt>
      <trkpt lat="48.908693" lon="2.210839">
        <ele>30.412294</ele>
        <time>2025-01-14T23:22:31.899Z</time>
      </trkpt>
      <trkpt lat="48.908740" lon="2.210699">
        <ele>30.383255</ele>
        <time>2025-01-14T23:22:34.777Z</time>
      </trkpt>
      <trkpt lat="48.908934" lon="2.210119">
        <ele>30.263045</ele>
        <time>2025-01-14T23:22:46.034Z</time>
      </trkpt>
      <trkpt lat="48.908947" lon="2.210076">
        <ele>30.254303</ele>
        <time>2025-01-14T23:22:46.806Z</time>
      </trkpt>
      <trkpt lat="48.909138" lon="2.209501">
        <ele>30.135298</ele>
        <time>2025-01-14T23:22:57.284Z</time>
      </trkpt>
      <trkpt lat="48.909383" lon="2.208756">
        <ele>29.929295</ele>
        <time>2025-01-14T23:23:10.264Z</time>
      </trkpt>
      <trkpt lat="48.909627" lon="2.207981">
        <ele>29.201882</ele>
        <time>2025-01-14T23:23:24.154Z</time>
      </trkpt>
      <trkpt lat="48.909860" lon="2.207441">
        <ele>28.655078</ele>
        <time>2025-01-14T23:23:34.359Z</time>
      </trkpt>
      <trkpt lat="48.910254" lon="2.206617">
        <ele>27.792521</ele>
        <time>2025-01-14T23:23:49.807Z</time>
      </trkpt>
      <trkpt lat="48.910699" lon="2.205776">
        <ele>27.082518</ele>
        <time>2025-01-14T23:24:06.210Z</time>
      </trkpt>
      <trkpt lat="48.912189" lon="2.202721">
        <ele>25.787329</ele>
        <time>2025-01-14T23:25:07.536Z</time>
      </trkpt>
      <trkpt lat="48.912318" lon="2.202413">
        <ele>25.757321</ele>
        <time>2025-01-14T23:25:15.411Z</time>
      </trkpt>
      <trkpt lat="48.912401" lon="2.202253">
        <ele>25.740574</ele>
        <time>2025-01-14T23:25:20.205Z</time>
      </trkpt>
      <trkpt lat="48.913060" lon="2.200825">
        <ele>26.354018</ele>
        <time>2025-01-14T23:25:59.704Z</time>
      </trkpt>
      <trkpt lat="48.913178" lon="2.200684">
        <ele>26.443860</ele>
        <time>2025-01-14T23:26:03.699Z</time>
      </trkpt>
      <trkpt lat="48.913191" lon="2.200563">
        <ele>26.492110</ele>
        <time>2025-01-14T23:26:05.839Z</time>
      </trkpt>
      <trkpt lat="48.913012" lon="2.200304">
        <ele>26.640021</ele>
        <time>2025-01-14T23:26:12.209Z</time>
      </trkpt>
      <trkpt lat="48.912842" lon="2.199914">
        <ele>26.802061</ele>
        <time>2025-01-14T23:26:20.105Z</time>
      </trkpt>
      <trkpt lat="48.912792" lon="2.199799">
        <ele>26.793880</ele>
        <time>2025-01-14T23:26:22.432Z</time>
      </trkpt>
      <trkpt lat="48.912457" lon="2.199034">
        <ele>26.739337</ele>
        <time>2025-01-14T23:26:37.808Z</time>
      </trkpt>
      <trkpt lat="48.912372" lon="2.198855">
        <ele>26.726234</ele>
        <time>2025-01-14T23:26:41.523Z</time>
      </trkpt>
      <trkpt lat="48.911980" lon="2.198015">
        <ele>26.665108</ele>
        <time>2025-01-14T23:26:59.777Z</time>
      </trkpt>
      <trkpt lat="48.911612" lon="2.197122">
        <ele>26.638669</ele>
        <time>2025-01-14T23:27:19.897Z</time>
      </trkpt>
      <trkpt lat="48.911290" lon="2.196241">
        <ele>26.632822</ele>
        <time>2025-01-14T23:27:38.138Z</time>
      </trkpt>
      <trkpt lat="48.911149" lon="2.195852">
        <ele>26.630246</ele>
        <time>2025-01-14T23:27:45.678Z</time>
      </trkpt>
      <trkpt lat="48.911082" lon="2.195645">
        <ele>26.628908</ele>
        <time>2025-01-14T23:27:49.584Z</time>
      </trkpt>
      <trkpt lat="48.911056" lon="2.195432">
        <ele>26.627652</ele>
        <time>2025-01-14T23:27:53.227Z</time>
      </trkpt>
      <trkpt lat="48.911069" lon="2.195392">
        <ele>26.627393</ele>
        <time>2025-01-14T23:27:53.983Z</time>
      </trkpt>
      <trkpt lat="48.911064" lon="2.195282">
        <ele>26.626753</ele>
        <time>2025-01-14T23:27:55.826Z</time>
      </trkpt>
      <trkpt lat="48.911030" lon="2.195224">
        <ele>26.602138</ele>
        <time>2025-01-14T23:27:57.114Z</time>
      </trkpt>
      <trkpt lat="48.910982" lon="2.195202">
        <ele>26.575329</ele>
        <time>2025-01-14T23:27:58.392Z</time>
      </trkpt>
      <trkpt lat="48.910865" lon="2.194993">
        <ele>26.478835</ele>
        <time>2025-01-14T23:28:02.898Z</time>
      </trkpt>
      <trkpt lat="48.910567" lon="2.194018">
        <ele>26.100901</ele>
        <time>2025-01-14T23:28:19.998Z</time>
      </trkpt>
      <trkpt lat="48.909834" lon="2.191687">
        <ele>25.652324</ele>
        <time>2025-01-14T23:29:03.289Z</time>
      </trkpt>
      <trkpt lat="48.909728" lon="2.191358">
        <ele>25.648914</ele>
        <time>2025-01-14T23:29:10.250Z</time>
      </trkpt>
      <trkpt lat="48.909386" lon="2.190421">
        <ele>25.656974</ele>
        <time>2025-01-14T23:29:30.199Z</time>
      </trkpt>
      <trkpt lat="48.908760" lon="2.188945">
        <ele>26.345655</ele>
        <time>2025-01-14T23:30:04.520Z</time>
      </trkpt>
      <trkpt lat="48.908722" lon="2.188729">
        <ele>26.433319</ele>
        <time>2025-01-14T23:30:09.200Z</time>
      </trkpt>
      <trkpt lat="48.908727" lon="2.188626">
        <ele>26.473810</ele>
        <time>2025-01-14T23:30:11.407Z</time>
      </trkpt>
      <trkpt lat="48.908763" lon="2.188399">
        <ele>26.565360</ele>
        <time>2025-01-14T23:30:16.293Z</time>
      </trkpt>
      <trkpt lat="48.908883" lon="2.188204">
        <ele>26.670089</ele>
        <time>2025-01-14T23:30:22.022Z</time>
      </trkpt>
      <trkpt lat="48.909375" lon="2.187643">
        <ele>26.703100</ele>
        <time>2025-01-14T23:30:41.161Z</time>
      </trkpt>
      <trkpt lat="48.909683" lon="2.187264">
        <ele>26.696451</ele>
        <time>2025-01-14T23:30:52.143Z</time>
      </trkpt>
      <trkpt lat="48.909742" lon="2.187279">
        <ele>26.695447</ele>
        <time>2025-01-14T23:30:53.761Z</time>
      </trkpt>
      <trkpt lat="48.909787" lon="2.187218">
        <ele>26.694435</ele>
        <time>2025-01-14T23:30:55.272Z</time>
      </trkpt>
      <trkpt lat="48.909779" lon="2.187116">
        <ele>26.693302</ele>
        <time>2025-01-14T23:30:57.025Z</time>
      </trkpt>
      <trkpt lat="48.909720" lon="2.187073">
        <ele>26.692204</ele>
        <time>2025-01-14T23:30:58.649Z</time>
      </trkpt>
      <trkpt lat="48.909664" lon="2.187122">
        <ele>26.691120</ele>
        <time>2025-01-14T23:31:00.267Z</time>
      </trkpt>
      <trkpt lat="48.909122" lon="2.186118">
        <ele>26.662172</ele>
        <time>2025-01-14T23:31:20.786Z</time>
      </trkpt>
      <trkpt lat="48.907914" lon="2.183739">
        <ele>26.857532</ele>
        <time>2025-01-14T23:32:15.416Z</time>
      </trkpt>
      <trkpt lat="48.907573" lon="2.183056">
        <ele>27.190395</ele>
        <time>2025-01-14T23:32:33.956Z</time>
      </trkpt>
      <trkpt lat="48.906937" lon="2.181604">
        <ele>28.030677</ele>
        <time>2025-01-14T23:33:08.448Z</time>
      </trkpt>
      <trkpt lat="48.906581" lon="2.180741">
        <ele>28.697524</ele>
        <time>2025-01-14T23:33:27.605Z</time>
      </trkpt>
      <trkpt lat="48.906211" lon="2.179908">
        <ele>29.355530</ele>
        <time>2025-01-14T23:33:50.394Z</time>
      </trkpt>
      <trkpt lat="48.906265" lon="2.179616">
        <ele>29.998108</ele>
        <time>2025-01-14T23:33:58.019Z</time>
      </trkpt>
      <trkpt lat="48.906219" lon="2.179193">
        <ele>31.214649</ele>
        <time>2025-01-14T23:34:09.731Z</time>
      </trkpt>
      <trkpt lat="48.905832" lon="2.177996">
        <ele>34.999675</ele>
        <time>2025-01-14T23:34:57.968Z</time>
      </trkpt>
      <trkpt lat="48.905828" lon="2.177931">
        <ele>35.184915</ele>
        <time>2025-01-14T23:35:00.547Z</time>
      </trkpt>
      <trkpt lat="48.905822" lon="2.177728">
        <ele>35.761496</ele>
        <time>2025-01-14T23:35:08.396Z</time>
      </trkpt>
      <trkpt lat="48.905923" lon="2.177382">
        <ele>36.835707</ele>
        <time>2025-01-14T23:35:23.498Z</time>
      </trkpt>
      <trkpt lat="48.905966" lon="2.177262">
        <ele>37.234407</ele>
        <time>2025-01-14T23:35:29.162Z</time>
      </trkpt>
      <trkpt lat="48.906220" lon="2.176513">
        <ele>40.308398</ele>
        <time>2025-01-14T23:36:05.843Z</time>
      </trkpt>
      <trkpt lat="48.906309" lon="2.176290">
        <ele>41.259938</ele>
        <time>2025-01-14T23:36:17.826Z</time>
      </trkpt>
      <trkpt lat="48.906472" lon="2.176004">
        <ele>42.640587</ele>
        <time>2025-01-14T23:36:34.851Z</time>
      </trkpt>
      <trkpt lat="48.906784" lon="2.175637">
        <ele>44.828972</ele>
        <time>2025-01-14T23:36:58.929Z</time>
      </trkpt>
      <trkpt lat="48.906973" lon="2.175260">
        <ele>46.558291</ele>
        <time>2025-01-14T23:37:16.400Z</time>
      </trkpt>
      <trkpt lat="48.907151" lon="2.175139">
        <ele>47.338297</ele>
        <time>2025-01-14T23:37:26.694Z</time>
      </trkpt>
      <trkpt lat="48.907137" lon="2.175025">
        <ele>47.492048</ele>
        <time>2025-01-14T23:37:30.454Z</time>
      </trkpt>
      <trkpt lat="48.907192" lon="2.174621">
        <ele>48.039021</ele>
        <time>2025-01-14T23:37:43.025Z</time>
      </trkpt>
      <trkpt lat="48.907189" lon="2.174318">
        <ele>48.440769</ele>
        <time>2025-01-14T23:37:51.361Z</time>
      </trkpt>
      <trkpt lat="48.907135" lon="2.173943">
        <ele>48.949718</ele>
        <time>2025-01-14T23:38:01.132Z</time>
      </trkpt>
      <trkpt lat="48.907025" lon="2.173691">
        <ele>49.350771</ele>
        <time>2025-01-14T23:38:08.220Z</time>
      </trkpt>
      <trkpt lat="48.906601" lon="2.172826">
        <ele>50.781335</ele>
        <time>2025-01-14T23:38:30.425Z</time>
      </trkpt>
      <trkpt lat="48.906800" lon="2.172585">
        <ele>50.851166</ele>
        <time>2025-01-14T23:38:37.887Z</time>
      </trkpt>
      <trkpt lat="48.908052" lon="2.170993">
        <ele>51.245063</ele>
        <time>2025-01-14T23:39:22.380Z</time>
      </trkpt>
      <trkpt lat="48.908138" lon="2.170836">
        <ele>51.304186</ele>
        <time>2025-01-14T23:39:26.059Z</time>
      </trkpt>
      <trkpt lat="48.908209" lon="2.170607">
        <ele>51.377434</ele>
        <time>2025-01-14T23:39:30.706Z</time>
      </trkpt>
      <trkpt lat="48.908298" lon="2.167651">
        <ele>52.217012</ele>
        <time>2025-01-14T23:40:29.235Z</time>
      </trkpt>
      <trkpt lat="48.908347" lon="2.166837">
        <ele>52.436745</ele>
        <time>2025-01-14T23:40:45.156Z</time>
      </trkpt>
      <trkpt lat="48.908547" lon="2.164472">
        <ele>52.550639</ele>
        <time>2025-01-14T23:41:28.740Z</time>
      </trkpt>
      <trkpt lat="48.909031" lon="2.161440">
        <ele>51.239886</ele>
        <time>2025-01-14T23:42:19.802Z</time>
      </trkpt>
      <trkpt lat="48.909120" lon="2.160996">
        <ele>50.932122</ele>
        <time>2025-01-14T23:42:26.847Z</time>
      </trkpt>
      <trkpt lat="48.909153" lon="2.160899">
        <ele>50.859705</ele>
        <time>2025-01-14T23:42:28.507Z</time>
      </trkpt>
      <trkpt lat="48.909300" lon="2.160614">
        <ele>50.619509</ele>
        <time>2025-01-14T23:42:33.860Z</time>
      </trkpt>
      <trkpt lat="48.909369" lon="2.160621">
        <ele>50.549750</ele>
        <time>2025-01-14T23:42:35.425Z</time>
      </trkpt>
      <trkpt lat="48.909415" lon="2.160565">
        <ele>50.477991</ele>
        <time>2025-01-14T23:42:36.720Z</time>
      </trkpt>
      <trkpt lat="48.909428" lon="2.160481">
        <ele>50.397913</ele>
        <time>2025-01-14T23:42:37.976Z</time>
      </trkpt>
      <trkpt lat="48.909578" lon="2.160327">
        <ele>50.142436</ele>
        <time>2025-01-14T23:42:41.934Z</time>
      </trkpt>
      <trkpt lat="48.909941" lon="2.160117">
        <ele>49.594146</ele>
        <time>2025-01-14T23:42:50.438Z</time>
      </trkpt>
      <trkpt lat="48.910581" lon="2.159759">
        <ele>48.631446</ele>
        <time>2025-01-14T23:43:05.984Z</time>
      </trkpt>
      <trkpt lat="48.911425" lon="2.159319">
        <ele>47.842658</ele>
        <time>2025-01-14T23:43:28.014Z</time>
      </trkpt>
      <trkpt lat="48.911558" lon="2.159142">
        <ele>47.785748</ele>
        <time>2025-01-14T23:43:32.554Z</time>
      </trkpt>
      <trkpt lat="48.911618" lon="2.159019">
        <ele>47.753324</ele>
        <time>2025-01-14T23:43:35.173Z</time>
      </trkpt>
      <trkpt lat="48.911661" lon="2.158901">
        <ele>47.724764</ele>
        <time>2025-01-14T23:43:37.527Z</time>
      </trkpt>
      <trkpt lat="48.911685" lon="2.158643">
        <ele>47.669607</ele>
        <time>2025-01-14T23:43:42.070Z</time>
      </trkpt>
      <trkpt lat="48.911677" lon="2.158511">
        <ele>47.641547</ele>
        <time>2025-01-14T23:43:44.391Z</time>
      </trkpt>
      <trkpt lat="48.911513" lon="2.157647">
        <ele>47.451183</ele>
        <time>2025-01-14T23:44:00.309Z</time>
      </trkpt>
      <trkpt lat="48.911483" lon="2.157488">
        <ele>47.416167</ele>
        <time>2025-01-14T23:44:03.133Z</time>
      </trkpt>
      <trkpt lat="48.911322" lon="2.156548">
        <ele>47.110084</ele>
        <time>2025-01-14T23:44:18.968Z</time>
      </trkpt>
      <trkpt lat="48.911331" lon="2.156403">
        <ele>47.063119</ele>
        <time>2025-01-14T23:44:21.358Z</time>
      </trkpt>
      <trkpt lat="48.911418" lon="2.155718">
        <ele>46.838148</ele>
        <time>2025-01-14T23:44:32.933Z</time>
      </trkpt>
      <trkpt lat="48.911628" lon="2.154585">
        <ele>46.532900</ele>
        <time>2025-01-14T23:44:51.969Z</time>
      </trkpt>
      <trkpt lat="48.911516" lon="2.154314">
        <ele>46.554531</ele>
        <time>2025-01-14T23:44:57.496Z</time>
      </trkpt>
      <trkpt lat="48.911584" lon="2.154145">
        <ele>46.567920</ele>
        <time>2025-01-14T23:45:00.883Z</time>
      </trkpt>
      <trkpt lat="48.911747" lon="2.153437">
        <ele>46.618610</ele>
        <time>2025-01-14T23:45:13.799Z</time>
      </trkpt>
      <trkpt lat="48.911833" lon="2.152960">
        <ele>46.652031</ele>
        <time>2025-01-14T23:45:22.527Z</time>
      </trkpt>
      <trkpt lat="48.911862" lon="2.152819">
        <ele>46.662014</ele>
        <time>2025-01-14T23:45:25.357Z</time>
      </trkpt>
      <trkpt lat="48.911945" lon="2.152374">
        <ele>46.693270</ele>
        <time>2025-01-14T23:45:34.434Z</time>
      </trkpt>
      <trkpt lat="48.912028" lon="2.151930">
        <ele>46.909649</ele>
        <time>2025-01-14T23:45:44.466Z</time>
      </trkpt>
      <trkpt lat="48.912065" lon="2.151737">
        <ele>47.052104</ele>
        <time>2025-01-14T23:45:49.184Z</time>
      </trkpt>
      <trkpt lat="48.912133" lon="2.151702">
        <ele>47.129499</ele>
        <time>2025-01-14T23:45:51.786Z</time>
      </trkpt>
      <trkpt lat="48.912209" lon="2.151735">
        <ele>47.214710</ele>
        <time>2025-01-14T23:45:54.749Z</time>
      </trkpt>
      <trkpt lat="48.912336" lon="2.151701">
        <ele>47.353738</ele>
        <time>2025-01-14T23:45:59.535Z</time>
      </trkpt>
      <trkpt lat="48.912367" lon="2.151702">
        <ele>47.387169</ele>
        <time>2025-01-14T23:46:00.696Z</time>
      </trkpt>
      <trkpt lat="48.912518" lon="2.151709">
        <ele>47.550045</ele>
        <time>2025-01-14T23:46:06.269Z</time>
      </trkpt>
      <trkpt lat="48.912575" lon="2.151717">
        <ele>47.611760</ele>
        <time>2025-01-14T23:46:08.302Z</time>
      </trkpt>
      <trkpt lat="48.912914" lon="2.151782">
        <ele>47.980144</ele>
        <time>2025-01-14T23:46:20.419Z</time>
      </trkpt>
      <trkpt lat="48.913245" lon="2.151899">
        <ele>48.346515</ele>
        <time>2025-01-14T23:46:31.564Z</time>
      </trkpt>
      <trkpt lat="48.913289" lon="2.151934">
        <ele>48.400045</ele>
        <time>2025-01-14T23:46:33.079Z</time>
      </trkpt>
      <trkpt lat="48.913306" lon="2.152083">
        <ele>48.507200</ele>
        <time>2025-01-14T23:46:36.093Z</time>
      </trkpt>
      <trkpt lat="48.913357" lon="2.152119">
        <ele>48.567814</ele>
        <time>2025-01-14T23:46:37.722Z</time>
      </trkpt>
      <trkpt lat="48.913408" lon="2.152167">
        <ele>48.632469</ele>
        <time>2025-01-14T23:46:39.448Z</time>
      </trkpt>
      <trkpt lat="48.913432" lon="2.152201">
        <ele>48.646509</ele>
        <time>2025-01-14T23:46:40.422Z</time>
      </trkpt>
      <trkpt lat="48.913543" lon="2.152152">
        <ele>48.658922</ele>
        <time>2025-01-14T23:46:43.692Z</time>
      </trkpt>
      <trkpt lat="48.913588" lon="2.152125">
        <ele>48.664117</ele>
        <time>2025-01-14T23:46:45.091Z</time>
      </trkpt>
      <trkpt lat="48.913592" lon="2.152070">
        <ele>48.668023</ele>
        <time>2025-01-14T23:46:46.127Z</time>
      </trkpt>
      <trkpt lat="48.913640" lon="2.152042">
        <ele>48.673544</ele>
        <time>2025-01-14T23:46:47.565Z</time>
      </trkpt>
      <trkpt lat="48.913718" lon="2.152054">
        <ele>48.681965</ele>
        <time>2025-01-14T23:46:49.827Z</time>
      </trkpt>
      <trkpt lat="48.914059" lon="2.152132">
        <ele>48.719001</ele>
        <time>2025-01-14T23:46:59.388Z</time>
      </trkpt>
      <trkpt lat="48.914296" lon="2.152203">
        <ele>48.744944</ele>
        <time>2025-01-14T23:47:05.700Z</time>
      </trkpt>
      <trkpt lat="48.914701" lon="2.152361">
        <ele>48.789849</ele>
        <time>2025-01-14T23:47:16.435Z</time>
      </trkpt>
      <trkpt lat="48.914904" lon="2.152469">
        <ele>48.812946</ele>
        <time>2025-01-14T23:47:22.058Z</time>
      </trkpt>
      <trkpt lat="48.915477" lon="2.152716">
        <ele>48.675820</ele>
        <time>2025-01-14T23:47:38.776Z</time>
      </trkpt>
      <trkpt lat="48.915694" lon="2.152860">
        <ele>48.572064</ele>
        <time>2025-01-14T23:47:45.305Z</time>
      </trkpt>
      <trkpt lat="48.915807" lon="2.153068">
        <ele>48.494334</ele>
        <time>2025-01-14T23:47:50.009Z</time>
      </trkpt>
      <trkpt lat="48.915885" lon="2.153152">
        <ele>48.452454</ele>
        <time>2025-01-14T23:47:52.461Z</time>
      </trkpt>
      <trkpt lat="48.915920" lon="2.153246">
        <ele>48.421336</ele>
        <time>2025-01-14T23:47:54.246Z</time>
      </trkpt>
      <trkpt lat="48.915946" lon="2.153254">
        <ele>48.409710</ele>
        <time>2025-01-14T23:47:54.932Z</time>
      </trkpt>
      <trkpt lat="48.915965" lon="2.153260">
        <ele>48.401205</ele>
        <time>2025-01-14T23:47:55.413Z</time>
      </trkpt>
      <trkpt lat="48.916009" lon="2.153274">
        <ele>48.381504</ele>
        <time>2025-01-14T23:47:56.535Z</time>
      </trkpt>
      <trkpt lat="48.916048" lon="2.153191">
        <ele>48.352116</ele>
        <time>2025-01-14T23:47:58.193Z</time>
      </trkpt>
      <trkpt lat="48.916185" lon="2.153046">
        <ele>48.278976</ele>
        <time>2025-01-14T23:48:02.298Z</time>
      </trkpt>
      <trkpt lat="48.916307" lon="2.152992">
        <ele>48.223290</ele>
        <time>2025-01-14T23:48:05.390Z</time>
      </trkpt>
      <trkpt lat="48.917229" lon="2.153092">
        <ele>47.451176</ele>
        <time>2025-01-14T23:48:27.214Z</time>
      </trkpt>
      <trkpt lat="48.917471" lon="2.153149">
        <ele>47.173227</ele>
        <time>2025-01-14T23:48:32.925Z</time>
      </trkpt>
      <trkpt lat="48.918210" lon="2.153398">
        <ele>46.314123</ele>
        <time>2025-01-14T23:48:50.648Z</time>
      </trkpt>
      <trkpt lat="48.918898" lon="2.153698">
        <ele>45.468986</ele>
        <time>2025-01-14T23:49:07.541Z</time>
      </trkpt>
      <trkpt lat="48.919306" lon="2.154018">
        <ele>44.914205</ele>
        <time>2025-01-14T23:49:18.445Z</time>
      </trkpt>
      <trkpt lat="48.919417" lon="2.154276">
        <ele>44.669277</ele>
        <time>2025-01-14T23:49:23.294Z</time>
      </trkpt>
      <trkpt lat="48.919505" lon="2.154394">
        <ele>44.527515</ele>
        <time>2025-01-14T23:49:26.085Z</time>
      </trkpt>
      <trkpt lat="48.919530" lon="2.154502">
        <ele>44.436570</ele>
        <time>2025-01-14T23:49:27.856Z</time>
      </trkpt>
      <trkpt lat="48.919559" lon="2.154519">
        <ele>44.399008</ele>
        <time>2025-01-14T23:49:28.601Z</time>
      </trkpt>
      <trkpt lat="48.919630" lon="2.154319">
        <ele>44.218462</ele>
        <time>2025-01-14T23:49:32.133Z</time>
      </trkpt>
      <trkpt lat="48.919745" lon="2.154258">
        <ele>44.071263</ele>
        <time>2025-01-14T23:49:34.961Z</time>
      </trkpt>
      <trkpt lat="48.919788" lon="2.154191">
        <ele>43.996879</ele>
        <time>2025-01-14T23:49:36.371Z</time>
      </trkpt>
      <trkpt lat="48.919820" lon="2.154075">
        <ele>43.896959</ele>
        <time>2025-01-14T23:49:38.257Z</time>
      </trkpt>
      <trkpt lat="48.919820" lon="2.153950">
        <ele>43.773375</ele>
        <time>2025-01-14T23:49:40.126Z</time>
      </trkpt>
      <trkpt lat="48.919773" lon="2.153812">
        <ele>43.566250</ele>
        <time>2025-01-14T23:49:42.425Z</time>
      </trkpt>
      <trkpt lat="48.919860" lon="2.153626">
        <ele>43.262016</ele>
        <time>2025-01-14T23:49:45.780Z</time>
      </trkpt>
      <trkpt lat="48.919859" lon="2.153523">
        <ele>43.124749</ele>
        <time>2025-01-14T23:49:47.262Z</time>
      </trkpt>
      <trkpt lat="48.919744" lon="2.152900">
        <ele>42.262435</ele>
        <time>2025-01-14T23:49:56.505Z</time>
      </trkpt>
      <trkpt lat="48.919796" lon="2.152769">
        <ele>42.058492</ele>
        <time>2025-01-14T23:49:58.672Z</time>
      </trkpt>
      <trkpt lat="48.919881" lon="2.152738">
        <ele>41.881241</ele>
        <time>2025-01-14T23:50:00.549Z</time>
      </trkpt>
      <trkpt lat="48.920419" lon="2.151960">
        <ele>40.376225</ele>
        <time>2025-01-14T23:50:29.052Z</time>
      </trkpt>
      <trkpt lat="48.920380" lon="2.151700">
        <ele>40.065275</ele>
        <time>2025-01-14T23:50:35.818Z</time>
      </trkpt>
      <trkpt lat="48.920245" lon="2.150690">
        <ele>39.061064</ele>
        <time>2025-01-14T23:51:02.605Z</time>
      </trkpt>
      <trkpt lat="48.920211" lon="2.149723">
        <ele>38.117551</ele>
        <time>2025-01-14T23:51:28.842Z</time>
      </trkpt>
      <trkpt lat="48.920257" lon="2.149028">
        <ele>37.448203</ele>
        <time>2025-01-14T23:51:47.759Z</time>
      </trkpt>
      <trkpt lat="48.920246" lon="2.146572">
        <ele>35.382040</ele>
        <time>2025-01-14T23:52:53.223Z</time>
      </trkpt>
      <trkpt lat="48.919995" lon="2.146321">
        <ele>35.029380</ele>
        <time>2025-01-14T23:53:05.377Z</time>
      </trkpt>
      <trkpt lat="48.919952" lon="2.146202">
        <ele>34.931748</ele>
        <time>2025-01-14T23:53:09.022Z</time>
      </trkpt>
      <trkpt lat="48.919939" lon="2.146054">
        <ele>34.824403</ele>
        <time>2025-01-14T23:53:12.993Z</time>
      </trkpt>
      <trkpt lat="48.920146" lon="2.145513">
        <ele>34.374344</ele>
        <time>2025-01-14T23:53:29.763Z</time>
      </trkpt>
      <trkpt lat="48.920305" lon="2.145237">
        <ele>34.110471</ele>
        <time>2025-01-14T23:53:39.632Z</time>
      </trkpt>
      <trkpt lat="48.920306" lon="2.145234">
        <ele>34.108052</ele>
        <time>2025-01-14T23:53:39.729Z</time>
      </trkpt>
      <trkpt lat="48.920656" lon="2.144316">
        <ele>33.345058</ele>
        <time>2025-01-14T23:54:08.796Z</time>
      </trkpt>
      <trkpt lat="48.921042" lon="2.143540">
        <ele>33.012830</ele>
        <time>2025-01-14T23:54:35.670Z</time>
      </trkpt>
      <trkpt lat="48.921252" lon="2.142995">
        <ele>32.835257</ele>
        <time>2025-01-14T23:54:53.229Z</time>
      </trkpt>
      <trkpt lat="48.921255" lon="2.142839">
        <ele>32.791393</ele>
        <time>2025-01-14T23:54:57.611Z</time>
      </trkpt>
      <trkpt lat="48.921205" lon="2.142718">
        <ele>32.751218</ele>
        <time>2025-01-14T23:55:01.650Z</time>
      </trkpt>
      <trkpt lat="48.920668" lon="2.141986">
        <ele>32.519012</ele>
        <time>2025-01-14T23:55:33.281Z</time>
      </trkpt>
      <trkpt lat="48.918458" lon="2.139620">
        <ele>33.671730</ele>
        <time>2025-01-14T23:57:42.884Z</time>
      </trkpt>
      <trkpt lat="48.917773" lon="2.138860">
        <ele>33.944761</ele>
        <time>2025-01-14T23:58:06.758Z</time>
      </trkpt>
      <trkpt lat="48.917667" lon="2.138749">
        <ele>33.878431</ele>
        <time>2025-01-14T23:58:10.082Z</time>
      </trkpt>
      <trkpt lat="48.917628" lon="2.138685">
        <ele>33.848864</ele>
        <time>2025-01-14T23:58:11.563Z</time>
      </trkpt>
      <trkpt lat="48.917617" lon="2.138563">
        <ele>33.807148</ele>
        <time>2025-01-14T23:58:13.637Z</time>
      </trkpt>
      <trkpt lat="48.917744" lon="2.138218">
        <ele>33.673190</ele>
        <time>2025-01-14T23:58:20.197Z</time>
      </trkpt>
      <trkpt lat="48.917754" lon="2.138081">
        <ele>33.626496</ele>
        <time>2025-01-14T23:58:22.455Z</time>
      </trkpt>
      <trkpt lat="48.917718" lon="2.137936">
        <ele>33.573988</ele>
        <time>2025-01-14T23:58:24.986Z</time>
      </trkpt>
      <trkpt lat="48.917647" lon="2.137826">
        <ele>33.521756</ele>
        <time>2025-01-14T23:58:27.492Z</time>
      </trkpt>
      <trkpt lat="48.917753" lon="2.137698">
        <ele>33.452000</ele>
        <time>2025-01-14T23:58:30.793Z</time>
      </trkpt>
      <trkpt lat="48.917863" lon="2.137666">
        <ele>33.394269</ele>
        <time>2025-01-14T23:58:33.516Z</time>
      </trkpt>
      <trkpt lat="48.917992" lon="2.137729">
        <ele>33.324429</ele>
        <time>2025-01-14T23:58:36.765Z</time>
      </trkpt>
      <trkpt lat="48.918090" lon="2.137828">
        <ele>33.263792</ele>
        <time>2025-01-14T23:58:39.556Z</time>
      </trkpt>
      <trkpt lat="48.919183" lon="2.135124">
        <ele>32.065873</ele>
        <time>2025-01-14T23:59:31.357Z</time>
      </trkpt>
      <trkpt lat="48.919183" lon="2.135124">
        <ele>32.065873</ele>
        <time>2025-01-14T23:59:31.370Z</time>
      </trkpt>
      <trkpt lat="48.919252" lon="2.135001">
        <ele>32.003181</ele>
        <time>2025-01-14T23:59:34.091Z</time>
      </trkpt>
      <trkpt lat="48.920339" lon="2.133117">
        <ele>31.080364</ele>
        <time>2025-01-15T00:00:15.546Z</time>
      </trkpt>
      <trkpt lat="48.920839" lon="2.132160">
        <ele>30.163335</ele>
        <time>2025-01-15T00:00:34.923Z</time>
      </trkpt>
      <trkpt lat="48.920884" lon="2.132066">
        <ele>30.061640</ele>
        <time>2025-01-15T00:00:36.747Z</time>
      </trkpt>
      <trkpt lat="48.921073" lon="2.131656">
        <ele>29.623710</ele>
        <time>2025-01-15T00:00:44.516Z</time>
      </trkpt>
      <trkpt lat="48.921080" lon="2.131456">
        <ele>29.448580</ele>
        <time>2025-01-15T00:00:47.530Z</time>
      </trkpt>
      <trkpt lat="48.921004" lon="2.131294">
        <ele>29.274528</ele>
        <time>2025-01-15T00:00:50.460Z</time>
      </trkpt>
      <trkpt lat="48.921046" lon="2.131203">
        <ele>29.177290</ele>
        <time>2025-01-15T00:00:52.058Z</time>
      </trkpt>
      <trkpt lat="48.921075" lon="2.131140">
        <ele>29.110030</ele>
        <time>2025-01-15T00:00:53.181Z</time>
      </trkpt>
      <trkpt lat="48.921123" lon="2.131035">
        <ele>28.998184</ele>
        <time>2025-01-15T00:00:55.024Z</time>
      </trkpt>
      <trkpt lat="48.921204" lon="2.131057">
        <ele>28.888693</ele>
        <time>2025-01-15T00:00:56.833Z</time>
      </trkpt>
      <trkpt lat="48.921367" lon="2.131028">
        <ele>28.670310</ele>
        <time>2025-01-15T00:01:00.408Z</time>
      </trkpt>
      <trkpt lat="48.921428" lon="2.130974">
        <ele>28.576353</ele>
        <time>2025-01-15T00:01:01.934Z</time>
      </trkpt>
      <trkpt lat="48.921495" lon="2.131056">
        <ele>28.438447</ele>
        <time>2025-01-15T00:01:03.851Z</time>
      </trkpt>
      <trkpt lat="48.921610" lon="2.130841">
        <ele>28.146261</ele>
        <time>2025-01-15T00:01:08.093Z</time>
      </trkpt>
      <trkpt lat="48.921642" lon="2.130787">
        <ele>28.069621</ele>
        <time>2025-01-15T00:01:09.205Z</time>
      </trkpt>
      <trkpt lat="48.922049" lon="2.130152">
        <ele>27.134699</ele>
        <time>2025-01-15T00:01:22.878Z</time>
      </trkpt>
      <trkpt lat="48.922373" lon="2.129690">
        <ele>26.422540</ele>
        <time>2025-01-15T00:01:33.322Z</time>
      </trkpt>
      <trkpt lat="48.922402" lon="2.129733">
        <ele>26.357598</ele>
        <time>2025-01-15T00:01:34.276Z</time>
      </trkpt>
      <trkpt lat="48.922426" lon="2.129768">
        <ele>26.304282</ele>
        <time>2025-01-15T00:01:35.066Z</time>
      </trkpt>
      <trkpt lat="48.923710" lon="2.127778">
        <ele>24.237509</ele>
        <time>2025-01-15T00:02:50.971Z</time>
      </trkpt>
      <trkpt lat="48.923713" lon="2.127775">
        <ele>24.233911</ele>
        <time>2025-01-15T00:02:51.099Z</time>
      </trkpt>
      <trkpt lat="48.924164" lon="2.127122">
        <ele>23.826012</ele>
        <time>2025-01-15T00:03:16.876Z</time>
      </trkpt>
      <trkpt lat="48.924669" lon="2.127731">
        <ele>23.680810</ele>
        <time>2025-01-15T00:03:34.490Z</time>
      </trkpt>
      <trkpt lat="48.925323" lon="2.128655">
        <ele>23.485393</ele>
        <time>2025-01-15T00:04:03.065Z</time>
      </trkpt>
      <trkpt lat="48.925429" lon="2.128811">
        <ele>23.504145</ele>
        <time>2025-01-15T00:04:07.951Z</time>
      </trkpt>
      <trkpt lat="48.925709" lon="2.129232">
        <ele>23.554201</ele>
        <time>2025-01-15T00:04:20.992Z</time>
      </trkpt>
      <trkpt lat="48.927698" lon="2.132284">
        <ele>23.678247</ele>
        <time>2025-01-15T00:05:43.982Z</time>
      </trkpt>
      <trkpt lat="48.927802" lon="2.132375">
        <ele>23.675682</ele>
        <time>2025-01-15T00:05:47.525Z</time>
      </trkpt>
      <trkpt lat="48.930154" lon="2.136149">
        <ele>24.322304</ele>
        <time>2025-01-15T00:07:34.090Z</time>
      </trkpt>
      <trkpt lat="48.930180" lon="2.136153">
        <ele>24.327089</ele>
        <time>2025-01-15T00:07:34.810Z</time>
      </trkpt>
      <trkpt lat="48.930407" lon="2.136488">
        <ele>24.363643</ele>
        <time>2025-01-15T00:07:43.695Z</time>
      </trkpt>
      <trkpt lat="48.930822" lon="2.137172">
        <ele>24.280338</ele>
        <time>2025-01-15T00:07:59.833Z</time>
      </trkpt>
      <trkpt lat="48.931297" lon="2.137957">
        <ele>24.184850</ele>
        <time>2025-01-15T00:08:18.293Z</time>
      </trkpt>
      <trkpt lat="48.931732" lon="2.138675">
        <ele>24.045863</ele>
        <time>2025-01-15T00:08:34.613Z</time>
      </trkpt>
      <trkpt lat="48.932219" lon="2.139488">
        <ele>23.779909</ele>
        <time>2025-01-15T00:08:52.843Z</time>
      </trkpt>
      <trkpt lat="48.932275" lon="2.139570">
        <ele>23.751317</ele>
        <time>2025-01-15T00:08:54.815Z</time>
      </trkpt>
      <trkpt lat="48.932331" lon="2.139653">
        <ele>23.722558</ele>
        <time>2025-01-15T00:08:56.802Z</time>
      </trkpt>
      <trkpt lat="48.932411" lon="2.139797">
        <ele>23.676971</ele>
        <time>2025-01-15T00:08:59.940Z</time>
      </trkpt>
      <trkpt lat="48.932818" lon="2.140443">
        <ele>23.464619</ele>
        <time>2025-01-15T00:09:14.928Z</time>
      </trkpt>
      <trkpt lat="48.932859" lon="2.140517">
        <ele>23.458719</ele>
        <time>2025-01-15T00:09:16.585Z</time>
      </trkpt>
      <trkpt lat="48.932951" lon="2.140699">
        <ele>23.444720</ele>
        <time>2025-01-15T00:09:20.532Z</time>
      </trkpt>
      <trkpt lat="48.933442" lon="2.141449">
        <ele>23.380179</ele>
        <time>2025-01-15T00:09:38.959Z</time>
      </trkpt>
      <trkpt lat="48.933995" lon="2.142318">
        <ele>23.306431</ele>
        <time>2025-01-15T00:10:00.009Z</time>
      </trkpt>
      <trkpt lat="48.934485" lon="2.143075">
        <ele>23.247272</ele>
        <time>2025-01-15T00:10:18.606Z</time>
      </trkpt>
      <trkpt lat="48.934613" lon="2.143175">
        <ele>23.235229</ele>
        <time>2025-01-15T00:10:22.435Z</time>
      </trkpt>
      <trkpt lat="48.935475" lon="2.144206">
        <ele>23.156578</ele>
        <time>2025-01-15T00:10:51.136Z</time>
      </trkpt>
      <trkpt lat="48.935987" lon="2.144894">
        <ele>23.247742</ele>
        <time>2025-01-15T00:11:09.318Z</time>
      </trkpt>
      <trkpt lat="48.936254" lon="2.145292">
        <ele>23.297625</ele>
        <time>2025-01-15T00:11:19.712Z</time>
      </trkpt>
      <trkpt lat="48.936268" lon="2.145343">
        <ele>23.302471</ele>
        <time>2025-01-15T00:11:20.765Z</time>
      </trkpt>
      <trkpt lat="48.937045" lon="2.146486">
        <ele>23.474922</ele>
        <time>2025-01-15T00:11:51.561Z</time>
      </trkpt>
      <trkpt lat="48.937389" lon="2.147010">
        <ele>23.571437</ele>
        <time>2025-01-15T00:12:05.718Z</time>
      </trkpt>
      <trkpt lat="48.937722" lon="2.147600">
        <ele>23.672779</ele>
        <time>2025-01-15T00:12:19.974Z</time>
      </trkpt>
      <trkpt lat="48.937757" lon="2.147562">
        <ele>23.681305</ele>
        <time>2025-01-15T00:12:25.185Z</time>
      </trkpt>
      <trkpt lat="48.937924" lon="2.147910">
        <ele>23.737452</ele>
        <time>2025-01-15T00:12:44.856Z</time>
      </trkpt>
      <trkpt lat="48.938154" lon="2.148535">
        <ele>23.711257</ele>
        <time>2025-01-15T00:13:17.563Z</time>
      </trkpt>
      <trkpt lat="48.938228" lon="2.148739">
        <ele>23.699144</ele>
        <time>2025-01-15T00:13:28.210Z</time>
      </trkpt>
      <trkpt lat="48.938288" lon="2.148688">
        <ele>23.693707</ele>
        <time>2025-01-15T00:13:36.662Z</time>
      </trkpt>
      <trkpt lat="48.938327" lon="2.148786">
        <ele>23.687752</ele>
        <time>2025-01-15T00:13:38.661Z</time>
      </trkpt>
      <trkpt lat="48.938364" lon="2.148876">
        <ele>23.682233</ele>
        <time>2025-01-15T00:13:40.449Z</time>
      </trkpt>
      <trkpt lat="48.938386" lon="2.148929">
        <ele>23.678975</ele>
        <time>2025-01-15T00:13:41.525Z</time>
      </trkpt>
      <trkpt lat="48.938428" lon="2.148935">
        <ele>23.675637</ele>
        <time>2025-01-15T00:13:42.628Z</time>
      </trkpt>
      <trkpt lat="48.939202" lon="2.150859">
        <ele>23.822373</ele>
        <time>2025-01-15T00:14:21.536Z</time>
      </trkpt>
      <trkpt lat="48.939890" lon="2.152428">
        <ele>24.301580</ele>
        <time>2025-01-15T00:15:00.107Z</time>
      </trkpt>
      <trkpt lat="48.939948" lon="2.152589">
        <ele>24.287064</ele>
        <time>2025-01-15T00:15:03.755Z</time>
      </trkpt>
      <trkpt lat="48.939917" lon="2.152668">
        <ele>24.279789</ele>
        <time>2025-01-15T00:15:05.513Z</time>
      </trkpt>
      <trkpt lat="48.940027" lon="2.152882">
        <ele>24.258307</ele>
        <time>2025-01-15T00:15:17.924Z</time>
      </trkpt>
      <trkpt lat="48.940010" lon="2.152904">
        <ele>24.255622</ele>
        <time>2025-01-15T00:15:19.470Z</time>
      </trkpt>
      <trkpt lat="48.940379" lon="2.153476">
        <ele>24.192242</ele>
        <time>2025-01-15T00:15:33.362Z</time>
      </trkpt>
      <trkpt lat="48.940990" lon="2.154514">
        <ele>24.086604</ele>
        <time>2025-01-15T00:15:56.367Z</time>
      </trkpt>
      <trkpt lat="48.941299" lon="2.155029">
        <ele>24.100525</ele>
        <time>2025-01-15T00:16:07.816Z</time>
      </trkpt>
      <trkpt lat="48.941566" lon="2.155408">
        <ele>24.111616</ele>
        <time>2025-01-15T00:16:17.303Z</time>
      </trkpt>
      <trkpt lat="48.942346" lon="2.156384">
        <ele>24.192992</ele>
        <time>2025-01-15T00:16:46.328Z</time>
      </trkpt>
      <trkpt lat="48.942776" lon="2.156967">
        <ele>24.664047</ele>
        <time>2025-01-15T00:17:04.227Z</time>
      </trkpt>
      <trkpt lat="48.942846" lon="2.157076">
        <ele>24.745962</ele>
        <time>2025-01-15T00:17:07.417Z</time>
      </trkpt>
      <trkpt lat="48.942865" lon="2.157105">
        <ele>24.767973</ele>
        <time>2025-01-15T00:17:08.279Z</time>
      </trkpt>
      <trkpt lat="48.942842" lon="2.157141">
        <ele>24.794959</ele>
        <time>2025-01-15T00:17:09.389Z</time>
      </trkpt>
      <trkpt lat="48.942535" lon="2.157685">
        <ele>25.180354</ele>
        <time>2025-01-15T00:17:25.003Z</time>
      </trkpt>
      <trkpt lat="48.942296" lon="2.158122">
        <ele>25.485922</ele>
        <time>2025-01-15T00:17:37.229Z</time>
      </trkpt>
      <trkpt lat="48.941937" lon="2.158830">
        <ele>25.909413</ele>
        <time>2025-01-15T00:17:55.787Z</time>
      </trkpt>
      <trkpt lat="48.942359" lon="2.159671">
        <ele>26.386514</ele>
        <time>2025-01-15T00:18:16.893Z</time>
      </trkpt>
      <trkpt lat="48.942361" lon="2.159675">
        <ele>26.388780</ele>
        <time>2025-01-15T00:18:16.998Z</time>
      </trkpt>
      <trkpt lat="48.942811" lon="2.160341">
        <ele>26.819513</ele>
        <time>2025-01-15T00:18:36.328Z</time>
      </trkpt>
      <trkpt lat="48.943352" lon="2.160952">
        <ele>26.540312</ele>
        <time>2025-01-15T00:18:56.129Z</time>
      </trkpt>
      <trkpt lat="48.943798" lon="2.160142">
        <ele>26.205541</ele>
        <time>2025-01-15T00:19:44.395Z</time>
      </trkpt>
      <trkpt lat="48.943912" lon="2.159934">
        <ele>26.119738</ele>
        <time>2025-01-15T00:19:56.781Z</time>
      </trkpt>
      <trkpt lat="48.944076" lon="2.159650">
        <ele>25.999967</ele>
        <time>2025-01-15T00:20:14.031Z</time>
      </trkpt>
      <trkpt lat="48.944231" lon="2.159381">
        <ele>25.856594</ele>
        <time>2025-01-15T00:20:30.360Z</time>
      </trkpt>
      <trkpt lat="48.944252" lon="2.159341">
        <ele>25.835099</ele>
        <time>2025-01-15T00:20:32.693Z</time>
      </trkpt>
      <trkpt lat="48.944695" lon="2.158495">
        <ele>25.380947</ele>
        <time>2025-01-15T00:21:22.092Z</time>
      </trkpt>
      <trkpt lat="48.945139" lon="2.157649">
        <ele>24.926399</ele>
        <time>2025-01-15T00:22:11.521Z</time>
      </trkpt>
      <trkpt lat="48.945305" lon="2.157332">
        <ele>25.009938</ele>
        <time>2025-01-15T00:22:30.011Z</time>
      </trkpt>
      <trkpt lat="48.945449" lon="2.157077">
        <ele>25.357712</ele>
        <time>2025-01-15T00:22:45.376Z</time>
      </trkpt>
      <trkpt lat="48.945585" lon="2.156807">
        <ele>25.709586</ele>
        <time>2025-01-15T00:23:00.914Z</time>
      </trkpt>
      <trkpt lat="48.945650" lon="2.156631">
        <ele>25.918393</ele>
        <time>2025-01-15T00:23:10.121Z</time>
      </trkpt>
      <trkpt lat="48.945723" lon="2.156688">
        <ele>26.047567</ele>
        <time>2025-01-15T00:23:15.844Z</time>
      </trkpt>
      <trkpt lat="48.945833" lon="2.156655">
        <ele>26.224097</ele>
        <time>2025-01-15T00:23:20.131Z</time>
      </trkpt>
      <trkpt lat="48.945916" lon="2.156732">
        <ele>26.377131</ele>
        <time>2025-01-15T00:23:24.108Z</time>
      </trkpt>
      <trkpt lat="48.945978" lon="2.156725">
        <ele>26.475021</ele>
        <time>2025-01-15T00:23:26.557Z</time>
      </trkpt>
      <trkpt lat="48.946019" lon="2.156677">
        <ele>26.556454</ele>
        <time>2025-01-15T00:23:28.796Z</time>
      </trkpt>
      <trkpt lat="48.946037" lon="2.156637">
        <ele>26.606596</ele>
        <time>2025-01-15T00:23:30.043Z</time>
      </trkpt>
      <trkpt lat="48.946134" lon="2.156570">
        <ele>26.774308</ele>
        <time>2025-01-15T00:23:34.473Z</time>
      </trkpt>
      <trkpt lat="48.946184" lon="2.156548">
        <ele>26.856256</ele>
        <time>2025-01-15T00:23:36.642Z</time>
      </trkpt>
      <trkpt lat="48.947357" lon="2.156533">
        <ele>28.584120</ele>
        <time>2025-01-15T00:24:17.410Z</time>
      </trkpt>
      <trkpt lat="48.948282" lon="2.155816">
        <ele>30.031523</ele>
        <time>2025-01-15T00:24:53.167Z</time>
      </trkpt>
      <trkpt lat="48.948124" lon="2.155582">
        <ele>30.348666</ele>
        <time>2025-01-15T00:25:08.492Z</time>
      </trkpt>
      <trkpt lat="48.948121" lon="2.155578">
        <ele>30.354548</ele>
        <time>2025-01-15T00:25:08.770Z</time>
      </trkpt>
      <trkpt lat="48.948121" lon="2.155578">
        <ele>30.354548</ele>
        <time>2025-01-15T00:25:08.779Z</time>
      </trkpt>
      <trkpt lat="48.948120" lon="2.155580">
        <ele>30.356984</ele>
        <time>2025-01-15T00:25:08.821Z</time>
      </trkpt>
      <trkpt lat="48.947480" lon="2.154790">
        <ele>31.572315</ele>
        <time>2025-01-15T00:25:30.129Z</time>
      </trkpt>
      <trkpt lat="48.947440" lon="2.154720">
        <ele>31.662207</ele>
        <time>2025-01-15T00:25:31.705Z</time>
      </trkpt>
      <trkpt lat="48.947430" lon="2.154660">
        <ele>31.722177</ele>
        <time>2025-01-15T00:25:32.756Z</time>
      </trkpt>
      <trkpt lat="48.947480" lon="2.154500">
        <ele>31.893836</ele>
        <time>2025-01-15T00:25:35.766Z</time>
      </trkpt>
      <trkpt lat="48.947980" lon="2.153540">
        <ele>33.075948</ele>
        <time>2025-01-15T00:25:56.575Z</time>
      </trkpt>
      <trkpt lat="48.947989" lon="2.153546">
        <ele>33.090167</ele>
        <time>2025-01-15T00:25:56.821Z</time>
      </trkpt>
      <trkpt lat="48.947604" lon="2.153045">
        <ele>33.823089</ele>
        <time>2025-01-15T00:26:14.863Z</time>
      </trkpt>
      <trkpt lat="48.948283" lon="2.151756">
        <ele>35.393593</ele>
        <time>2025-01-15T00:26:53.516Z</time>
      </trkpt>
      <trkpt lat="48.949142" lon="2.150129">
        <ele>36.666516</ele>
        <time>2025-01-15T00:27:38.788Z</time>
      </trkpt>
      <trkpt lat="48.949292" lon="2.149950">
        <ele>36.841826</ele>
        <time>2025-01-15T00:27:44.341Z</time>
      </trkpt>
      <trkpt lat="48.949435" lon="2.149894">
        <ele>36.977651</ele>
        <time>2025-01-15T00:27:48.679Z</time>
      </trkpt>
      <trkpt lat="48.949486" lon="2.149813">
        <ele>37.045442</ele>
        <time>2025-01-15T00:27:50.850Z</time>
      </trkpt>
      <trkpt lat="48.949515" lon="2.149761">
        <ele>37.085187</ele>
        <time>2025-01-15T00:27:52.195Z</time>
      </trkpt>
      <trkpt lat="48.949624" lon="2.149557">
        <ele>37.206556</ele>
        <time>2025-01-15T00:27:57.232Z</time>
      </trkpt>
      <trkpt lat="48.949652" lon="2.149503">
        <ele>37.238308</ele>
        <time>2025-01-15T00:27:58.507Z</time>
      </trkpt>
      <trkpt lat="48.949693" lon="2.149412">
        <ele>37.289237</ele>
        <time>2025-01-15T00:28:00.694Z</time>
      </trkpt>
      <trkpt lat="48.949645" lon="2.149353">
        <ele>37.332586</ele>
        <time>2025-01-15T00:28:02.448Z</time>
      </trkpt>
      <trkpt lat="48.949508" lon="2.149194">
        <ele>37.453635</ele>
        <time>2025-01-15T00:28:07.460Z</time>
      </trkpt>
      <trkpt lat="48.949567" lon="2.149082">
        <ele>37.519896</ele>
        <time>2025-01-15T00:28:14.021Z</time>
      </trkpt>
      <trkpt lat="48.949841" lon="2.148564">
        <ele>37.826850</ele>
        <time>2025-01-15T00:28:44.372Z</time>
      </trkpt>
      <trkpt lat="48.950378" lon="2.147544">
        <ele>38.436784</ele>
        <time>2025-01-15T00:29:44.039Z</time>
      </trkpt>
      <trkpt lat="48.950815" lon="2.146715">
        <ele>38.965264</ele>
        <time>2025-01-15T00:30:32.546Z</time>
      </trkpt>
      <trkpt lat="48.951451" lon="2.145503">
        <ele>39.718616</ele>
        <time>2025-01-15T00:31:43.363Z</time>
      </trkpt>
      <trkpt lat="48.952137" lon="2.144195">
        <ele>40.062611</ele>
        <time>2025-01-15T00:32:59.742Z</time>
      </trkpt>
      <trkpt lat="48.952270" lon="2.144364">
        <ele>40.116818</ele>
        <time>2025-01-15T00:33:04.614Z</time>
      </trkpt>
      <trkpt lat="48.952315" lon="2.144421">
        <ele>40.135134</ele>
        <time>2025-01-15T00:33:06.263Z</time>
      </trkpt>
      <trkpt lat="48.952462" lon="2.144142">
        <ele>40.208641</ele>
        <time>2025-01-15T00:33:12.762Z</time>
      </trkpt>
      <trkpt lat="48.952566" lon="2.143944">
        <ele>40.260743</ele>
        <time>2025-01-15T00:33:17.349Z</time>
      </trkpt>
      <trkpt lat="48.952705" lon="2.143682">
        <ele>40.297222</ele>
        <time>2025-01-15T00:33:23.453Z</time>
      </trkpt>
      <trkpt lat="48.952660" lon="2.143627">
        <ele>40.305607</ele>
        <time>2025-01-15T00:33:24.965Z</time>
      </trkpt>
      <trkpt lat="48.952531" lon="2.143465">
        <ele>40.329903</ele>
        <time>2025-01-15T00:33:29.562Z</time>
      </trkpt>
      <trkpt lat="48.953068" lon="2.142451">
        <ele>40.454202</ele>
        <time>2025-01-15T00:34:29.020Z</time>
      </trkpt>
      <trkpt lat="48.953839" lon="2.140995">
        <ele>40.604814</ele>
        <time>2025-01-15T00:35:54.344Z</time>
      </trkpt>
      <trkpt lat="48.954143" lon="2.140411">
        <ele>40.656589</ele>
        <time>2025-01-15T00:36:28.389Z</time>
      </trkpt>
      <trkpt lat="48.954676" lon="2.139387">
        <ele>40.784821</ele>
        <time>2025-01-15T00:37:28.020Z</time>
      </trkpt>
      <trkpt lat="48.954841" lon="2.139072">
        <ele>40.851826</ele>
        <time>2025-01-15T00:37:46.407Z</time>
      </trkpt>
      <trkpt lat="48.954975" lon="2.139235">
        <ele>40.895257</ele>
        <time>2025-01-15T00:37:51.413Z</time>
      </trkpt>
      <trkpt lat="48.955346" lon="2.138529">
        <ele>41.045621</ele>
        <time>2025-01-15T00:38:32.657Z</time>
      </trkpt>
      <trkpt lat="48.955853" lon="2.137564">
        <ele>41.199357</ele>
        <time>2025-01-15T00:39:29.083Z</time>
      </trkpt>
      <trkpt lat="48.955776" lon="2.137297">
        <ele>41.214442</ele>
        <time>2025-01-15T00:39:34.487Z</time>
      </trkpt>
      <trkpt lat="48.955853" lon="2.137564">
        <ele>41.229527</ele>
        <time>2025-01-15T00:39:39.842Z</time>
      </trkpt>
      <trkpt lat="48.955877" lon="2.137646">
        <ele>41.234171</ele>
        <time>2025-01-15T00:39:41.523Z</time>
      </trkpt>
      <trkpt lat="48.955987" lon="2.137440">
        <ele>41.247905</ele>
        <time>2025-01-15T00:39:46.649Z</time>
      </trkpt>
      <trkpt lat="48.956455" lon="2.136545">
        <ele>41.307088</ele>
        <time>2025-01-15T00:40:06.402Z</time>
      </trkpt>
      <trkpt lat="48.956467" lon="2.136470">
        <ele>41.311081</ele>
        <time>2025-01-15T00:40:07.679Z</time>
      </trkpt>
      <trkpt lat="48.956454" lon="2.136419">
        <ele>41.313911</ele>
        <time>2025-01-15T00:40:08.610Z</time>
      </trkpt>
      <trkpt lat="48.956286" lon="2.136256">
        <ele>41.272051</ele>
        <time>2025-01-15T00:40:13.778Z</time>
      </trkpt>
      <trkpt lat="48.956454" lon="2.136419">
        <ele>41.212053</ele>
        <time>2025-01-15T00:40:27.658Z</time>
      </trkpt>
      <trkpt lat="48.956467" lon="2.136470">
        <ele>41.201233</ele>
        <time>2025-01-15T00:40:30.152Z</time>
      </trkpt>
      <trkpt lat="48.957069" lon="2.136263">
        <ele>41.015348</ele>
        <time>2025-01-15T00:40:46.207Z</time>
      </trkpt>
      <trkpt lat="48.957396" lon="2.136174">
        <ele>40.915296</ele>
        <time>2025-01-15T00:40:54.760Z</time>
      </trkpt>
      <trkpt lat="48.957524" lon="2.136170">
        <ele>40.876735</ele>
        <time>2025-01-15T00:40:58.038Z</time>
      </trkpt>
      <trkpt lat="48.958145" lon="2.134816">
        <ele>40.019661</ele>
        <time>2025-01-15T00:41:44.327Z</time>
      </trkpt>
      <trkpt lat="48.958745" lon="2.133493">
        <ele>38.956659</ele>
        <time>2025-01-15T00:42:27.108Z</time>
      </trkpt>
      <trkpt lat="48.958781" lon="2.133481">
        <ele>38.929697</ele>
        <time>2025-01-15T00:42:28.588Z</time>
      </trkpt>
      <trkpt lat="48.958830" lon="2.133405">
        <ele>38.878529</ele>
        <time>2025-01-15T00:42:31.340Z</time>
      </trkpt>
      <trkpt lat="48.958884" lon="2.133318">
        <ele>38.821018</ele>
        <time>2025-01-15T00:42:34.464Z</time>
      </trkpt>
      <trkpt lat="48.959609" lon="2.131778">
        <ele>37.910715</ele>
        <time>2025-01-15T00:43:25.940Z</time>
      </trkpt>
      <trkpt lat="48.960963" lon="2.128826">
        <ele>38.272287</ele>
        <time>2025-01-15T00:45:16.457Z</time>
      </trkpt>
      <trkpt lat="48.961258" lon="2.128082">
        <ele>38.360703</ele>
        <time>2025-01-15T00:45:43.755Z</time>
      </trkpt>
      <trkpt lat="48.961284" lon="2.128016">
        <ele>38.368533</ele>
        <time>2025-01-15T00:45:46.106Z</time>
      </trkpt>
      <trkpt lat="48.961358" lon="2.127808">
        <ele>38.392599</ele>
        <time>2025-01-15T00:45:53.290Z</time>
      </trkpt>
      <trkpt lat="48.962796" lon="2.127439">
        <ele>37.971853</ele>
        <time>2025-01-15T00:46:57.068Z</time>
      </trkpt>
      <trkpt lat="48.963051" lon="2.127371">
        <ele>37.750244</ele>
        <time>2025-01-15T00:47:08.078Z</time>
      </trkpt>
      <trkpt lat="48.967385" lon="2.126213">
        <ele>33.673692</ele>
        <time>2025-01-15T00:50:09.803Z</time>
      </trkpt>
      <trkpt lat="48.967610" lon="2.126154">
        <ele>33.486663</ele>
        <time>2025-01-15T00:50:19.063Z</time>
      </trkpt>
      <trkpt lat="48.968505" lon="2.125939">
        <ele>32.891524</ele>
        <time>2025-01-15T00:50:56.574Z</time>
      </trkpt>
      <trkpt lat="48.971589" lon="2.127994">
        <ele>31.960294</ele>
        <time>2025-01-15T00:53:24.484Z</time>
      </trkpt>
      <trkpt lat="48.973143" lon="2.129029">
        <ele>31.528767</ele>
        <time>2025-01-15T00:54:38.631Z</time>
      </trkpt>
      <trkpt lat="48.973225" lon="2.129396">
        <ele>31.443585</ele>
        <time>2025-01-15T00:54:49.570Z</time>
      </trkpt>
      <trkpt lat="48.973420" lon="2.129833">
        <ele>31.327482</ele>
        <time>2025-01-15T00:55:04.474Z</time>
      </trkpt>
      <trkpt lat="48.973426" lon="2.130167">
        <ele>31.254068</ele>
        <time>2025-01-15T00:55:13.931Z</time>
      </trkpt>
      <trkpt lat="48.973452" lon="2.130338">
        <ele>31.215501</ele>
        <time>2025-01-15T00:55:18.896Z</time>
      </trkpt>
      <trkpt lat="48.973539" lon="2.130510">
        <ele>31.167791</ele>
        <time>2025-01-15T00:55:25.068Z</time>
      </trkpt>
      <trkpt lat="48.973902" lon="2.130975">
        <ele>31.143362</ele>
        <time>2025-01-15T00:55:45.770Z</time>
      </trkpt>
      <trkpt lat="48.974077" lon="2.131132">
        <ele>31.135019</ele>
        <time>2025-01-15T00:55:54.711Z</time>
      </trkpt>
      <trkpt lat="48.974377" lon="2.131542">
        <ele>31.118462</ele>
        <time>2025-01-15T00:56:12.682Z</time>
      </trkpt>
      <trkpt lat="48.974457" lon="2.131787">
        <ele>31.111083</ele>
        <time>2025-01-15T00:56:20.766Z</time>
      </trkpt>
      <trkpt lat="48.974277" lon="2.132528">
        <ele>31.089778</ele>
        <time>2025-01-15T00:56:44.254Z</time>
      </trkpt>
      <trkpt lat="48.974219" lon="2.132925">
        <ele>31.135547</ele>
        <time>2025-01-15T00:56:56.312Z</time>
      </trkpt>
      <trkpt lat="48.974139" lon="2.133101">
        <ele>31.164421</ele>
        <time>2025-01-15T00:57:02.636Z</time>
      </trkpt>
      <trkpt lat="48.973999" lon="2.133189">
        <ele>31.195541</ele>
        <time>2025-01-15T00:57:09.473Z</time>
      </trkpt>
      <trkpt lat="48.973935" lon="2.133352">
        <ele>31.221159</ele>
        <time>2025-01-15T00:57:15.119Z</time>
      </trkpt>
      <trkpt lat="48.973779" lon="2.133935">
        <ele>31.306075</ele>
        <time>2025-01-15T00:57:34.081Z</time>
      </trkpt>
      <trkpt lat="48.973777" lon="2.133939">
        <ele>31.306754</ele>
        <time>2025-01-15T00:57:34.221Z</time>
      </trkpt>
      <trkpt lat="48.973668" lon="2.134609">
        <ele>31.399856</ele>
        <time>2025-01-15T00:57:55.129Z</time>
      </trkpt>
      <trkpt lat="48.973688" lon="2.135029">
        <ele>31.456654</ele>
        <time>2025-01-15T00:58:07.836Z</time>
      </trkpt>
      <trkpt lat="48.973652" lon="2.135291">
        <ele>31.487277</ele>
        <time>2025-01-15T00:58:15.894Z</time>
      </trkpt>
      <trkpt lat="48.973518" lon="2.135565">
        <ele>31.526126</ele>
        <time>2025-01-15T00:58:26.096Z</time>
      </trkpt>
      <trkpt lat="48.973456" lon="2.135810">
        <ele>31.555981</ele>
        <time>2025-01-15T00:58:33.941Z</time>
      </trkpt>
      <trkpt lat="48.973605" lon="2.136315">
        <ele>31.618933</ele>
        <time>2025-01-15T00:58:50.507Z</time>
      </trkpt>
      <trkpt lat="48.973531" lon="2.136716">
        <ele>31.666293</ele>
        <time>2025-01-15T00:59:02.933Z</time>
      </trkpt>
      <trkpt lat="48.973503" lon="2.137028">
        <ele>31.702098</ele>
        <time>2025-01-15T00:59:12.284Z</time>
      </trkpt>
      <trkpt lat="48.973394" lon="2.137117">
        <ele>31.723519</ele>
        <time>2025-01-15T00:59:17.883Z</time>
      </trkpt>
      <trkpt lat="48.973274" lon="2.137134">
        <ele>31.744394</ele>
        <time>2025-01-15T00:59:23.373Z</time>
      </trkpt>
      <trkpt lat="48.973270" lon="2.137132">
        <ele>31.745123</ele>
        <time>2025-01-15T00:59:23.552Z</time>
      </trkpt>
      <trkpt lat="48.973128" lon="2.137084">
        <ele>31.770957</ele>
        <time>2025-01-15T00:59:30.128Z</time>
      </trkpt>
      <trkpt lat="48.972381" lon="2.137822">
        <ele>32.032643</ele>
        <time>2025-01-15T01:00:10.827Z</time>
      </trkpt>
      <trkpt lat="48.972087" lon="2.138633">
        <ele>32.211389</ele>
        <time>2025-01-15T01:00:39.586Z</time>
      </trkpt>
      <trkpt lat="48.971956" lon="2.138674">
        <ele>32.250697</ele>
        <time>2025-01-15T01:00:45.826Z</time>
      </trkpt>
      <trkpt lat="48.971941" lon="2.138910">
        <ele>32.296443</ele>
        <time>2025-01-15T01:00:53.087Z</time>
      </trkpt>
      <trkpt lat="48.971968" lon="2.139122">
        <ele>32.341362</ele>
        <time>2025-01-15T01:00:59.696Z</time>
      </trkpt>
      <trkpt lat="48.971954" lon="2.139404">
        <ele>32.400358</ele>
        <time>2025-01-15T01:01:08.381Z</time>
      </trkpt>
      <trkpt lat="48.971693" lon="2.140003">
        <ele>32.550338</ele>
        <time>2025-01-15T01:01:30.495Z</time>
      </trkpt>
      <trkpt lat="48.971690" lon="2.140009">
        <ele>32.551911</ele>
        <time>2025-01-15T01:01:30.710Z</time>
      </trkpt>
      <trkpt lat="48.971673" lon="2.140750">
        <ele>32.706585</ele>
        <time>2025-01-15T01:01:53.495Z</time>
      </trkpt>
      <trkpt lat="48.971706" lon="2.140912">
        <ele>32.741970</ele>
        <time>2025-01-15T01:01:58.607Z</time>
      </trkpt>
      <trkpt lat="48.971654" lon="2.141197">
        <ele>32.803678</ele>
        <time>2025-01-15T01:02:07.410Z</time>
      </trkpt>
      <trkpt lat="48.971707" lon="2.141340">
        <ele>32.837935</ele>
        <time>2025-01-15T01:02:12.327Z</time>
      </trkpt>
      <trkpt lat="48.971749" lon="2.141646">
        <ele>32.846700</ele>
        <time>2025-01-15T01:02:21.672Z</time>
      </trkpt>
      <trkpt lat="48.971582" lon="2.142271">
        <ele>32.750236</ele>
        <time>2025-01-15T01:02:41.521Z</time>
      </trkpt>
      <trkpt lat="48.971569" lon="2.142453">
        <ele>32.724064</ele>
        <time>2025-01-15T01:02:46.771Z</time>
      </trkpt>
      <trkpt lat="48.971681" lon="2.142937">
        <ele>32.650702</ele>
        <time>2025-01-15T01:03:01.256Z</time>
      </trkpt>
      <trkpt lat="48.971740" lon="2.143310">
        <ele>32.595854</ele>
        <time>2025-01-15T01:03:12.046Z</time>
      </trkpt>
      <trkpt lat="48.971590" lon="2.143229">
        <ele>32.561196</ele>
        <time>2025-01-15T01:03:18.837Z</time>
      </trkpt>
      <trkpt lat="48.971200" lon="2.143181">
        <ele>32.477642</ele>
        <time>2025-01-15T01:03:35.691Z</time>
      </trkpt>
      <trkpt lat="48.970849" lon="2.143313">
        <ele>32.465039</ele>
        <time>2025-01-15T01:03:51.480Z</time>
      </trkpt>
      <trkpt lat="48.970539" lon="2.143328">
        <ele>32.454228</ele>
        <time>2025-01-15T01:04:05.138Z</time>
      </trkpt>
      <trkpt lat="48.970288" lon="2.143301">
        <ele>32.445457</ele>
        <time>2025-01-15T01:04:16.299Z</time>
      </trkpt>
      <trkpt lat="48.970050" lon="2.143327">
        <ele>32.437139</ele>
        <time>2025-01-15T01:04:27.095Z</time>
      </trkpt>
      <trkpt lat="48.970042" lon="2.143331">
        <ele>32.436846</ele>
        <time>2025-01-15T01:04:27.476Z</time>
      </trkpt>
      <trkpt lat="48.969940" lon="2.143375">
        <ele>32.433150</ele>
        <time>2025-01-15T01:04:32.282Z</time>
      </trkpt>
      <trkpt lat="48.969685" lon="2.143363">
        <ele>32.424257</ele>
        <time>2025-01-15T01:04:44.047Z</time>
      </trkpt>
      <trkpt lat="48.969611" lon="2.143270">
        <ele>32.420913</ele>
        <time>2025-01-15T01:04:48.420Z</time>
      </trkpt>
      <trkpt lat="48.969425" lon="2.143271">
        <ele>32.412337</ele>
        <time>2025-01-15T01:04:56.884Z</time>
      </trkpt>
      <trkpt lat="48.969456" lon="2.143401">
        <ele>32.401196</ele>
        <time>2025-01-15T01:05:00.992Z</time>
      </trkpt>
      <trkpt lat="48.969507" lon="2.143663">
        <ele>32.379182</ele>
        <time>2025-01-15T01:05:08.979Z</time>
      </trkpt>
      <trkpt lat="48.969533" lon="2.144169">
        <ele>32.338297</ele>
        <time>2025-01-15T01:05:23.713Z</time>
      </trkpt>
      <trkpt lat="48.969583" lon="2.144470">
        <ele>32.313286</ele>
        <time>2025-01-15T01:05:32.651Z</time>
      </trkpt>
      <trkpt lat="48.969540" lon="2.144814">
        <ele>32.285078</ele>
        <time>2025-01-15T01:05:42.652Z</time>
      </trkpt>
      <trkpt lat="48.969601" lon="2.145297">
        <ele>32.245457</ele>
        <time>2025-01-15T01:05:56.705Z</time>
      </trkpt>
      <trkpt lat="48.969659" lon="2.146521">
        <ele>32.088483</ele>
        <time>2025-01-15T01:06:32.051Z</time>
      </trkpt>
      <trkpt lat="48.969645" lon="2.146847">
        <ele>32.030266</ele>
        <time>2025-01-15T01:06:41.458Z</time>
      </trkpt>
      <trkpt lat="48.969688" lon="2.147347">
        <ele>31.940405</ele>
        <time>2025-01-15T01:06:55.916Z</time>
      </trkpt>
      <trkpt lat="48.969679" lon="2.147519">
        <ele>31.909657</ele>
        <time>2025-01-15T01:07:00.840Z</time>
      </trkpt>
      <trkpt lat="48.969816" lon="2.148122">
        <ele>31.795950</ele>
        <time>2025-01-15T01:07:19.019Z</time>
      </trkpt>
      <trkpt lat="48.969844" lon="2.148404">
        <ele>31.745126</ele>
        <time>2025-01-15T01:07:27.123Z</time>
      </trkpt>
      <trkpt lat="48.969776" lon="2.148778">
        <ele>31.660450</ele>
        <time>2025-01-15T01:07:38.054Z</time>
      </trkpt>
      <trkpt lat="48.969837" lon="2.150359">
        <ele>31.233799</ele>
        <time>2025-01-15T01:08:22.840Z</time>
      </trkpt>
      <trkpt lat="48.969854" lon="2.150589">
        <ele>31.171446</ele>
        <time>2025-01-15T01:08:29.374Z</time>
      </trkpt>
      <trkpt lat="48.969946" lon="2.150997">
        <ele>31.055229</ele>
        <time>2025-01-15T01:08:41.536Z</time>
      </trkpt>
      <trkpt lat="48.969966" lon="2.151306">
        <ele>30.971582</ele>
        <time>2025-01-15T01:08:50.243Z</time>
      </trkpt>
      <trkpt lat="48.969968" lon="2.151613">
        <ele>30.962593</ele>
        <time>2025-01-15T01:08:58.951Z</time>
      </trkpt>
      <trkpt lat="48.969998" lon="2.151682">
        <ele>30.961025</ele>
        <time>2025-01-15T01:09:01.309Z</time>
      </trkpt>
      <trkpt lat="48.970064" lon="2.151781">
        <ele>30.958352</ele>
        <time>2025-01-15T01:09:05.340Z</time>
      </trkpt>
      <trkpt lat="48.970217" lon="2.151936">
        <ele>30.953050</ele>
        <time>2025-01-15T01:09:13.371Z</time>
      </trkpt>
      <trkpt lat="48.970453" lon="2.152467">
        <ele>30.940901</ele>
        <time>2025-01-15T01:09:32.083Z</time>
      </trkpt>
      <trkpt lat="48.970455" lon="2.152471">
        <ele>30.940806</ele>
        <time>2025-01-15T01:09:32.234Z</time>
      </trkpt>
      <trkpt lat="48.971191" lon="2.153252">
        <ele>30.912612</ele>
        <time>2025-01-15T01:10:12.762Z</time>
      </trkpt>
      <trkpt lat="48.971263" lon="2.153316">
        <ele>30.906068</ele>
        <time>2025-01-15T01:10:16.570Z</time>
      </trkpt>
      <trkpt lat="48.971374" lon="2.153350">
        <ele>30.897180</ele>
        <time>2025-01-15T01:10:21.832Z</time>
      </trkpt>
      <trkpt lat="48.971697" lon="2.153369">
        <ele>30.871805</ele>
        <time>2025-01-15T01:10:36.933Z</time>
      </trkpt>
      <trkpt lat="48.971765" lon="2.153419">
        <ele>30.865878</ele>
        <time>2025-01-15T01:10:40.445Z</time>
      </trkpt>
      <trkpt lat="48.971922" lon="2.153401">
        <ele>30.853518</ele>
        <time>2025-01-15T01:10:47.612Z</time>
      </trkpt>
      <trkpt lat="48.971986" lon="2.153437">
        <ele>30.848163</ele>
        <time>2025-01-15T01:10:50.636Z</time>
      </trkpt>
      <trkpt lat="48.972141" lon="2.153581">
        <ele>30.833911</ele>
        <time>2025-01-15T01:10:58.623Z</time>
      </trkpt>
      <trkpt lat="48.972359" lon="2.153583">
        <ele>30.816797</ele>
        <time>2025-01-15T01:11:07.985Z</time>
      </trkpt>
      <trkpt lat="48.972399" lon="2.153625">
        <ele>30.812983</ele>
        <time>2025-01-15T01:11:10.097Z</time>
      </trkpt>
      <trkpt lat="48.972638" lon="2.153710">
        <ele>30.793717</ele>
        <time>2025-01-15T01:11:20.531Z</time>
      </trkpt>
      <trkpt lat="48.972692" lon="2.153769">
        <ele>30.788500</ele>
        <time>2025-01-15T01:11:23.336Z</time>
      </trkpt>
      <trkpt lat="48.972862" lon="2.153833">
        <ele>30.775202</ele>
        <time>2025-01-15T01:11:30.810Z</time>
      </trkpt>
      <trkpt lat="48.973048" lon="2.153840">
        <ele>30.781595</ele>
        <time>2025-01-15T01:11:38.838Z</time>
      </trkpt>
      <trkpt lat="48.973247" lon="2.153984">
        <ele>30.789164</ele>
        <time>2025-01-15T01:11:48.516Z</time>
      </trkpt>
      <trkpt lat="48.973375" lon="2.154003">
        <ele>30.793582</ele>
        <time>2025-01-15T01:11:54.230Z</time>
      </trkpt>
      <trkpt lat="48.973551" lon="2.153930">
        <ele>30.799849</ele>
        <time>2025-01-15T01:12:02.472Z</time>
      </trkpt>
      <trkpt lat="48.973700" lon="2.153624">
        <ele>30.808442</ele>
        <time>2025-01-15T01:12:13.837Z</time>
      </trkpt>
      <trkpt lat="48.973846" lon="2.153445">
        <ele>30.814880</ele>
        <time>2025-01-15T01:12:22.314Z</time>
      </trkpt>
      <trkpt lat="48.974221" lon="2.153354">
        <ele>30.827927</ele>
        <time>2025-01-15T01:12:39.856Z</time>
      </trkpt>
      <trkpt lat="48.974417" lon="2.153259">
        <ele>30.834993</ele>
        <time>2025-01-15T01:12:49.505Z</time>
      </trkpt>
      <trkpt lat="48.974580" lon="2.152985">
        <ele>30.801724</ele>
        <time>2025-01-15T01:13:00.981Z</time>
      </trkpt>
      <trkpt lat="48.974692" lon="2.152707">
        <ele>30.761781</ele>
        <time>2025-01-15T01:13:11.046Z</time>
      </trkpt>
      <trkpt lat="48.974738" lon="2.152478">
        <ele>30.732455</ele>
        <time>2025-01-15T01:13:18.381Z</time>
      </trkpt>
      <trkpt lat="48.974796" lon="2.152188">
        <ele>30.695331</ele>
        <time>2025-01-15T01:13:27.418Z</time>
      </trkpt>
      <trkpt lat="48.975058" lon="2.152001">
        <ele>30.641355</ele>
        <time>2025-01-15T01:13:40.083Z</time>
      </trkpt>
      <trkpt lat="48.975109" lon="2.151872">
        <ele>30.622915</ele>
        <time>2025-01-15T01:13:44.314Z</time>
      </trkpt>
      <trkpt lat="48.975107" lon="2.151413">
        <ele>30.566707</ele>
        <time>2025-01-15T01:13:56.959Z</time>
      </trkpt>
      <trkpt lat="48.975156" lon="2.151148">
        <ele>30.532994</ele>
        <time>2025-01-15T01:14:04.518Z</time>
      </trkpt>
      <trkpt lat="48.975332" lon="2.150866">
        <ele>30.461264</ele>
        <time>2025-01-15T01:14:15.198Z</time>
      </trkpt>
      <trkpt lat="48.975443" lon="2.150732">
        <ele>30.395000</ele>
        <time>2025-01-15T01:14:21.175Z</time>
      </trkpt>
      <trkpt lat="48.975564" lon="2.150619">
        <ele>30.328595</ele>
        <time>2025-01-15T01:14:27.132Z</time>
      </trkpt>
      <trkpt lat="48.975604" lon="2.150453">
        <ele>30.274287</ele>
        <time>2025-01-15T01:14:32.023Z</time>
      </trkpt>
      <trkpt lat="48.975703" lon="2.150125">
        <ele>30.163413</ele>
        <time>2025-01-15T01:14:42.016Z</time>
      </trkpt>
      <trkpt lat="48.976711" lon="2.148469">
        <ele>29.659702</ele>
        <time>2025-01-15T01:15:46.300Z</time>
      </trkpt>
      <trkpt lat="48.976713" lon="2.148463">
        <ele>29.659702</ele>
        <time>2025-01-15T01:15:46.487Z</time>
      </trkpt>
      <trkpt lat="48.976830" lon="2.148116">
        <ele>29.659678</ele>
        <time>2025-01-15T01:15:57.924Z</time>
      </trkpt>
      <trkpt lat="48.976931" lon="2.147681">
        <ele>29.659649</ele>
        <time>2025-01-15T01:16:11.480Z</time>
      </trkpt>
      <trkpt lat="48.977121" lon="2.147259">
        <ele>29.659618</ele>
        <time>2025-01-15T01:16:26.721Z</time>
      </trkpt>
      <trkpt lat="48.977256" lon="2.147050">
        <ele>29.659600</ele>
        <time>2025-01-15T01:16:35.541Z</time>
      </trkpt>
      <trkpt lat="48.977455" lon="2.146492">
        <ele>29.657385</ele>
        <time>2025-01-15T01:16:54.808Z</time>
      </trkpt>
      <trkpt lat="48.978094" lon="2.145212">
        <ele>29.637446</ele>
        <time>2025-01-15T01:17:42.616Z</time>
      </trkpt>
      <trkpt lat="48.978471" lon="2.144375">
        <ele>29.597791</ele>
        <time>2025-01-15T01:18:11.678Z</time>
      </trkpt>
      <trkpt lat="48.978472" lon="2.144372">
        <ele>29.596215</ele>
        <time>2025-01-15T01:18:11.788Z</time>
      </trkpt>
      <trkpt lat="48.978715" lon="2.143732">
        <ele>29.249815</ele>
        <time>2025-01-15T01:18:32.291Z</time>
      </trkpt>
      <trkpt lat="48.979084" lon="2.142898">
        <ele>28.778595</ele>
        <time>2025-01-15T01:18:59.913Z</time>
      </trkpt>
      <trkpt lat="48.979248" lon="2.142470">
        <ele>28.546406</ele>
        <time>2025-01-15T01:19:13.512Z</time>
      </trkpt>
      <trkpt lat="48.979583" lon="2.141706">
        <ele>28.227673</ele>
        <time>2025-01-15T01:19:38.852Z</time>
      </trkpt>
      <trkpt lat="48.979899" lon="2.140827">
        <ele>27.990514</ele>
        <time>2025-01-15T01:20:06.924Z</time>
      </trkpt>
      <trkpt lat="48.979908" lon="2.140560">
        <ele>27.927250</ele>
        <time>2025-01-15T01:20:14.508Z</time>
      </trkpt>
      <trkpt lat="48.979979" lon="2.140156">
        <ele>27.828283</ele>
        <time>2025-01-15T01:20:26.505Z</time>
      </trkpt>
      <trkpt lat="48.980102" lon="2.139833">
        <ele>27.739917</ele>
        <time>2025-01-15T01:20:37.331Z</time>
      </trkpt>
      <trkpt lat="48.980243" lon="2.139588">
        <ele>27.717539</ele>
        <time>2025-01-15T01:20:46.983Z</time>
      </trkpt>
      <trkpt lat="48.980376" lon="2.139188">
        <ele>27.802429</ele>
        <time>2025-01-15T01:21:00.634Z</time>
      </trkpt>
      <trkpt lat="48.980414" lon="2.138914">
        <ele>27.855446</ele>
        <time>2025-01-15T01:21:09.407Z</time>
      </trkpt>
      <trkpt lat="48.980526" lon="2.138522">
        <ele>27.936385</ele>
        <time>2025-01-15T01:21:22.968Z</time>
      </trkpt>
      <trkpt lat="48.980527" lon="2.138514">
        <ele>27.937927</ele>
        <time>2025-01-15T01:21:23.223Z</time>
      </trkpt>
      <trkpt lat="48.980550" lon="2.138247">
        <ele>27.988907</ele>
        <time>2025-01-15T01:21:31.780Z</time>
      </trkpt>
      <trkpt lat="48.980544" lon="2.137850">
        <ele>28.064085</ele>
        <time>2025-01-15T01:21:44.198Z</time>
      </trkpt>
      <trkpt lat="48.980594" lon="2.137611">
        <ele>28.111574</ele>
        <time>2025-01-15T01:21:51.932Z</time>
      </trkpt>
      <trkpt lat="48.980610" lon="2.137149">
        <ele>28.199158</ele>
        <time>2025-01-15T01:22:05.773Z</time>
      </trkpt>
      <trkpt lat="48.980549" lon="2.136738">
        <ele>28.124425</ele>
        <time>2025-01-15T01:22:17.997Z</time>
      </trkpt>
      <trkpt lat="48.980549" lon="2.136431">
        <ele>28.048312</ele>
        <time>2025-01-15T01:22:26.759Z</time>
      </trkpt>
      <trkpt lat="48.980484" lon="2.136044">
        <ele>27.949273</ele>
        <time>2025-01-15T01:22:37.985Z</time>
      </trkpt>
      <trkpt lat="48.980537" lon="2.135609">
        <ele>27.839583</ele>
        <time>2025-01-15T01:22:50.289Z</time>
      </trkpt>
      <trkpt lat="48.980462" lon="2.135228">
        <ele>27.740966</ele>
        <time>2025-01-15T01:23:01.264Z</time>
      </trkpt>
      <trkpt lat="48.980413" lon="2.135201">
        <ele>27.721283</ele>
        <time>2025-01-15T01:23:03.453Z</time>
      </trkpt>
      <trkpt lat="48.980363" lon="2.135042">
        <ele>27.677571</ele>
        <time>2025-01-15T01:23:08.330Z</time>
      </trkpt>
      <trkpt lat="48.980500" lon="2.134633">
        <ele>27.563727</ele>
        <time>2025-01-15T01:23:21.207Z</time>
      </trkpt>
      <trkpt lat="48.980592" lon="2.134029">
        <ele>27.529885</ele>
        <time>2025-01-15T01:23:38.940Z</time>
      </trkpt>
      <trkpt lat="48.980683" lon="2.133795">
        <ele>27.528397</ele>
        <time>2025-01-15T01:23:46.847Z</time>
      </trkpt>
      <trkpt lat="48.980690" lon="2.133398">
        <ele>27.526224</ele>
        <time>2025-01-15T01:23:58.533Z</time>
      </trkpt>
      <trkpt lat="48.980748" lon="2.133013">
        <ele>27.524062</ele>
        <time>2025-01-15T01:24:10.263Z</time>
      </trkpt>
      <trkpt lat="48.980696" lon="2.132923">
        <ele>27.523406</ele>
        <time>2025-01-15T01:24:13.856Z</time>
      </trkpt>
      <trkpt lat="48.980674" lon="2.132735">
        <ele>27.522361</ele>
        <time>2025-01-15T01:24:19.572Z</time>
      </trkpt>
      <trkpt lat="48.980784" lon="2.132389">
        <ele>27.520258</ele>
        <time>2025-01-15T01:24:31.056Z</time>
      </trkpt>
      <trkpt lat="48.980848" lon="2.132033">
        <ele>27.518238</ele>
        <time>2025-01-15T01:24:42.043Z</time>
      </trkpt>
      <trkpt lat="48.980914" lon="2.131660">
        <ele>27.570735</ele>
        <time>2025-01-15T01:24:53.517Z</time>
      </trkpt>
      <trkpt lat="48.980901" lon="2.131401">
        <ele>27.622077</ele>
        <time>2025-01-15T01:25:01.222Z</time>
      </trkpt>
      <trkpt lat="48.980936" lon="2.131364">
        <ele>27.634906</ele>
        <time>2025-01-15T01:25:03.145Z</time>
      </trkpt>
      <trkpt lat="48.980984" lon="2.131088">
        <ele>27.691341</ele>
        <time>2025-01-15T01:25:11.623Z</time>
      </trkpt>
      <trkpt lat="48.980946" lon="2.130494">
        <ele>27.809305</ele>
        <time>2025-01-15T01:25:29.462Z</time>
      </trkpt>
      <trkpt lat="48.981033" lon="2.130060">
        <ele>27.898999</ele>
        <time>2025-01-15T01:25:43.367Z</time>
      </trkpt>
      <trkpt lat="48.981075" lon="2.129921">
        <ele>27.929244</ele>
        <time>2025-01-15T01:25:48.095Z</time>
      </trkpt>
      <trkpt lat="48.981064" lon="2.129788">
        <ele>27.955740</ele>
        <time>2025-01-15T01:25:52.279Z</time>
      </trkpt>
      <trkpt lat="48.981062" lon="2.129786">
        <ele>27.956461</ele>
        <time>2025-01-15T01:25:52.381Z</time>
      </trkpt>
      <trkpt lat="48.980966" lon="2.129697">
        <ele>27.990303</ele>
        <time>2025-01-15T01:25:57.719Z</time>
      </trkpt>
      <trkpt lat="48.980776" lon="2.129339">
        <ele>28.096485</ele>
        <time>2025-01-15T01:26:12.087Z</time>
      </trkpt>
      <trkpt lat="48.980537" lon="2.129087">
        <ele>28.244335</ele>
        <time>2025-01-15T01:26:26.012Z</time>
      </trkpt>
      <trkpt lat="48.980536" lon="2.129085">
        <ele>28.245174</ele>
        <time>2025-01-15T01:26:26.094Z</time>
      </trkpt>
      <trkpt lat="48.980439" lon="2.128895">
        <ele>28.325540</ele>
        <time>2025-01-15T01:26:33.662Z</time>
      </trkpt>
      <trkpt lat="48.980267" lon="2.128585">
        <ele>28.461066</ele>
        <time>2025-01-15T01:26:46.426Z</time>
      </trkpt>
      <trkpt lat="48.980189" lon="2.127867">
        <ele>28.704043</ele>
        <time>2025-01-15T01:27:09.282Z</time>
      </trkpt>
      <trkpt lat="48.980209" lon="2.126779">
        <ele>28.998140</ele>
        <time>2025-01-15T01:27:42.963Z</time>
      </trkpt>
      <trkpt lat="48.980131" lon="2.126303">
        <ele>29.040158</ele>
        <time>2025-01-15T01:27:58.072Z</time>
      </trkpt>
      <trkpt lat="48.980083" lon="2.126025">
        <ele>29.064778</ele>
        <time>2025-01-15T01:28:06.866Z</time>
      </trkpt>
      <trkpt lat="48.979901" lon="2.125644">
        <ele>29.105136</ele>
        <time>2025-01-15T01:28:21.137Z</time>
      </trkpt>
      <trkpt lat="48.979899" lon="2.125642">
        <ele>29.105449</ele>
        <time>2025-01-15T01:28:21.226Z</time>
      </trkpt>
      <trkpt lat="48.979831" lon="2.125411">
        <ele>29.127131</ele>
        <time>2025-01-15T01:28:28.752Z</time>
      </trkpt>
      <trkpt lat="48.979740" lon="2.124769">
        <ele>29.183384</ele>
        <time>2025-01-15T01:28:47.728Z</time>
      </trkpt>
      <trkpt lat="48.979711" lon="2.124386">
        <ele>29.193043</ele>
        <time>2025-01-15T01:28:58.711Z</time>
      </trkpt>
      <trkpt lat="48.979727" lon="2.124090">
        <ele>29.138845</ele>
        <time>2025-01-15T01:29:07.106Z</time>
      </trkpt>
      <trkpt lat="48.979693" lon="2.123277">
        <ele>28.990185</ele>
        <time>2025-01-15T01:29:30.105Z</time>
      </trkpt>
      <trkpt lat="48.979690" lon="2.123090">
        <ele>28.956050</ele>
        <time>2025-01-15T01:29:35.388Z</time>
      </trkpt>
      <trkpt lat="48.979553" lon="2.122660">
        <ele>28.868825</ele>
        <time>2025-01-15T01:29:48.960Z</time>
      </trkpt>
      <trkpt lat="48.979502" lon="2.122344">
        <ele>28.809442</ele>
        <time>2025-01-15T01:29:58.244Z</time>
      </trkpt>
      <trkpt lat="48.979467" lon="2.121830">
        <ele>28.715141</ele>
        <time>2025-01-15T01:30:13.208Z</time>
      </trkpt>
      <trkpt lat="48.979474" lon="2.121474">
        <ele>28.628950</ele>
        <time>2025-01-15T01:30:23.586Z</time>
      </trkpt>
      <trkpt lat="48.979435" lon="2.121302">
        <ele>28.583751</ele>
        <time>2025-01-15T01:30:28.885Z</time>
      </trkpt>
      <trkpt lat="48.979215" lon="2.120966">
        <ele>28.465866</ele>
        <time>2025-01-15T01:30:42.639Z</time>
      </trkpt>
      <trkpt lat="48.979127" lon="2.120778">
        <ele>28.408511</ele>
        <time>2025-01-15T01:30:49.285Z</time>
      </trkpt>
      <trkpt lat="48.979001" lon="2.120507">
        <ele>28.326021</ele>
        <time>2025-01-15T01:30:58.700Z</time>
      </trkpt>
      <trkpt lat="48.978937" lon="2.120271">
        <ele>28.262596</ele>
        <time>2025-01-15T01:31:05.849Z</time>
      </trkpt>
      <trkpt lat="48.978784" lon="2.119916">
        <ele>28.157109</ele>
        <time>2025-01-15T01:31:17.599Z</time>
      </trkpt>
      <trkpt lat="48.978642" lon="2.119719">
        <ele>28.084430</ele>
        <time>2025-01-15T01:31:25.710Z</time>
      </trkpt>
      <trkpt lat="48.978422" lon="2.119552">
        <ele>28.004716</ele>
        <time>2025-01-15T01:31:36.160Z</time>
      </trkpt>
      <trkpt lat="48.978204" lon="2.119507">
        <ele>27.951595</ele>
        <time>2025-01-15T01:31:45.561Z</time>
      </trkpt>
      <trkpt lat="48.977975" lon="2.119414">
        <ele>27.894367</ele>
        <time>2025-01-15T01:31:55.788Z</time>
      </trkpt>
      <trkpt lat="48.977708" lon="2.119258">
        <ele>27.825316</ele>
        <time>2025-01-15T01:32:08.242Z</time>
      </trkpt>
      <trkpt lat="48.977749" lon="2.118586">
        <ele>27.718351</ele>
        <time>2025-01-15T01:32:27.657Z</time>
      </trkpt>
      <trkpt lat="48.977658" lon="2.118322">
        <ele>27.671091</ele>
        <time>2025-01-15T01:32:36.244Z</time>
      </trkpt>
      <trkpt lat="48.977604" lon="2.117905">
        <ele>27.603726</ele>
        <time>2025-01-15T01:32:48.689Z</time>
      </trkpt>
      <trkpt lat="48.977437" lon="2.117471">
        <ele>27.500399</ele>
        <time>2025-01-15T01:33:03.739Z</time>
      </trkpt>
      <trkpt lat="48.977378" lon="2.117212">
        <ele>27.442273</ele>
        <time>2025-01-15T01:33:11.782Z</time>
      </trkpt>
      <trkpt lat="48.977053" lon="2.117068">
        <ele>27.332941</ele>
        <time>2025-01-15T01:33:26.620Z</time>
      </trkpt>
      <trkpt lat="48.977070" lon="2.116908">
        <ele>27.298577</ele>
        <time>2025-01-15T01:33:31.230Z</time>
      </trkpt>
      <trkpt lat="48.976742" lon="2.116461">
        <ele>27.156423</ele>
        <time>2025-01-15T01:33:49.969Z</time>
      </trkpt>
      <trkpt lat="48.976649" lon="2.116448">
        <ele>27.126256</ele>
        <time>2025-01-15T01:33:53.924Z</time>
      </trkpt>
      <trkpt lat="48.976261" lon="2.116261">
        <ele>26.975747</ele>
        <time>2025-01-15T01:34:11.279Z</time>
      </trkpt>
      <trkpt lat="48.976257" lon="2.116261">
        <ele>26.973091</ele>
        <time>2025-01-15T01:34:11.436Z</time>
      </trkpt>
      <trkpt lat="48.976130" lon="2.116255">
        <ele>26.888710</ele>
        <time>2025-01-15T01:34:16.907Z</time>
      </trkpt>
      <trkpt lat="48.975952" lon="2.116066">
        <ele>26.744626</ele>
        <time>2025-01-15T01:34:26.163Z</time>
      </trkpt>
      <trkpt lat="48.976052" lon="2.112826">
        <ele>25.395037</ele>
        <time>2025-01-15T01:35:56.006Z</time>
      </trkpt>
      <trkpt lat="48.976071" lon="2.110937">
        <ele>24.817445</ele>
        <time>2025-01-15T01:36:48.950Z</time>
      </trkpt>
      <trkpt lat="48.976110" lon="2.110325">
        <ele>24.900386</ele>
        <time>2025-01-15T01:37:06.693Z</time>
      </trkpt>
      <trkpt lat="48.976108" lon="2.109854">
        <ele>24.963921</ele>
        <time>2025-01-15T01:37:20.535Z</time>
      </trkpt>
      <trkpt lat="48.975976" lon="2.109582">
        <ele>25.009551</ele>
        <time>2025-01-15T01:37:30.729Z</time>
      </trkpt>
      <trkpt lat="48.976133" lon="2.108680">
        <ele>25.135428</ele>
        <time>2025-01-15T01:38:00.185Z</time>
      </trkpt>
      <trkpt lat="48.976180" lon="2.108235">
        <ele>25.299244</ele>
        <time>2025-01-15T01:38:14.821Z</time>
      </trkpt>
      <trkpt lat="48.976312" lon="2.107328">
        <ele>25.709918</ele>
        <time>2025-01-15T01:38:44.989Z</time>
      </trkpt>
      <trkpt lat="48.976675" lon="2.105260">
        <ele>26.333235</ele>
        <time>2025-01-15T01:39:52.823Z</time>
      </trkpt>
      <trkpt lat="48.977396" lon="2.100859">
        <ele>25.321269</ele>
        <time>2025-01-15T01:42:01.845Z</time>
      </trkpt>
      <trkpt lat="48.977436" lon="2.100620">
        <ele>25.228930</ele>
        <time>2025-01-15T01:42:08.385Z</time>
      </trkpt>
      <trkpt lat="48.977396" lon="2.100245">
        <ele>24.931207</ele>
        <time>2025-01-15T01:42:18.335Z</time>
      </trkpt>
      <trkpt lat="48.977416" lon="2.100020">
        <ele>24.744386</ele>
        <time>2025-01-15T01:42:22.101Z</time>
      </trkpt>
      <trkpt lat="48.977511" lon="2.099741">
        <ele>24.485771</ele>
        <time>2025-01-15T01:42:27.329Z</time>
      </trkpt>
      <trkpt lat="48.977574" lon="2.099314">
        <ele>24.125667</ele>
        <time>2025-01-15T01:42:34.614Z</time>
      </trkpt>
      <trkpt lat="48.977673" lon="2.098729">
        <ele>23.628585</ele>
        <time>2025-01-15T01:42:50.497Z</time>
      </trkpt>
      <trkpt lat="48.977710" lon="2.098357">
        <ele>23.319009</ele>
        <time>2025-01-15T01:43:00.573Z</time>
      </trkpt>
      <trkpt lat="48.978179" lon="2.095838">
        <ele>22.098549</ele>
        <time>2025-01-15T01:44:13.838Z</time>
      </trkpt>
      <trkpt lat="48.978146" lon="2.095028">
        <ele>21.848803</ele>
        <time>2025-01-15T01:44:36.621Z</time>
      </trkpt>
      <trkpt lat="48.978078" lon="2.094357">
        <ele>21.769215</ele>
        <time>2025-01-15T01:44:55.384Z</time>
      </trkpt>
      <trkpt lat="48.978078" lon="2.094356">
        <ele>21.769098</ele>
        <time>2025-01-15T01:44:55.416Z</time>
      </trkpt>
      <trkpt lat="48.978019" lon="2.094132">
        <ele>21.740805</ele>
        <time>2025-01-15T01:45:02.214Z</time>
      </trkpt>
      <trkpt lat="48.977861" lon="2.093536">
        <ele>21.665457</ele>
        <time>2025-01-15T01:45:20.845Z</time>
      </trkpt>
      <trkpt lat="48.977757" lon="2.093483">
        <ele>21.645871</ele>
        <time>2025-01-15T01:45:25.918Z</time>
      </trkpt>
      <trkpt lat="48.977752" lon="2.093480">
        <ele>21.644911</ele>
        <time>2025-01-15T01:45:26.170Z</time>
      </trkpt>
      <trkpt lat="48.977713" lon="2.093302">
        <ele>21.622914</ele>
        <time>2025-01-15T01:45:31.945Z</time>
      </trkpt>
      <trkpt lat="48.977727" lon="2.093185">
        <ele>21.608973</ele>
        <time>2025-01-15T01:45:35.657Z</time>
      </trkpt>
      <trkpt lat="48.977831" lon="2.092881">
        <ele>21.568787</ele>
        <time>2025-01-15T01:45:46.268Z</time>
      </trkpt>
      <trkpt lat="48.978017" lon="2.092311">
        <ele>21.449890</ele>
        <time>2025-01-15T01:46:05.447Z</time>
      </trkpt>
      <trkpt lat="48.978320" lon="2.091817">
        <ele>21.315223</ele>
        <time>2025-01-15T01:46:25.007Z</time>
      </trkpt>
      <trkpt lat="48.978444" lon="2.091522">
        <ele>21.245451</ele>
        <time>2025-01-15T01:46:34.975Z</time>
      </trkpt>
      <trkpt lat="48.978679" lon="2.090814">
        <ele>21.087433</ele>
        <time>2025-01-15T01:46:56.952Z</time>
      </trkpt>
      <trkpt lat="48.978744" lon="2.090237">
        <ele>21.153710</ele>
        <time>2025-01-15T01:47:12.885Z</time>
      </trkpt>
      <trkpt lat="48.978656" lon="2.090018">
        <ele>21.331450</ele>
        <time>2025-01-15T01:47:19.944Z</time>
      </trkpt>
      <trkpt lat="48.978484" lon="2.089806">
        <ele>21.564765</ele>
        <time>2025-01-15T01:47:26.140Z</time>
      </trkpt>
      <trkpt lat="48.978217" lon="2.089631">
        <ele>21.871294</ele>
        <time>2025-01-15T01:47:35.188Z</time>
      </trkpt>
      <trkpt lat="48.977931" lon="2.089543">
        <ele>22.179000</ele>
        <time>2025-01-15T01:47:46.161Z</time>
      </trkpt>
      <trkpt lat="48.977700" lon="2.089347">
        <ele>22.457843</ele>
        <time>2025-01-15T01:47:57.914Z</time>
      </trkpt>
      <trkpt lat="48.977514" lon="2.089002">
        <ele>22.766884</ele>
        <time>2025-01-15T01:48:11.368Z</time>
      </trkpt>
      <trkpt lat="48.976909" lon="2.088987">
        <ele>23.885551</ele>
        <time>2025-01-15T01:48:39.559Z</time>
      </trkpt>
      <trkpt lat="48.976782" lon="2.089053">
        <ele>24.164042</ele>
        <time>2025-01-15T01:48:45.929Z</time>
      </trkpt>
      <trkpt lat="48.976160" lon="2.089444">
        <ele>25.560521</ele>
        <time>2025-01-15T01:49:16.195Z</time>
      </trkpt>
      <trkpt lat="48.975862" lon="2.089674">
        <ele>26.253832</ele>
        <time>2025-01-15T01:49:29.234Z</time>
      </trkpt>
      <trkpt lat="48.975471" lon="2.090114">
        <ele>26.669544</ele>
        <time>2025-01-15T01:49:44.900Z</time>
      </trkpt>
      <trkpt lat="48.975190" lon="2.090345">
        <ele>26.699470</ele>
        <time>2025-01-15T01:49:54.429Z</time>
      </trkpt>
      <trkpt lat="48.975072" lon="2.090511">
        <ele>26.714523</ele>
        <time>2025-01-15T01:49:59.161Z</time>
      </trkpt>
      <trkpt lat="48.974916" lon="2.090809">
        <ele>26.737971</ele>
        <time>2025-01-15T01:50:06.470Z</time>
      </trkpt>
      <trkpt lat="48.974846" lon="2.091002">
        <ele>26.751536</ele>
        <time>2025-01-15T01:50:10.693Z</time>
      </trkpt>
      <trkpt lat="48.974792" lon="2.091324">
        <ele>26.771982</ele>
        <time>2025-01-15T01:50:17.231Z</time>
      </trkpt>
      <trkpt lat="48.974805" lon="2.091646">
        <ele>26.791828</ele>
        <time>2025-01-15T01:50:23.363Z</time>
      </trkpt>
      <trkpt lat="48.974833" lon="2.091942">
        <ele>26.810852</ele>
        <time>2025-01-15T01:50:28.880Z</time>
      </trkpt>
      <trkpt lat="48.974832" lon="2.091945">
        <ele>26.811867</ele>
        <time>2025-01-15T01:50:28.946Z</time>
      </trkpt>
      <trkpt lat="48.974728" lon="2.092284">
        <ele>26.924758</ele>
        <time>2025-01-15T01:50:35.723Z</time>
      </trkpt>
      <trkpt lat="48.974706" lon="2.092442">
        <ele>26.973486</ele>
        <time>2025-01-15T01:50:38.653Z</time>
      </trkpt>
      <trkpt lat="48.974723" lon="2.092524">
        <ele>26.999429</ele>
        <time>2025-01-15T01:50:40.211Z</time>
      </trkpt>
      <trkpt lat="48.974453" lon="2.092591">
        <ele>27.125161</ele>
        <time>2025-01-15T01:50:52.087Z</time>
      </trkpt>
      <trkpt lat="48.974575" lon="2.093037">
        <ele>27.270932</ele>
        <time>2025-01-15T01:51:06.547Z</time>
      </trkpt>
      <trkpt lat="48.974677" lon="2.093360">
        <ele>27.379068</ele>
        <time>2025-01-15T01:51:17.892Z</time>
      </trkpt>
      <trkpt lat="48.974711" lon="2.093759">
        <ele>27.500453</ele>
        <time>2025-01-15T01:51:31.126Z</time>
      </trkpt>
      <trkpt lat="48.974678" lon="2.094127">
        <ele>27.612506</ele>
        <time>2025-01-15T01:51:43.988Z</time>
      </trkpt>
      <trkpt lat="48.974474" lon="2.094718">
        <ele>28.786102</ele>
        <time>2025-01-15T01:52:08.491Z</time>
      </trkpt>
      <trkpt lat="48.974471" lon="2.094728">
        <ele>28.807617</ele>
        <time>2025-01-15T01:52:08.928Z</time>
      </trkpt>
      <trkpt lat="48.974449" lon="2.095088">
        <ele>29.515113</ele>
        <time>2025-01-15T01:52:23.494Z</time>
      </trkpt>
      <trkpt lat="48.972091" lon="2.094250">
        <ele>36.289222</ele>
        <time>2025-01-15T01:54:27.667Z</time>
      </trkpt>
      <trkpt lat="48.971211" lon="2.093883">
        <ele>37.735966</ele>
        <time>2025-01-15T01:54:58.784Z</time>
      </trkpt>
      <trkpt lat="48.970390" lon="2.093539">
        <ele>37.765932</ele>
        <time>2025-01-15T01:55:22.650Z</time>
      </trkpt>
      <trkpt lat="48.970365" lon="2.094239">
        <ele>37.782127</ele>
        <time>2025-01-15T01:55:42.748Z</time>
      </trkpt>
      <trkpt lat="48.970390" lon="2.093539">
        <ele>37.914480</ele>
        <time>2025-01-15T01:56:03.396Z</time>
      </trkpt>
      <trkpt lat="48.969398" lon="2.093166">
        <ele>38.299806</ele>
        <time>2025-01-15T01:56:36.417Z</time>
      </trkpt>
      <trkpt lat="48.967598" lon="2.092455">
        <ele>38.972004</ele>
        <time>2025-01-15T01:58:05.909Z</time>
      </trkpt>
      <trkpt lat="48.967732" lon="2.091927">
        <ele>39.104557</ele>
        <time>2025-01-15T01:58:22.411Z</time>
      </trkpt>
      <trkpt lat="48.967734" lon="2.091920">
        <ele>39.105944</ele>
        <time>2025-01-15T01:58:22.635Z</time>
      </trkpt>
      <trkpt lat="48.966981" lon="2.092051">
        <ele>38.562661</ele>
        <time>2025-01-15T01:58:54.865Z</time>
      </trkpt>
      <trkpt lat="48.966722" lon="2.092096">
        <ele>38.375798</ele>
        <time>2025-01-15T01:59:05.616Z</time>
      </trkpt>
      <trkpt lat="48.966364" lon="2.092134">
        <ele>38.118551</ele>
        <time>2025-01-15T01:59:14.431Z</time>
      </trkpt>
      <trkpt lat="48.965521" lon="2.092337">
        <ele>37.599374</ele>
        <time>2025-01-15T01:59:35.912Z</time>
      </trkpt>
      <trkpt lat="48.963303" lon="2.092843">
        <ele>36.185192</ele>
        <time>2025-01-15T02:00:35.699Z</time>
      </trkpt>
      <trkpt lat="48.961938" lon="2.093159">
        <ele>35.285741</ele>
        <time>2025-01-15T02:01:09.285Z</time>
      </trkpt>
      <trkpt lat="48.961666" lon="2.093221">
        <ele>35.205069</ele>
        <time>2025-01-15T02:01:16.144Z</time>
      </trkpt>
      <trkpt lat="48.960102" lon="2.093570">
        <ele>35.539088</ele>
        <time>2025-01-15T02:02:02.706Z</time>
      </trkpt>
      <trkpt lat="48.958225" lon="2.094022">
        <ele>37.818081</ele>
        <time>2025-01-15T02:03:15.060Z</time>
      </trkpt>
      <trkpt lat="48.958200" lon="2.094026">
        <ele>37.845423</ele>
        <time>2025-01-15T02:03:15.980Z</time>
      </trkpt>
      <trkpt lat="48.958243" lon="2.094070">
        <ele>37.901770</ele>
        <time>2025-01-15T02:03:17.684Z</time>
      </trkpt>
      <trkpt lat="48.959130" lon="2.096907">
        <ele>39.740273</ele>
        <time>2025-01-15T02:04:21.351Z</time>
      </trkpt>
      <trkpt lat="48.959927" lon="2.099454">
        <ele>40.980904</ele>
        <time>2025-01-15T02:05:17.682Z</time>
      </trkpt>
      <trkpt lat="48.960104" lon="2.099962">
        <ele>41.235324</ele>
        <time>2025-01-15T02:05:29.735Z</time>
      </trkpt>
      <trkpt lat="48.960716" lon="2.100894">
        <ele>41.709001</ele>
        <time>2025-01-15T02:05:56.959Z</time>
      </trkpt>
      <trkpt lat="48.961402" lon="2.101933">
        <ele>42.129321</ele>
        <time>2025-01-15T02:06:25.148Z</time>
      </trkpt>
      <trkpt lat="48.961498" lon="2.102143">
        <ele>42.202313</ele>
        <time>2025-01-15T02:06:29.803Z</time>
      </trkpt>
      <trkpt lat="48.961547" lon="2.102315">
        <ele>42.255796</ele>
        <time>2025-01-15T02:06:33.141Z</time>
      </trkpt>
      <trkpt lat="48.961704" lon="2.103388">
        <ele>42.303655</ele>
        <time>2025-01-15T02:06:52.285Z</time>
      </trkpt>
      <trkpt lat="48.961775" lon="2.103943">
        <ele>42.310571</ele>
        <time>2025-01-15T02:07:02.094Z</time>
      </trkpt>
      <trkpt lat="48.961798" lon="2.104371">
        <ele>42.315824</ele>
        <time>2025-01-15T02:07:09.731Z</time>
      </trkpt>
      <trkpt lat="48.961812" lon="2.105260">
        <ele>42.337932</ele>
        <time>2025-01-15T02:07:25.427Z</time>
      </trkpt>
      <trkpt lat="48.961796" lon="2.105722">
        <ele>42.387657</ele>
        <time>2025-01-15T02:07:33.587Z</time>
      </trkpt>
      <trkpt lat="48.961765" lon="2.105973">
        <ele>42.415107</ele>
        <time>2025-01-15T02:07:38.160Z</time>
      </trkpt>
      <trkpt lat="48.961694" lon="2.106296">
        <ele>42.451717</ele>
        <time>2025-01-15T02:07:44.405Z</time>
      </trkpt>
      <trkpt lat="48.961370" lon="2.107415">
        <ele>42.583163</ele>
        <time>2025-01-15T02:08:06.737Z</time>
      </trkpt>
      <trkpt lat="48.961239" lon="2.107845">
        <ele>42.643487</ele>
        <time>2025-01-15T02:08:15.395Z</time>
      </trkpt>
      <trkpt lat="48.961129" lon="2.108266">
        <ele>42.723858</ele>
        <time>2025-01-15T02:08:23.674Z</time>
      </trkpt>
      <trkpt lat="48.961048" lon="2.108500">
        <ele>42.770779</ele>
        <time>2025-01-15T02:08:31.668Z</time>
      </trkpt>
      <trkpt lat="48.960986" lon="2.108809">
        <ele>42.828091</ele>
        <time>2025-01-15T02:08:41.475Z</time>
      </trkpt>
      <trkpt lat="48.960804" lon="2.110159">
        <ele>43.072546</ele>
        <time>2025-01-15T02:09:23.643Z</time>
      </trkpt>
      <trkpt lat="48.960729" lon="2.110854">
        <ele>43.191139</ele>
        <time>2025-01-15T02:09:44.971Z</time>
      </trkpt>
      <trkpt lat="48.960568" lon="2.113138">
        <ele>43.583691</ele>
        <time>2025-01-15T02:10:53.462Z</time>
      </trkpt>
      <trkpt lat="48.960278" lon="2.115939">
        <ele>44.566485</ele>
        <time>2025-01-15T02:12:22.282Z</time>
      </trkpt>
      <trkpt lat="48.960274" lon="2.116184">
        <ele>44.677292</ele>
        <time>2025-01-15T02:12:30.371Z</time>
      </trkpt>
      <trkpt lat="48.960244" lon="2.116174">
        <ele>44.698440</ele>
        <time>2025-01-15T02:12:31.339Z</time>
      </trkpt>
      <trkpt lat="48.959026" lon="2.115762">
        <ele>45.557618</ele>
        <time>2025-01-15T02:13:34.345Z</time>
      </trkpt>
      <trkpt lat="48.958966" lon="2.115742">
        <ele>45.599913</ele>
        <time>2025-01-15T02:13:37.262Z</time>
      </trkpt>
      <trkpt lat="48.958262" lon="2.115472">
        <ele>45.790359</ele>
        <time>2025-01-15T02:13:57.052Z</time>
      </trkpt>
      <trkpt lat="48.958206" lon="2.115435">
        <ele>45.797466</ele>
        <time>2025-01-15T02:13:58.757Z</time>
      </trkpt>
      <trkpt lat="48.957697" lon="2.115718">
        <ele>45.860556</ele>
        <time>2025-01-15T02:14:22.231Z</time>
      </trkpt>
      <trkpt lat="48.956988" lon="2.115467">
        <ele>46.070405</ele>
        <time>2025-01-15T02:14:54.786Z</time>
      </trkpt>
      <trkpt lat="48.956985" lon="2.115465">
        <ele>46.076397</ele>
        <time>2025-01-15T02:14:54.932Z</time>
      </trkpt>
      <trkpt lat="48.955906" lon="2.115344">
        <ele>48.055678</ele>
        <time>2025-01-15T02:15:54.450Z</time>
      </trkpt>
      <trkpt lat="48.955716" lon="2.115274">
        <ele>48.413293</ele>
        <time>2025-01-15T02:16:06.076Z</time>
      </trkpt>
      <trkpt lat="48.955493" lon="2.115121">
        <ele>48.860743</ele>
        <time>2025-01-15T02:16:20.767Z</time>
      </trkpt>
      <trkpt lat="48.955293" lon="2.115124">
        <ele>49.226643</ele>
        <time>2025-01-15T02:16:32.818Z</time>
      </trkpt>
      <trkpt lat="48.955201" lon="2.114971">
        <ele>49.583864</ele>
        <time>2025-01-15T02:16:41.033Z</time>
      </trkpt>
      <trkpt lat="48.955103" lon="2.114871">
        <ele>49.893435</ele>
        <time>2025-01-15T02:16:48.192Z</time>
      </trkpt>
      <trkpt lat="48.954443" lon="2.114476">
        <ele>51.754386</ele>
        <time>2025-01-15T02:17:31.572Z</time>
      </trkpt>
      <trkpt lat="48.954127" lon="2.114312">
        <ele>52.630482</ele>
        <time>2025-01-15T02:17:51.944Z</time>
      </trkpt>
      <trkpt lat="48.952727" lon="2.113730">
        <ele>55.825997</ele>
        <time>2025-01-15T02:19:17.312Z</time>
      </trkpt>
      <trkpt lat="48.951624" lon="2.113439">
        <ele>57.735787</ele>
        <time>2025-01-15T02:20:18.009Z</time>
      </trkpt>
      <trkpt lat="48.951086" lon="2.113218">
        <ele>58.208875</ele>
        <time>2025-01-15T02:20:46.209Z</time>
      </trkpt>
      <trkpt lat="48.950877" lon="2.113200">
        <ele>58.386598</ele>
        <time>2025-01-15T02:20:56.542Z</time>
      </trkpt>
      <trkpt lat="48.950419" lon="2.113065">
        <ele>58.782656</ele>
        <time>2025-01-15T02:21:19.079Z</time>
      </trkpt>
      <trkpt lat="48.950166" lon="2.112966">
        <ele>59.004431</ele>
        <time>2025-01-15T02:21:31.169Z</time>
      </trkpt>
      <trkpt lat="48.950089" lon="2.112936">
        <ele>59.008787</ele>
        <time>2025-01-15T02:21:34.762Z</time>
      </trkpt>
      <trkpt lat="48.949745" lon="2.112723">
        <ele>58.807001</ele>
        <time>2025-01-15T02:21:51.147Z</time>
      </trkpt>
      <trkpt lat="48.949410" lon="2.112587">
        <ele>58.618610</ele>
        <time>2025-01-15T02:22:06.103Z</time>
      </trkpt>
      <trkpt lat="48.948849" lon="2.112472">
        <ele>58.311023</ele>
        <time>2025-01-15T02:22:29.698Z</time>
      </trkpt>
      <trkpt lat="48.948807" lon="2.112324">
        <ele>58.253489</ele>
        <time>2025-01-15T02:22:34.064Z</time>
      </trkpt>
      <trkpt lat="48.948745" lon="2.112243">
        <ele>58.209098</ele>
        <time>2025-01-15T02:22:37.379Z</time>
      </trkpt>
      <trkpt lat="48.948752" lon="2.112134">
        <ele>58.170016</ele>
        <time>2025-01-15T02:22:40.327Z</time>
      </trkpt>
      <trkpt lat="48.948573" lon="2.112067">
        <ele>58.069855</ele>
        <time>2025-01-15T02:22:47.865Z</time>
      </trkpt>
      <trkpt lat="48.948050" lon="2.112219">
        <ele>58.348277</ele>
        <time>2025-01-15T02:23:10.003Z</time>
      </trkpt>
      <trkpt lat="48.947314" lon="2.112047">
        <ele>58.777365</ele>
        <time>2025-01-15T02:23:44.651Z</time>
      </trkpt>
      <trkpt lat="48.946692" lon="2.111564">
        <ele>59.427666</ele>
        <time>2025-01-15T02:24:24.876Z</time>
      </trkpt>
      <trkpt lat="48.946688" lon="2.111563">
        <ele>59.436646</ele>
        <time>2025-01-15T02:24:25.115Z</time>
      </trkpt>
      <trkpt lat="48.945817" lon="2.111198">
        <ele>61.437983</ele>
        <time>2025-01-15T02:25:20.736Z</time>
      </trkpt>
      <trkpt lat="48.945216" lon="2.111057">
        <ele>62.785136</ele>
        <time>2025-01-15T02:25:55.964Z</time>
      </trkpt>
      <trkpt lat="48.944005" lon="2.110512">
        <ele>63.877223</ele>
        <time>2025-01-15T02:26:58.664Z</time>
      </trkpt>
      <trkpt lat="48.944005" lon="2.110512">
        <ele>63.877223</ele>
        <time>2025-01-15T02:26:58.685Z</time>
      </trkpt>
      <trkpt lat="48.943864" lon="2.110400">
        <ele>63.989722</ele>
        <time>2025-01-15T02:27:06.066Z</time>
      </trkpt>
      <trkpt lat="48.943739" lon="2.110229">
        <ele>64.108593</ele>
        <time>2025-01-15T02:27:13.859Z</time>
      </trkpt>
      <trkpt lat="48.941676" lon="2.109496">
        <ele>64.205697</ele>
        <time>2025-01-15T02:28:47.853Z</time>
      </trkpt>
      <trkpt lat="48.941633" lon="2.109481">
        <ele>64.193513</ele>
        <time>2025-01-15T02:28:49.773Z</time>
      </trkpt>
      <trkpt lat="48.941619" lon="2.109490">
        <ele>64.186663</ele>
        <time>2025-01-15T02:28:50.429Z</time>
      </trkpt>
      <trkpt lat="48.938070" lon="2.111887">
        <ele>62.940967</ele>
        <time>2025-01-15T02:31:36.436Z</time>
      </trkpt>
      <trkpt lat="48.935074" lon="2.113702">
        <ele>66.596539</ele>
        <time>2025-01-15T02:34:26.113Z</time>
      </trkpt>
      <trkpt lat="48.933317" lon="2.114868">
        <ele>68.343712</ele>
        <time>2025-01-15T02:36:02.305Z</time>
      </trkpt>
      <trkpt lat="48.930792" lon="2.114625">
        <ele>68.329656</ele>
        <time>2025-01-15T02:37:59.374Z</time>
      </trkpt>
      <trkpt lat="48.930586" lon="2.114608">
        <ele>68.145706</ele>
        <time>2025-01-15T02:38:07.921Z</time>
      </trkpt>
      <trkpt lat="48.928920" lon="2.114377">
        <ele>65.583908</ele>
        <time>2025-01-15T02:39:12.970Z</time>
      </trkpt>
      <trkpt lat="48.928946" lon="2.113999">
        <ele>65.057958</ele>
        <time>2025-01-15T02:39:22.577Z</time>
      </trkpt>
      <trkpt lat="48.928972" lon="2.113628">
        <ele>64.541641</ele>
        <time>2025-01-15T02:39:32.010Z</time>
      </trkpt>
      <trkpt lat="48.929100" lon="2.113235">
        <ele>63.934633</ele>
        <time>2025-01-15T02:39:43.100Z</time>
      </trkpt>
      <trkpt lat="48.929154" lon="2.112874">
        <ele>63.576232</ele>
        <time>2025-01-15T02:39:52.523Z</time>
      </trkpt>
      <trkpt lat="48.929147" lon="2.112609">
        <ele>63.456127</ele>
        <time>2025-01-15T02:39:59.406Z</time>
      </trkpt>
      <trkpt lat="48.929076" lon="2.112457">
        <ele>63.371668</ele>
        <time>2025-01-15T02:40:04.309Z</time>
      </trkpt>
      <trkpt lat="48.928866" lon="2.112202">
        <ele>63.186496</ele>
        <time>2025-01-15T02:40:15.297Z</time>
      </trkpt>
      <trkpt lat="48.928831" lon="2.111829">
        <ele>63.015863</ele>
        <time>2025-01-15T02:40:25.594Z</time>
      </trkpt>
      <trkpt lat="48.928795" lon="2.111457">
        <ele>62.845580</ele>
        <time>2025-01-15T02:40:36.064Z</time>
      </trkpt>
      <trkpt lat="48.928564" lon="2.111051">
        <ele>62.602354</ele>
        <time>2025-01-15T02:40:51.464Z</time>
      </trkpt>
      <trkpt lat="48.928504" lon="2.111002">
        <ele>62.555420</ele>
        <time>2025-01-15T02:40:53.912Z</time>
      </trkpt>
      <trkpt lat="48.926361" lon="2.109234">
        <ele>64.965178</ele>
        <time>2025-01-15T02:42:58.482Z</time>
      </trkpt>
      <trkpt lat="48.926417" lon="2.107522">
        <ele>66.771638</ele>
        <time>2025-01-15T02:44:02.005Z</time>
      </trkpt>
      <trkpt lat="48.925172" lon="2.107527">
        <ele>68.226661</ele>
        <time>2025-01-15T02:45:07.352Z</time>
      </trkpt>
      <trkpt lat="48.924234" lon="2.107531">
        <ele>69.020007</ele>
        <time>2025-01-15T02:45:53.328Z</time>
      </trkpt>
      <trkpt lat="48.923195" lon="2.106699">
        <ele>68.578939</ele>
        <time>2025-01-15T02:46:45.580Z</time>
      </trkpt>
      <trkpt lat="48.922354" lon="2.106009">
        <ele>66.603303</ele>
        <time>2025-01-15T02:47:08.487Z</time>
      </trkpt>
      <trkpt lat="48.921583" lon="2.105406">
        <ele>63.312592</ele>
        <time>2025-01-15T02:47:26.532Z</time>
      </trkpt>
      <trkpt lat="48.921029" lon="2.105833">
        <ele>60.916274</ele>
        <time>2025-01-15T02:47:37.979Z</time>
      </trkpt>
      <trkpt lat="48.920857" lon="2.105965">
        <ele>60.138712</ele>
        <time>2025-01-15T02:47:41.676Z</time>
      </trkpt>
      <trkpt lat="48.920557" lon="2.106198">
        <ele>58.779177</ele>
        <time>2025-01-15T02:47:50.195Z</time>
      </trkpt>
      <trkpt lat="48.920413" lon="2.106360">
        <ele>58.056341</ele>
        <time>2025-01-15T02:47:54.865Z</time>
      </trkpt>
      <trkpt lat="48.920300" lon="2.106456">
        <ele>57.533955</ele>
        <time>2025-01-15T02:48:10.859Z</time>
      </trkpt>
      <trkpt lat="48.920243" lon="2.106746">
        <ele>56.731080</ele>
        <time>2025-01-15T02:48:35.410Z</time>
      </trkpt>
      <trkpt lat="48.920251" lon="2.107036">
        <ele>55.961200</ele>
        <time>2025-01-15T02:48:58.956Z</time>
      </trkpt>
      <trkpt lat="48.920208" lon="2.107207">
        <ele>55.475560</ele>
        <time>2025-01-15T02:49:13.840Z</time>
      </trkpt>
      <trkpt lat="48.920141" lon="2.107308">
        <ele>55.094891</ele>
        <time>2025-01-15T02:49:25.477Z</time>
      </trkpt>
      <trkpt lat="48.920151" lon="2.107331">
        <ele>55.021740</ele>
        <time>2025-01-15T02:49:25.850Z</time>
      </trkpt>
      <trkpt lat="48.920087" lon="2.107425">
        <ele>54.662711</ele>
        <time>2025-01-15T02:49:29.286Z</time>
      </trkpt>
      <trkpt lat="48.920015" lon="2.107438">
        <ele>54.370044</ele>
        <time>2025-01-15T02:49:32.155Z</time>
      </trkpt>
      <trkpt lat="48.919922" lon="2.107473">
        <ele>54.427136</ele>
        <time>2025-01-15T02:49:36.047Z</time>
      </trkpt>
      <trkpt lat="48.919756" lon="2.107700">
        <ele>54.752394</ele>
        <time>2025-01-15T02:49:45.569Z</time>
      </trkpt>
      <trkpt lat="48.920144" lon="2.108736">
        <ele>55.894396</ele>
        <time>2025-01-15T02:50:29.167Z</time>
      </trkpt>
      <trkpt lat="48.920300" lon="2.109214">
        <ele>56.405522</ele>
        <time>2025-01-15T02:50:53.116Z</time>
      </trkpt>
      <trkpt lat="48.920320" lon="2.109466">
        <ele>56.648613</ele>
        <time>2025-01-15T02:51:03.643Z</time>
      </trkpt>
      <trkpt lat="48.920159" lon="2.109600">
        <ele>56.916058</ele>
        <time>2025-01-15T02:51:15.149Z</time>
      </trkpt>
      <trkpt lat="48.919961" lon="2.109680">
        <ele>56.965167</ele>
        <time>2025-01-15T02:51:27.351Z</time>
      </trkpt>
      <trkpt lat="48.919720" lon="2.109715">
        <ele>57.007898</ele>
        <time>2025-01-15T02:51:39.893Z</time>
      </trkpt>
      <trkpt lat="48.919381" lon="2.110457">
        <ele>57.112713</ele>
        <time>2025-01-15T02:52:07.487Z</time>
      </trkpt>
      <trkpt lat="48.919344" lon="2.110583">
        <ele>57.128719</ele>
        <time>2025-01-15T02:52:11.447Z</time>
      </trkpt>
      <trkpt lat="48.919250" lon="2.110728">
        <ele>57.152343</ele>
        <time>2025-01-15T02:52:17.203Z</time>
      </trkpt>
      <trkpt lat="48.919113" lon="2.111116">
        <ele>57.203430</ele>
        <time>2025-01-15T02:52:28.615Z</time>
      </trkpt>
      <trkpt lat="48.919070" lon="2.111127">
        <ele>57.211126</ele>
        <time>2025-01-15T02:52:30.224Z</time>
      </trkpt>
      <trkpt lat="48.918982" lon="2.111077">
        <ele>57.227706</ele>
        <time>2025-01-15T02:52:33.771Z</time>
      </trkpt>
      <trkpt lat="48.918730" lon="2.110838">
        <ele>57.504096</ele>
        <time>2025-01-15T02:52:45.275Z</time>
      </trkpt>
      <trkpt lat="48.918304" lon="2.110556">
        <ele>58.162579</ele>
        <time>2025-01-15T02:53:04.585Z</time>
      </trkpt>
      <trkpt lat="48.917300" lon="2.109611">
        <ele>59.793648</ele>
        <time>2025-01-15T02:54:20.222Z</time>
      </trkpt>
      <trkpt lat="48.917295" lon="2.109604">
        <ele>59.792624</ele>
        <time>2025-01-15T02:54:20.690Z</time>
      </trkpt>
      <trkpt lat="48.917268" lon="2.109567">
        <ele>59.787145</ele>
        <time>2025-01-15T02:54:23.000Z</time>
      </trkpt>
      <trkpt lat="48.917215" lon="2.109303">
        <ele>59.759792</ele>
        <time>2025-01-15T02:54:34.286Z</time>
      </trkpt>
      <trkpt lat="48.917194" lon="2.109293">
        <ele>59.756474</ele>
        <time>2025-01-15T02:54:35.496Z</time>
      </trkpt>
      <trkpt lat="48.917179" lon="2.109181">
        <ele>59.745148</ele>
        <time>2025-01-15T02:54:40.750Z</time>
      </trkpt>
      <trkpt lat="48.917003" lon="2.109032">
        <ele>59.714780</ele>
        <time>2025-01-15T02:54:54.765Z</time>
      </trkpt>
      <trkpt lat="48.916982" lon="2.108942">
        <ele>59.705317</ele>
        <time>2025-01-15T02:54:59.121Z</time>
      </trkpt>
      <trkpt lat="48.916997" lon="2.108876">
        <ele>59.698397</ele>
        <time>2025-01-15T02:55:02.296Z</time>
      </trkpt>
      <trkpt lat="48.914704" lon="2.107734">
        <ele>54.763498</ele>
        <time>2025-01-15T02:56:02.437Z</time>
      </trkpt>
      <trkpt lat="48.914629" lon="2.107838">
        <ele>54.383749</ele>
        <time>2025-01-15T02:56:05.783Z</time>
      </trkpt>
      <trkpt lat="48.914524" lon="2.108108">
        <ele>53.612134</ele>
        <time>2025-01-15T02:56:12.494Z</time>
      </trkpt>
      <trkpt lat="48.914395" lon="2.108186">
        <ele>53.092639</ele>
        <time>2025-01-15T02:56:16.953Z</time>
      </trkpt>
      <trkpt lat="48.914181" lon="2.108213">
        <ele>51.692692</ele>
        <time>2025-01-15T02:56:23.857Z</time>
      </trkpt>
      <trkpt lat="48.913715" lon="2.108169">
        <ele>47.886813</ele>
        <time>2025-01-15T02:56:38.675Z</time>
      </trkpt>
      <trkpt lat="48.913690" lon="2.108415">
        <ele>46.553307</ele>
        <time>2025-01-15T02:56:43.866Z</time>
      </trkpt>
      <trkpt lat="48.912657" lon="2.107894">
        <ele>37.775610</ele>
        <time>2025-01-15T02:57:18.291Z</time>
      </trkpt>
      <trkpt lat="48.912599" lon="2.107921">
        <ele>37.383370</ele>
        <time>2025-01-15T02:57:20.268Z</time>
      </trkpt>
      <trkpt lat="48.912551" lon="2.107992">
        <ele>36.950459</ele>
        <time>2025-01-15T02:57:22.431Z</time>
      </trkpt>
      <trkpt lat="48.912448" lon="2.108224">
        <ele>35.760534</ele>
        <time>2025-01-15T02:57:28.374Z</time>
      </trkpt>
      <trkpt lat="48.912403" lon="2.108860">
        <ele>33.041843</ele>
        <time>2025-01-15T02:57:42.013Z</time>
      </trkpt>
      <trkpt lat="48.912274" lon="2.109624">
        <ele>29.689300</ele>
        <time>2025-01-15T02:57:58.986Z</time>
      </trkpt>
      <trkpt lat="48.912231" lon="2.109879">
        <ele>28.570412</ele>
        <time>2025-01-15T02:58:04.850Z</time>
      </trkpt>
      <trkpt lat="48.912154" lon="2.110190">
        <ele>27.157936</ele>
        <time>2025-01-15T02:58:12.515Z</time>
      </trkpt>
      <trkpt lat="48.912051" lon="2.110474">
        <ele>26.254306</ele>
        <time>2025-01-15T02:58:20.184Z</time>
      </trkpt>
      <trkpt lat="48.911840" lon="2.111057">
        <ele>25.284761</ele>
        <time>2025-01-15T02:58:36.562Z</time>
      </trkpt>
      <trkpt lat="48.911783" lon="2.111018">
        <ele>25.146232</ele>
        <time>2025-01-15T02:58:37.900Z</time>
      </trkpt>
      <trkpt lat="48.911757" lon="2.111143">
        <ele>24.955236</ele>
        <time>2025-01-15T02:58:41.235Z</time>
      </trkpt>
      <trkpt lat="48.911608" lon="2.111878">
        <ele>23.834742</ele>
        <time>2025-01-15T02:59:01.174Z</time>
      </trkpt>
      <trkpt lat="48.911575" lon="2.112246">
        <ele>23.293687</ele>
        <time>2025-01-15T02:59:11.020Z</time>
      </trkpt>
      <trkpt lat="48.911098" lon="2.114362">
        <ele>21.909594</ele>
        <time>2025-01-15T03:00:12.734Z</time>
      </trkpt>
      <trkpt lat="48.908217" lon="2.112862">
        <ele>21.367412</ele>
        <time>2025-01-15T03:02:27.312Z</time>
      </trkpt>
      <trkpt lat="48.907286" lon="2.112648">
        <ele>21.381611</ele>
        <time>2025-01-15T03:03:09.111Z</time>
      </trkpt>
      <trkpt lat="48.906463" lon="2.112296">
        <ele>21.522286</ele>
        <time>2025-01-15T03:03:48.265Z</time>
      </trkpt>
      <trkpt lat="48.906270" lon="2.112178">
        <ele>21.572500</ele>
        <time>2025-01-15T03:03:54.685Z</time>
      </trkpt>
      <trkpt lat="48.905951" lon="2.111923">
        <ele>21.659493</ele>
        <time>2025-01-15T03:04:05.894Z</time>
      </trkpt>
      <trkpt lat="48.905712" lon="2.111653">
        <ele>21.731358</ele>
        <time>2025-01-15T03:04:15.195Z</time>
      </trkpt>
      <trkpt lat="48.905648" lon="2.111594">
        <ele>21.749424</ele>
        <time>2025-01-15T03:04:17.572Z</time>
      </trkpt>
      <trkpt lat="48.905383" lon="2.111297">
        <ele>21.842533</ele>
        <time>2025-01-15T03:04:27.890Z</time>
      </trkpt>
      <trkpt lat="48.904984" lon="2.110672">
        <ele>22.198222</ele>
        <time>2025-01-15T03:04:46.323Z</time>
      </trkpt>
      <trkpt lat="48.904459" lon="2.110027">
        <ele>22.617340</ele>
        <time>2025-01-15T03:05:09.975Z</time>
      </trkpt>
      <trkpt lat="48.903773" lon="2.109230">
        <ele>22.946365</ele>
        <time>2025-01-15T03:05:38.766Z</time>
      </trkpt>
      <trkpt lat="48.903591" lon="2.109085">
        <ele>22.951706</ele>
        <time>2025-01-15T03:05:44.938Z</time>
      </trkpt>
      <trkpt lat="48.903617" lon="2.108957">
        <ele>22.953996</ele>
        <time>2025-01-15T03:05:47.790Z</time>
      </trkpt>
      <trkpt lat="48.903633" lon="2.108850">
        <ele>22.955871</ele>
        <time>2025-01-15T03:05:49.948Z</time>
      </trkpt>
      <trkpt lat="48.903521" lon="2.108825">
        <ele>22.958814</ele>
        <time>2025-01-15T03:05:53.436Z</time>
      </trkpt>
      <trkpt lat="48.903009" lon="2.108610">
        <ele>22.972623</ele>
        <time>2025-01-15T03:06:08.720Z</time>
      </trkpt>
      <trkpt lat="48.902112" lon="2.107941">
        <ele>23.047635</ele>
        <time>2025-01-15T03:06:37.256Z</time>
      </trkpt>
      <trkpt lat="48.902150" lon="2.107819">
        <ele>23.057737</ele>
        <time>2025-01-15T03:06:43.458Z</time>
      </trkpt>
      <trkpt lat="48.902124" lon="2.107795">
        <ele>23.061199</ele>
        <time>2025-01-15T03:06:44.307Z</time>
      </trkpt>
      <trkpt lat="48.901562" lon="2.107445">
        <ele>23.130326</ele>
        <time>2025-01-15T03:07:01.075Z</time>
      </trkpt>
      <trkpt lat="48.900969" lon="2.107217">
        <ele>23.237116</ele>
        <time>2025-01-15T03:07:19.402Z</time>
      </trkpt>
      <trkpt lat="48.900867" lon="2.107197">
        <ele>23.287925</ele>
        <time>2025-01-15T03:07:22.635Z</time>
      </trkpt>
      <trkpt lat="48.900742" lon="2.107193">
        <ele>23.349694</ele>
        <time>2025-01-15T03:07:26.027Z</time>
      </trkpt>
      <trkpt lat="48.900690" lon="2.107218">
        <ele>23.376637</ele>
        <time>2025-01-15T03:07:27.465Z</time>
      </trkpt>
      <trkpt lat="48.900463" lon="2.107244">
        <ele>23.489102</ele>
        <time>2025-01-15T03:07:33.822Z</time>
      </trkpt>
      <trkpt lat="48.900307" lon="2.107216">
        <ele>23.566708</ele>
        <time>2025-01-15T03:07:38.413Z</time>
      </trkpt>
      <trkpt lat="48.900290" lon="2.107214">
        <ele>23.575132</ele>
        <time>2025-01-15T03:07:39.001Z</time>
      </trkpt>
      <trkpt lat="48.900120" lon="2.107128">
        <ele>23.663641</ele>
        <time>2025-01-15T03:07:44.241Z</time>
      </trkpt>
      <trkpt lat="48.900026" lon="2.107048">
        <ele>23.716856</ele>
        <time>2025-01-15T03:07:47.129Z</time>
      </trkpt>
      <trkpt lat="48.899991" lon="2.106983">
        <ele>23.744144</ele>
        <time>2025-01-15T03:07:48.865Z</time>
      </trkpt>
      <trkpt lat="48.899932" lon="2.106947">
        <ele>23.775550</ele>
        <time>2025-01-15T03:07:50.574Z</time>
      </trkpt>
      <trkpt lat="48.899898" lon="2.106950">
        <ele>23.792375</ele>
        <time>2025-01-15T03:07:51.452Z</time>
      </trkpt>
      <trkpt lat="48.899839" lon="2.106997">
        <ele>23.825279</ele>
        <time>2025-01-15T03:07:53.486Z</time>
      </trkpt>
      <trkpt lat="48.899806" lon="2.107087">
        <ele>23.858748</ele>
        <time>2025-01-15T03:07:55.298Z</time>
      </trkpt>
      <trkpt lat="48.899805" lon="2.107107">
        <ele>23.865262</ele>
        <time>2025-01-15T03:07:55.638Z</time>
      </trkpt>
      <trkpt lat="48.899730" lon="2.107157">
        <ele>23.905717</ele>
        <time>2025-01-15T03:07:58.068Z</time>
      </trkpt>
      <trkpt lat="48.899652" lon="2.107132">
        <ele>23.945099</ele>
        <time>2025-01-15T03:08:00.313Z</time>
      </trkpt>
      <trkpt lat="48.899549" lon="2.107062">
        <ele>24.000833</ele>
        <time>2025-01-15T03:08:03.849Z</time>
      </trkpt>
      <trkpt lat="48.899441" lon="2.107072">
        <ele>24.054288</ele>
        <time>2025-01-15T03:08:07.407Z</time>
      </trkpt>
      <trkpt lat="48.898809" lon="2.107083">
        <ele>24.711226</ele>
        <time>2025-01-15T03:08:28.672Z</time>
      </trkpt>
      <trkpt lat="48.898496" lon="2.107089">
        <ele>25.050246</ele>
        <time>2025-01-15T03:08:40.077Z</time>
      </trkpt>
      <trkpt lat="48.898058" lon="2.107099">
        <ele>25.524673</ele>
        <time>2025-01-15T03:08:54.328Z</time>
      </trkpt>
      <trkpt lat="48.897966" lon="2.107058">
        <ele>25.628502</ele>
        <time>2025-01-15T03:08:57.566Z</time>
      </trkpt>
      <trkpt lat="48.897909" lon="2.106992">
        <ele>25.706086</ele>
        <time>2025-01-15T03:08:59.835Z</time>
      </trkpt>
      <trkpt lat="48.897902" lon="2.106777">
        <ele>25.859353</ele>
        <time>2025-01-15T03:09:04.528Z</time>
      </trkpt>
      <trkpt lat="48.897901" lon="2.106727">
        <ele>25.894969</ele>
        <time>2025-01-15T03:09:05.720Z</time>
      </trkpt>
      <trkpt lat="48.897851" lon="2.106728">
        <ele>25.949126</ele>
        <time>2025-01-15T03:09:07.406Z</time>
      </trkpt>
      <trkpt lat="48.897851" lon="2.106777">
        <ele>25.984014</ele>
        <time>2025-01-15T03:09:08.419Z</time>
      </trkpt>
      <trkpt lat="48.897850" lon="2.107122">
        <ele>26.115684</ele>
        <time>2025-01-15T03:09:16.227Z</time>
      </trkpt>
      <trkpt lat="48.897850" lon="2.107321">
        <ele>26.178295</ele>
        <time>2025-01-15T03:09:20.683Z</time>
      </trkpt>
      <trkpt lat="48.897870" lon="2.109134">
        <ele>26.748792</ele>
        <time>2025-01-15T03:09:54.336Z</time>
      </trkpt>
      <trkpt lat="48.897878" lon="2.110067">
        <ele>26.864171</ele>
        <time>2025-01-15T03:10:12.228Z</time>
      </trkpt>
      <trkpt lat="48.897887" lon="2.111016">
        <ele>26.821924</ele>
        <time>2025-01-15T03:10:29.360Z</time>
      </trkpt>
      <trkpt lat="48.897887" lon="2.111016">
        <ele>26.821924</ele>
        <time>2025-01-15T03:10:29.384Z</time>
      </trkpt>
      <trkpt lat="48.897887" lon="2.111016">
        <ele>26.821924</ele>
        <time>2025-01-15T03:10:29.384Z</time>
      </trkpt>
      <trkpt lat="48.897979" lon="2.110791">
        <ele>26.810129</ele>
        <time>2025-01-15T03:10:33.889Z</time>
      </trkpt>
      <trkpt lat="48.897936" lon="2.110856">
        <ele>26.806024</ele>
        <time>2025-01-15T03:10:35.456Z</time>
      </trkpt>
      <trkpt lat="48.898044" lon="2.110856">
        <ele>26.798712</ele>
        <time>2025-01-15T03:10:38.249Z</time>
      </trkpt>
      <trkpt lat="48.898365" lon="2.110405">
        <ele>26.769124</ele>
        <time>2025-01-15T03:10:49.549Z</time>
      </trkpt>
      <trkpt lat="48.898516" lon="2.110233">
        <ele>26.710858</ele>
        <time>2025-01-15T03:10:54.427Z</time>
      </trkpt>
      <trkpt lat="48.898623" lon="2.110190">
        <ele>26.661376</ele>
        <time>2025-01-15T03:10:57.289Z</time>
      </trkpt>
      <trkpt lat="48.898988" lon="2.110212">
        <ele>26.498053</ele>
        <time>2025-01-15T03:11:06.736Z</time>
      </trkpt>
      <trkpt lat="48.899009" lon="2.109976">
        <ele>26.428055</ele>
        <time>2025-01-15T03:11:10.784Z</time>
      </trkpt>
      <trkpt lat="48.898709" lon="2.109922">
        <ele>26.292986</ele>
        <time>2025-01-15T03:11:18.596Z</time>
      </trkpt>
      <trkpt lat="48.898710" lon="2.109909">
        <ele>26.289139</ele>
        <time>2025-01-15T03:11:18.814Z</time>
      </trkpt>
      <trkpt lat="48.898498" lon="2.109866">
        <ele>26.193513</ele>
        <time>2025-01-15T03:11:24.430Z</time>
      </trkpt>
      <trkpt lat="48.898414" lon="2.109881">
        <ele>26.155698</ele>
        <time>2025-01-15T03:11:26.771Z</time>
      </trkpt>
      <trkpt lat="48.898288" lon="2.109956">
        <ele>26.095203</ele>
        <time>2025-01-15T03:11:30.295Z</time>
      </trkpt>
      <trkpt lat="48.898245" lon="2.109929">
        <ele>26.074404</ele>
        <time>2025-01-15T03:11:31.326Z</time>
      </trkpt>
      <trkpt lat="48.898016" lon="2.109931">
        <ele>25.972015</ele>
        <time>2025-01-15T03:11:37.102Z</time>
      </trkpt>
      <trkpt lat="48.897795" lon="2.109937">
        <ele>25.804966</ele>
        <time>2025-01-15T03:11:42.285Z</time>
      </trkpt>
      <trkpt lat="48.897672" lon="2.109939">
        <ele>25.706888</ele>
        <time>2025-01-15T03:11:45.358Z</time>
      </trkpt>
      <trkpt lat="48.897271" lon="2.109941">
        <ele>25.387155</ele>
        <time>2025-01-15T03:11:55.023Z</time>
      </trkpt>
      <trkpt lat="48.897214" lon="2.109941">
        <ele>25.341707</ele>
        <time>2025-01-15T03:11:56.417Z</time>
      </trkpt>
      <trkpt lat="48.896754" lon="2.109888">
        <ele>24.973882</ele>
        <time>2025-01-15T03:12:07.464Z</time>
      </trkpt>
      <trkpt lat="48.896343" lon="2.109816">
        <ele>24.644012</ele>
        <time>2025-01-15T03:12:17.374Z</time>
      </trkpt>
      <trkpt lat="48.895801" lon="2.109873">
        <ele>24.451158</ele>
        <time>2025-01-15T03:12:30.812Z</time>
      </trkpt>
      <trkpt lat="48.895619" lon="2.109747">
        <ele>24.413236</ele>
        <time>2025-01-15T03:12:36.126Z</time>
      </trkpt>
      <trkpt lat="48.895499" lon="2.109646">
        <ele>24.387226</ele>
        <time>2025-01-15T03:12:39.929Z</time>
      </trkpt>
      <trkpt lat="48.894258" lon="2.109598">
        <ele>24.130719</ele>
        <time>2025-01-15T03:13:13.419Z</time>
      </trkpt>
      <trkpt lat="48.893874" lon="2.109606">
        <ele>24.011721</ele>
        <time>2025-01-15T03:13:23.879Z</time>
      </trkpt>
      <trkpt lat="48.893711" lon="2.109603">
        <ele>23.961209</ele>
        <time>2025-01-15T03:13:28.048Z</time>
      </trkpt>
      <trkpt lat="48.893688" lon="2.109602">
        <ele>23.954080</ele>
        <time>2025-01-15T03:13:28.719Z</time>
      </trkpt>
      <trkpt lat="48.893607" lon="2.109599">
        <ele>23.928973</ele>
        <time>2025-01-15T03:13:31.022Z</time>
      </trkpt>
      <trkpt lat="48.893351" lon="2.109576">
        <ele>23.849511</ele>
        <time>2025-01-15T03:13:38.311Z</time>
      </trkpt>
      <trkpt lat="48.892767" lon="2.109403">
        <ele>23.665151</ele>
        <time>2025-01-15T03:13:55.021Z</time>
      </trkpt>
      <trkpt lat="48.892775" lon="2.109302">
        <ele>23.644426</ele>
        <time>2025-01-15T03:13:56.905Z</time>
      </trkpt>
      <trkpt lat="48.892788" lon="2.109128">
        <ele>23.596020</ele>
        <time>2025-01-15T03:14:00.118Z</time>
      </trkpt>
      <trkpt lat="48.892770" lon="2.109125">
        <ele>23.586645</ele>
        <time>2025-01-15T03:14:00.638Z</time>
      </trkpt>
      <trkpt lat="48.892779" lon="2.109040">
        <ele>23.557338</ele>
        <time>2025-01-15T03:14:02.223Z</time>
      </trkpt>
      <trkpt lat="48.892466" lon="2.109018">
        <ele>23.395112</ele>
        <time>2025-01-15T03:14:10.832Z</time>
      </trkpt>
      <trkpt lat="48.891888" lon="2.108969">
        <ele>23.095393</ele>
        <time>2025-01-15T03:14:26.788Z</time>
      </trkpt>
      <trkpt lat="48.891604" lon="2.108992">
        <ele>22.948146</ele>
        <time>2025-01-15T03:14:34.736Z</time>
      </trkpt>
      <trkpt lat="48.890843" lon="2.109172">
        <ele>22.665457</ele>
        <time>2025-01-15T03:14:56.676Z</time>
      </trkpt>
      <trkpt lat="48.890545" lon="2.109298">
        <ele>22.631667</ele>
        <time>2025-01-15T03:15:05.674Z</time>
      </trkpt>
      <trkpt lat="48.890155" lon="2.109543">
        <ele>22.585570</ele>
        <time>2025-01-15T03:15:18.118Z</time>
      </trkpt>
      <trkpt lat="48.889969" lon="2.109697">
        <ele>22.562434</ele>
        <time>2025-01-15T03:15:24.417Z</time>
      </trkpt>
      <trkpt lat="48.889931" lon="2.109775">
        <ele>22.555461</ele>
        <time>2025-01-15T03:15:26.313Z</time>
      </trkpt>
      <trkpt lat="48.889644" lon="2.110033">
        <ele>22.519041</ele>
        <time>2025-01-15T03:15:36.242Z</time>
      </trkpt>
      <trkpt lat="48.887627" lon="2.111697">
        <ele>22.617046</ele>
        <time>2025-01-15T03:16:44.316Z</time>
      </trkpt>
      <trkpt lat="48.887149" lon="2.112134">
        <ele>22.762229</ele>
        <time>2025-01-15T03:17:02.273Z</time>
      </trkpt>
      <trkpt lat="48.887074" lon="2.112300">
        <ele>22.796705</ele>
        <time>2025-01-15T03:17:06.494Z</time>
      </trkpt>
      <trkpt lat="48.886478" lon="2.112824">
        <ele>22.975915</ele>
        <time>2025-01-15T03:17:28.197Z</time>
      </trkpt>
      <trkpt lat="48.885614" lon="2.113610">
        <ele>23.230841</ele>
        <time>2025-01-15T03:17:56.324Z</time>
      </trkpt>
      <trkpt lat="48.884458" lon="2.114746">
        <ele>23.461470</ele>
        <time>2025-01-15T03:18:35.611Z</time>
      </trkpt>
      <trkpt lat="48.884072" lon="2.115086">
        <ele>23.466889</ele>
        <time>2025-01-15T03:18:47.811Z</time>
      </trkpt>
      <trkpt lat="48.883951" lon="2.115163">
        <ele>23.468482</ele>
        <time>2025-01-15T03:18:51.286Z</time>
      </trkpt>
      <trkpt lat="48.882962" lon="2.115841">
        <ele>23.340989</ele>
        <time>2025-01-15T03:19:22.494Z</time>
      </trkpt>
      <trkpt lat="48.882578" lon="2.116055">
        <ele>23.181387</ele>
        <time>2025-01-15T03:19:34.063Z</time>
      </trkpt>
      <trkpt lat="48.881588" lon="2.116858">
        <ele>22.753292</ele>
        <time>2025-01-15T03:20:05.878Z</time>
      </trkpt>
      <trkpt lat="48.881501" lon="2.116952">
        <ele>22.724372</ele>
        <time>2025-01-15T03:20:08.866Z</time>
      </trkpt>
      <trkpt lat="48.881140" lon="2.117519">
        <ele>22.583739</ele>
        <time>2025-01-15T03:20:23.372Z</time>
      </trkpt>
      <trkpt lat="48.880434" lon="2.118437">
        <ele>22.332027</ele>
        <time>2025-01-15T03:20:49.999Z</time>
      </trkpt>
      <trkpt lat="48.879446" lon="2.119261">
        <ele>22.536947</ele>
        <time>2025-01-15T03:21:24.737Z</time>
      </trkpt>
      <trkpt lat="48.879045" lon="2.119716">
        <ele>22.665992</ele>
        <time>2025-01-15T03:21:40.840Z</time>
      </trkpt>
      <trkpt lat="48.878014" lon="2.121049">
        <ele>23.088368</ele>
        <time>2025-01-15T03:22:24.620Z</time>
      </trkpt>
      <trkpt lat="48.877511" lon="2.121814">
        <ele>23.323014</ele>
        <time>2025-01-15T03:22:46.972Z</time>
      </trkpt>
      <trkpt lat="48.876770" lon="2.122729">
        <ele>23.222274</ele>
        <time>2025-01-15T03:23:15.297Z</time>
      </trkpt>
      <trkpt lat="48.876008" lon="2.123595">
        <ele>23.091776</ele>
        <time>2025-01-15T03:23:42.359Z</time>
      </trkpt>
      <trkpt lat="48.875773" lon="2.123826">
        <ele>23.062579</ele>
        <time>2025-01-15T03:23:50.304Z</time>
      </trkpt>
      <trkpt lat="48.875450" lon="2.124222">
        <ele>23.019285</ele>
        <time>2025-01-15T03:24:02.193Z</time>
      </trkpt>
      <trkpt lat="48.875216" lon="2.124561">
        <ele>22.985561</ele>
        <time>2025-01-15T03:24:11.599Z</time>
      </trkpt>
      <trkpt lat="48.874288" lon="2.126124">
        <ele>22.918743</ele>
        <time>2025-01-15T03:24:54.086Z</time>
      </trkpt>
      <trkpt lat="48.873850" lon="2.126805">
        <ele>22.928933</ele>
        <time>2025-01-15T03:25:13.242Z</time>
      </trkpt>
      <trkpt lat="48.872823" lon="2.128359">
        <ele>22.751717</ele>
        <time>2025-01-15T03:25:50.617Z</time>
      </trkpt>
      <trkpt lat="48.872016" lon="2.129905">
        <ele>22.532855</ele>
        <time>2025-01-15T03:26:24.443Z</time>
      </trkpt>
      <trkpt lat="48.871801" lon="2.130377">
        <ele>22.495352</ele>
        <time>2025-01-15T03:26:34.577Z</time>
      </trkpt>
      <trkpt lat="48.871603" lon="2.130907">
        <ele>22.455537</ele>
        <time>2025-01-15T03:26:45.423Z</time>
      </trkpt>
      <trkpt lat="48.871434" lon="2.131450">
        <ele>22.416297</ele>
        <time>2025-01-15T03:26:55.665Z</time>
      </trkpt>
      <trkpt lat="48.871229" lon="2.132244">
        <ele>22.481306</ele>
        <time>2025-01-15T03:27:10.217Z</time>
      </trkpt>
      <trkpt lat="48.871086" lon="2.133099">
        <ele>22.620203</ele>
        <time>2025-01-15T03:27:26.160Z</time>
      </trkpt>
      <trkpt lat="48.870921" lon="2.134446">
        <ele>22.851822</ele>
        <time>2025-01-15T03:27:52.883Z</time>
      </trkpt>
      <trkpt lat="48.870830" lon="2.135201">
        <ele>23.176731</ele>
        <time>2025-01-15T03:28:08.262Z</time>
      </trkpt>
      <trkpt lat="48.870776" lon="2.136022">
        <ele>23.525989</ele>
        <time>2025-01-15T03:28:23.189Z</time>
      </trkpt>
      <trkpt lat="48.870770" lon="2.136855">
        <ele>23.878615</ele>
        <time>2025-01-15T03:28:40.118Z</time>
      </trkpt>
      <trkpt lat="48.870781" lon="2.137300">
        <ele>24.143905</ele>
        <time>2025-01-15T03:28:50.538Z</time>
      </trkpt>
      <trkpt lat="48.870786" lon="2.137806">
        <ele>24.556050</ele>
        <time>2025-01-15T03:29:02.475Z</time>
      </trkpt>
      <trkpt lat="48.870840" lon="2.137799">
        <ele>24.623155</ele>
        <time>2025-01-15T03:29:04.697Z</time>
      </trkpt>
      <trkpt lat="48.871016" lon="2.138008">
        <ele>24.899672</ele>
        <time>2025-01-15T03:29:13.382Z</time>
      </trkpt>
      <trkpt lat="48.871440" lon="2.137941">
        <ele>25.427489</ele>
        <time>2025-01-15T03:29:30.741Z</time>
      </trkpt>
      <trkpt lat="48.871636" lon="2.137896">
        <ele>25.672924</ele>
        <time>2025-01-15T03:29:38.647Z</time>
      </trkpt>
      <trkpt lat="48.872154" lon="2.137963">
        <ele>26.211884</ele>
        <time>2025-01-15T03:29:57.116Z</time>
      </trkpt>
      <trkpt lat="48.872088" lon="2.137816">
        <ele>26.213022</ele>
        <time>2025-01-15T03:30:05.271Z</time>
      </trkpt>
      <trkpt lat="48.871815" lon="2.137666">
        <ele>26.215844</ele>
        <time>2025-01-15T03:30:25.405Z</time>
      </trkpt>
      <trkpt lat="48.871173" lon="2.137474">
        <ele>26.222206</ele>
        <time>2025-01-15T03:31:10.889Z</time>
      </trkpt>
      <trkpt lat="48.870935" lon="2.137442">
        <ele>26.224529</ele>
        <time>2025-01-15T03:31:27.507Z</time>
      </trkpt>
      <trkpt lat="48.870625" lon="2.137425">
        <ele>26.227545</ele>
        <time>2025-01-15T03:31:49.066Z</time>
      </trkpt>
      <trkpt lat="48.870216" lon="2.137403">
        <ele>26.315795</ele>
        <time>2025-01-15T03:32:17.529Z</time>
      </trkpt>
      <trkpt lat="48.869467" lon="2.137363">
        <ele>26.529043</ele>
        <time>2025-01-15T03:33:09.581Z</time>
      </trkpt>
      <trkpt lat="48.868989" lon="2.137350">
        <ele>26.665071</ele>
        <time>2025-01-15T03:33:42.826Z</time>
      </trkpt>
      <trkpt lat="48.868928" lon="2.137472">
        <ele>26.693753</ele>
        <time>2025-01-15T03:33:49.863Z</time>
      </trkpt>
      <trkpt lat="48.868897" lon="2.137466">
        <ele>26.702645</ele>
        <time>2025-01-15T03:33:51.992Z</time>
      </trkpt>
      <trkpt lat="48.868923" lon="2.137247">
        <ele>26.747550</ele>
        <time>2025-01-15T03:33:55.984Z</time>
      </trkpt>
      <trkpt lat="48.868782" lon="2.137239">
        <ele>26.820548</ele>
        <time>2025-01-15T03:33:59.811Z</time>
      </trkpt>
      <trkpt lat="48.868651" lon="2.137227">
        <ele>26.888445</ele>
        <time>2025-01-15T03:34:03.289Z</time>
      </trkpt>
      <trkpt lat="48.867738" lon="2.137182">
        <ele>27.361038</ele>
        <time>2025-01-15T03:34:28.896Z</time>
      </trkpt>
      <trkpt lat="48.867740" lon="2.137082">
        <ele>27.395085</ele>
        <time>2025-01-15T03:34:33.470Z</time>
      </trkpt>
      <trkpt lat="48.867739" lon="2.137055">
        <ele>27.404289</ele>
        <time>2025-01-15T03:34:34.711Z</time>
      </trkpt>
      <trkpt lat="48.867655" lon="2.137039">
        <ele>27.448086</ele>
        <time>2025-01-15T03:34:45.113Z</time>
      </trkpt>
      <trkpt lat="48.867656" lon="2.137001">
        <ele>27.461029</ele>
        <time>2025-01-15T03:34:48.237Z</time>
      </trkpt>
      <trkpt lat="48.867709" lon="2.137000">
        <ele>27.488451</ele>
        <time>2025-01-15T03:34:54.773Z</time>
      </trkpt>
      <trkpt lat="48.867725" lon="2.136964">
        <ele>27.503236</ele>
        <time>2025-01-15T03:34:56.733Z</time>
      </trkpt>
      <trkpt lat="48.867637" lon="2.136969">
        <ele>27.548795</ele>
        <time>2025-01-15T03:35:02.805Z</time>
      </trkpt>
      <trkpt lat="48.867584" lon="2.136967">
        <ele>27.576224</ele>
        <time>2025-01-15T03:35:06.497Z</time>
      </trkpt>
      <trkpt lat="48.867499" lon="2.136953">
        <ele>27.620456</ele>
        <time>2025-01-15T03:35:12.479Z</time>
      </trkpt>
      <trkpt lat="48.867483" lon="2.137303">
        <ele>27.793099</ele>
        <time>2025-01-15T03:35:20.404Z</time>
      </trkpt>
      <trkpt lat="48.867441" lon="2.138261">
        <ele>28.371984</ele>
        <time>2025-01-15T03:35:41.006Z</time>
      </trkpt>
      <trkpt lat="48.867445" lon="2.138471">
        <ele>28.498652</ele>
        <time>2025-01-15T03:35:45.457Z</time>
      </trkpt>
      <trkpt lat="48.867448" lon="2.138555">
        <ele>28.549372</ele>
        <time>2025-01-15T03:35:47.163Z</time>
      </trkpt>
      <trkpt lat="48.867383" lon="2.138561">
        <ele>28.609060</ele>
        <time>2025-01-15T03:35:49.184Z</time>
      </trkpt>
      <trkpt lat="48.867410" lon="2.139919">
        <ele>29.518324</ele>
        <time>2025-01-15T03:36:15.897Z</time>
      </trkpt>
      <trkpt lat="48.867470" lon="2.140303">
        <ele>29.953461</ele>
        <time>2025-01-15T03:36:25.139Z</time>
      </trkpt>
      <trkpt lat="48.867556" lon="2.140568">
        <ele>30.279242</ele>
        <time>2025-01-15T03:36:32.421Z</time>
      </trkpt>
      <trkpt lat="48.867602" lon="2.141193">
        <ele>30.972597</ele>
        <time>2025-01-15T03:36:48.600Z</time>
      </trkpt>
      <trkpt lat="48.867367" lon="2.141239">
        <ele>31.369714</ele>
        <time>2025-01-15T03:36:58.050Z</time>
      </trkpt>
      <trkpt lat="48.867099" lon="2.141161">
        <ele>31.827045</ele>
        <time>2025-01-15T03:37:08.811Z</time>
      </trkpt>
      <trkpt lat="48.867087" lon="2.141235">
        <ele>31.911072</ele>
        <time>2025-01-15T03:37:10.717Z</time>
      </trkpt>
      <trkpt lat="48.867118" lon="2.141588">
        <ele>32.303708</ele>
        <time>2025-01-15T03:37:20.041Z</time>
      </trkpt>
      <trkpt lat="48.867195" lon="2.142033">
        <ele>32.258686</ele>
        <time>2025-01-15T03:37:31.969Z</time>
      </trkpt>
      <trkpt lat="48.867265" lon="2.142309">
        <ele>32.207186</ele>
        <time>2025-01-15T03:37:38.649Z</time>
      </trkpt>
      <trkpt lat="48.867416" lon="2.143432">
        <ele>32.007625</ele>
        <time>2025-01-15T03:37:56.698Z</time>
      </trkpt>
      <trkpt lat="48.867503" lon="2.143738">
        <ele>31.949586</ele>
        <time>2025-01-15T03:38:01.595Z</time>
      </trkpt>
      <trkpt lat="48.867632" lon="2.144045">
        <ele>31.886162</ele>
        <time>2025-01-15T03:38:07.010Z</time>
      </trkpt>
      <trkpt lat="48.867751" lon="2.145125">
        <ele>31.661627</ele>
        <time>2025-01-15T03:38:24.836Z</time>
      </trkpt>
      <trkpt lat="48.867763" lon="2.145121">
        <ele>31.657697</ele>
        <time>2025-01-15T03:38:25.122Z</time>
      </trkpt>
      <trkpt lat="48.867790" lon="2.145111">
        <ele>31.648808</ele>
        <time>2025-01-15T03:38:25.734Z</time>
      </trkpt>
      <trkpt lat="48.867818" lon="2.145284">
        <ele>31.611320</ele>
        <time>2025-01-15T03:38:28.564Z</time>
      </trkpt>
      <trkpt lat="48.867776" lon="2.145280">
        <ele>31.597858</ele>
        <time>2025-01-15T03:38:29.882Z</time>
      </trkpt>
      <trkpt lat="48.867707" lon="2.145310">
        <ele>31.574902</ele>
        <time>2025-01-15T03:38:32.389Z</time>
      </trkpt>
      <trkpt lat="48.867674" lon="2.145071">
        <ele>31.523516</ele>
        <time>2025-01-15T03:38:36.538Z</time>
      </trkpt>
      <trkpt lat="48.867596" lon="2.144462">
        <ele>31.392964</ele>
        <time>2025-01-15T03:38:49.406Z</time>
      </trkpt>
      <trkpt lat="48.867463" lon="2.144411">
        <ele>31.349087</ele>
        <time>2025-01-15T03:38:54.106Z</time>
      </trkpt>
      <trkpt lat="48.867596" lon="2.144462">
        <ele>31.305211</ele>
        <time>2025-01-15T03:38:58.803Z</time>
      </trkpt>
      <trkpt lat="48.867674" lon="2.145071">
        <ele>31.274864</ele>
        <time>2025-01-15T03:39:10.299Z</time>
      </trkpt>
      <trkpt lat="48.867707" lon="2.145310">
        <ele>31.271178</ele>
        <time>2025-01-15T03:39:14.638Z</time>
      </trkpt>
      <trkpt lat="48.867840" lon="2.146094">
        <ele>31.258958</ele>
        <time>2025-01-15T03:39:28.202Z</time>
      </trkpt>
      <trkpt lat="48.867861" lon="2.146205">
        <ele>31.257215</ele>
        <time>2025-01-15T03:39:30.316Z</time>
      </trkpt>
      <trkpt lat="48.867930" lon="2.146174">
        <ele>31.255564</ele>
        <time>2025-01-15T03:39:32.184Z</time>
      </trkpt>
      <trkpt lat="48.867969" lon="2.146156">
        <ele>31.254629</ele>
        <time>2025-01-15T03:39:33.284Z</time>
      </trkpt>
      <trkpt lat="48.867988" lon="2.146258">
        <ele>31.253029</ele>
        <time>2025-01-15T03:39:35.368Z</time>
      </trkpt>
      <trkpt lat="48.868337" lon="2.147841">
        <ele>30.508874</ele>
        <time>2025-01-15T03:40:03.724Z</time>
      </trkpt>
      <trkpt lat="48.868410" lon="2.148306">
        <ele>30.117602</ele>
        <time>2025-01-15T03:40:11.362Z</time>
      </trkpt>
      <trkpt lat="48.868411" lon="2.148492">
        <ele>29.965364</ele>
        <time>2025-01-15T03:40:14.121Z</time>
      </trkpt>
      <trkpt lat="48.868401" lon="2.148696">
        <ele>29.797936</ele>
        <time>2025-01-15T03:40:17.072Z</time>
      </trkpt>
      <trkpt lat="48.868384" lon="2.148998">
        <ele>29.549858</ele>
        <time>2025-01-15T03:40:21.502Z</time>
      </trkpt>
      <trkpt lat="48.868442" lon="2.149007">
        <ele>29.477316</ele>
        <time>2025-01-15T03:40:25.526Z</time>
      </trkpt>
      <trkpt lat="48.868471" lon="2.148458">
        <ele>29.026537</ele>
        <time>2025-01-15T03:40:33.358Z</time>
      </trkpt>
      <trkpt lat="48.868902" lon="2.148272">
        <ele>28.355878</ele>
        <time>2025-01-15T03:40:43.657Z</time>
      </trkpt>
      <trkpt lat="48.869054" lon="2.148655">
        <ele>27.912215</ele>
        <time>2025-01-15T03:40:49.940Z</time>
      </trkpt>
      <trkpt lat="48.869504" lon="2.149465">
        <ele>26.860621</ele>
        <time>2025-01-15T03:41:05.784Z</time>
      </trkpt>
      <trkpt lat="48.869839" lon="2.149955">
        <ele>26.250841</ele>
        <time>2025-01-15T03:41:17.793Z</time>
      </trkpt>
      <trkpt lat="48.870655" lon="2.150953">
        <ele>25.765795</ele>
        <time>2025-01-15T03:41:44.630Z</time>
      </trkpt>
      <trkpt lat="48.871560" lon="2.152071">
        <ele>25.213628</ele>
        <time>2025-01-15T03:42:13.854Z</time>
      </trkpt>
      <trkpt lat="48.872087" lon="2.152619">
        <ele>24.902547</ele>
        <time>2025-01-15T03:42:29.720Z</time>
      </trkpt>
      <trkpt lat="48.872303" lon="2.152844">
        <ele>24.774974</ele>
        <time>2025-01-15T03:42:36.181Z</time>
      </trkpt>
      <trkpt lat="48.872583" lon="2.153084">
        <ele>24.618364</ele>
        <time>2025-01-15T03:42:44.225Z</time>
      </trkpt>
      <trkpt lat="48.872831" lon="2.153289">
        <ele>24.605111</ele>
        <time>2025-01-15T03:42:51.417Z</time>
      </trkpt>
      <trkpt lat="48.872843" lon="2.153456">
        <ele>24.617488</ele>
        <time>2025-01-15T03:42:56.290Z</time>
      </trkpt>
      <trkpt lat="48.872898" lon="2.153663">
        <ele>24.633936</ele>
        <time>2025-01-15T03:43:02.918Z</time>
      </trkpt>
      <trkpt lat="48.872893" lon="2.153856">
        <ele>24.648167</ele>
        <time>2025-01-15T03:43:08.642Z</time>
      </trkpt>
      <trkpt lat="48.873039" lon="2.154559">
        <ele>24.702482</ele>
        <time>2025-01-15T03:43:30.695Z</time>
      </trkpt>
      <trkpt lat="48.873008" lon="2.154967">
        <ele>24.732742</ele>
        <time>2025-01-15T03:43:43.281Z</time>
      </trkpt>
      <trkpt lat="48.873056" lon="2.155253">
        <ele>24.754488</ele>
        <time>2025-01-15T03:43:52.643Z</time>
      </trkpt>
      <trkpt lat="48.873083" lon="2.155256">
        <ele>24.757521</ele>
        <time>2025-01-15T03:43:53.519Z</time>
      </trkpt>
      <trkpt lat="48.873131" lon="2.155280">
        <ele>24.763181</ele>
        <time>2025-01-15T03:43:55.217Z</time>
      </trkpt>
      <trkpt lat="48.873295" lon="2.155521">
        <ele>24.779662</ele>
        <time>2025-01-15T03:44:02.987Z</time>
      </trkpt>
      <trkpt lat="48.873947" lon="2.156938">
        <ele>24.692100</ele>
        <time>2025-01-15T03:44:43.159Z</time>
      </trkpt>
      <trkpt lat="48.874037" lon="2.157098">
        <ele>24.681440</ele>
        <time>2025-01-15T03:44:46.552Z</time>
      </trkpt>
      <trkpt lat="48.874165" lon="2.157225">
        <ele>24.669673</ele>
        <time>2025-01-15T03:44:50.312Z</time>
      </trkpt>
      <trkpt lat="48.874678" lon="2.158250">
        <ele>24.827861</ele>
        <time>2025-01-15T03:45:11.491Z</time>
      </trkpt>
      <trkpt lat="48.875352" lon="2.159591">
        <ele>25.214570</ele>
        <time>2025-01-15T03:45:44.378Z</time>
      </trkpt>
      <trkpt lat="48.875535" lon="2.159856">
        <ele>25.380811</ele>
        <time>2025-01-15T03:45:53.291Z</time>
      </trkpt>
      <trkpt lat="48.876213" lon="2.160662">
        <ele>26.434162</ele>
        <time>2025-01-15T03:46:24.318Z</time>
      </trkpt>
      <trkpt lat="48.876449" lon="2.160890">
        <ele>26.776383</ele>
        <time>2025-01-15T03:46:34.245Z</time>
      </trkpt>
      <trkpt lat="48.876987" lon="2.161526">
        <ele>27.491279</ele>
        <time>2025-01-15T03:46:56.853Z</time>
      </trkpt>
      <trkpt lat="48.876993" lon="2.161646">
        <ele>27.504223</ele>
        <time>2025-01-15T03:46:59.343Z</time>
      </trkpt>
      <trkpt lat="48.876954" lon="2.161820">
        <ele>27.523994</ele>
        <time>2025-01-15T03:47:03.063Z</time>
      </trkpt>
      <trkpt lat="48.876548" lon="2.162616">
        <ele>27.632337</ele>
        <time>2025-01-15T03:47:20.852Z</time>
      </trkpt>
      <trkpt lat="48.876378" lon="2.162921">
        <ele>27.675338</ele>
        <time>2025-01-15T03:47:27.669Z</time>
      </trkpt>
      <trkpt lat="48.876276" lon="2.163191">
        <ele>27.708828</ele>
        <time>2025-01-15T03:47:33.066Z</time>
      </trkpt>
      <trkpt lat="48.876214" lon="2.163375">
        <ele>27.731065</ele>
        <time>2025-01-15T03:47:36.630Z</time>
      </trkpt>
      <trkpt lat="48.875933" lon="2.164200">
        <ele>27.778520</ele>
        <time>2025-01-15T03:47:52.775Z</time>
      </trkpt>
      <trkpt lat="48.875826" lon="2.164501">
        <ele>27.785123</ele>
        <time>2025-01-15T03:47:58.721Z</time>
      </trkpt>
      <trkpt lat="48.875798" lon="2.164575">
        <ele>27.786771</ele>
        <time>2025-01-15T03:48:00.198Z</time>
      </trkpt>
      <trkpt lat="48.875773" lon="2.164649">
        <ele>27.788377</ele>
        <time>2025-01-15T03:48:01.652Z</time>
      </trkpt>
      <trkpt lat="48.875738" lon="2.164752">
        <ele>27.790614</ele>
        <time>2025-01-15T03:48:03.692Z</time>
      </trkpt>
      <trkpt lat="48.875588" lon="2.165199">
        <ele>27.800299</ele>
        <time>2025-01-15T03:48:13.052Z</time>
      </trkpt>
      <trkpt lat="48.875567" lon="2.165262">
        <ele>27.801663</ele>
        <time>2025-01-15T03:48:14.381Z</time>
      </trkpt>
      <trkpt lat="48.875518" lon="2.165399">
        <ele>27.804672</ele>
        <time>2025-01-15T03:48:17.296Z</time>
      </trkpt>
      <trkpt lat="48.875153" lon="2.166441">
        <ele>27.913406</ele>
        <time>2025-01-15T03:48:37.999Z</time>
      </trkpt>
      <trkpt lat="48.875038" lon="2.166768">
        <ele>28.001166</ele>
        <time>2025-01-15T03:48:44.447Z</time>
      </trkpt>
      <trkpt lat="48.874809" lon="2.167403">
        <ele>28.172561</ele>
        <time>2025-01-15T03:48:57.212Z</time>
      </trkpt>
      <trkpt lat="48.874850" lon="2.167472">
        <ele>28.194568</ele>
        <time>2025-01-15T03:48:58.921Z</time>
      </trkpt>
      <trkpt lat="48.874848" lon="2.167547">
        <ele>28.212333</ele>
        <time>2025-01-15T03:49:00.285Z</time>
      </trkpt>
      <trkpt lat="48.874879" lon="2.167640">
        <ele>28.237009</ele>
        <time>2025-01-15T03:49:02.187Z</time>
      </trkpt>
      <trkpt lat="48.875253" lon="2.168412">
        <ele>28.463932</ele>
        <time>2025-01-15T03:49:21.317Z</time>
      </trkpt>
      <trkpt lat="48.875241" lon="2.168424">
        <ele>28.473417</ele>
        <time>2025-01-15T03:49:21.800Z</time>
      </trkpt>
      <trkpt lat="48.875216" lon="2.168452">
        <ele>28.508138</ele>
        <time>2025-01-15T03:49:22.847Z</time>
      </trkpt>
      <trkpt lat="48.875172" lon="2.168500">
        <ele>28.568694</ele>
        <time>2025-01-15T03:49:24.664Z</time>
      </trkpt>
      <trkpt lat="48.875128" lon="2.168549">
        <ele>28.629681</ele>
        <time>2025-01-15T03:49:26.565Z</time>
      </trkpt>
      <trkpt lat="48.875102" lon="2.168578">
        <ele>28.665739</ele>
        <time>2025-01-15T03:49:27.703Z</time>
      </trkpt>
      <trkpt lat="48.875088" lon="2.168594">
        <ele>28.685324</ele>
        <time>2025-01-15T03:49:28.349Z</time>
      </trkpt>
      <trkpt lat="48.875046" lon="2.168581">
        <ele>28.733252</ele>
        <time>2025-01-15T03:49:29.893Z</time>
      </trkpt>
      <trkpt lat="48.874951" lon="2.168676">
        <ele>28.860400</ele>
        <time>2025-01-15T03:49:34.190Z</time>
      </trkpt>
      <trkpt lat="48.874866" lon="2.168696">
        <ele>28.956580</ele>
        <time>2025-01-15T03:49:37.485Z</time>
      </trkpt>
      <trkpt lat="48.874339" lon="2.170099">
        <ele>30.144856</ele>
        <time>2025-01-15T03:50:14.517Z</time>
      </trkpt>
      <trkpt lat="48.874483" lon="2.171474">
        <ele>30.969425</ele>
        <time>2025-01-15T03:50:41.994Z</time>
      </trkpt>
      <trkpt lat="48.874577" lon="2.172389">
        <ele>31.453820</ele>
        <time>2025-01-15T03:51:00.731Z</time>
      </trkpt>
      <trkpt lat="48.874666" lon="2.173220">
        <ele>31.894199</ele>
        <time>2025-01-15T03:51:18.839Z</time>
      </trkpt>
      <trkpt lat="48.874741" lon="2.173959">
        <ele>32.410409</ele>
        <time>2025-01-15T03:51:35.464Z</time>
      </trkpt>
      <trkpt lat="48.874764" lon="2.174184">
        <ele>32.569073</ele>
        <time>2025-01-15T03:51:40.833Z</time>
      </trkpt>
      <trkpt lat="48.874781" lon="2.174350">
        <ele>32.686136</ele>
        <time>2025-01-15T03:51:44.803Z</time>
      </trkpt>
      <trkpt lat="48.874903" lon="2.175547">
        <ele>33.530166</ele>
        <time>2025-01-15T03:52:11.298Z</time>
      </trkpt>
      <trkpt lat="48.874902" lon="2.175859">
        <ele>33.747571</ele>
        <time>2025-01-15T03:52:17.579Z</time>
      </trkpt>
      <trkpt lat="48.874961" lon="2.176337">
        <ele>33.857607</ele>
        <time>2025-01-15T03:52:27.996Z</time>
      </trkpt>
      <trkpt lat="48.875164" lon="2.177423">
        <ele>33.982827</ele>
        <time>2025-01-15T03:52:49.288Z</time>
      </trkpt>
      <trkpt lat="48.875198" lon="2.177541">
        <ele>33.997116</ele>
        <time>2025-01-15T03:52:51.526Z</time>
      </trkpt>
      <trkpt lat="48.875250" lon="2.177777">
        <ele>34.024720</ele>
        <time>2025-01-15T03:52:55.785Z</time>
      </trkpt>
      <trkpt lat="48.875328" lon="2.177803">
        <ele>34.038186</ele>
        <time>2025-01-15T03:52:57.893Z</time>
      </trkpt>
      <trkpt lat="48.875407" lon="2.177782">
        <ele>34.051710</ele>
        <time>2025-01-15T03:52:59.986Z</time>
      </trkpt>
      <trkpt lat="48.875772" lon="2.177460">
        <ele>34.114301</ele>
        <time>2025-01-15T03:53:11.074Z</time>
      </trkpt>
      <trkpt lat="48.875973" lon="2.177375">
        <ele>34.092307</ele>
        <time>2025-01-15T03:53:16.443Z</time>
      </trkpt>
      <trkpt lat="48.876110" lon="2.177198">
        <ele>34.073355</ele>
        <time>2025-01-15T03:53:21.070Z</time>
      </trkpt>
      <trkpt lat="48.876355" lon="2.177557">
        <ele>34.037486</ele>
        <time>2025-01-15T03:53:29.558Z</time>
      </trkpt>
      <trkpt lat="48.877386" lon="2.179051">
        <ele>33.860869</ele>
        <time>2025-01-15T03:54:09.076Z</time>
      </trkpt>
      <trkpt lat="48.877472" lon="2.179157">
        <ele>33.841596</ele>
        <time>2025-01-15T03:54:12.948Z</time>
      </trkpt>
      <trkpt lat="48.877548" lon="2.179264">
        <ele>33.823564</ele>
        <time>2025-01-15T03:54:16.539Z</time>
      </trkpt>
      <trkpt lat="48.877773" lon="2.179630">
        <ele>33.766201</ele>
        <time>2025-01-15T03:54:24.896Z</time>
      </trkpt>
      <trkpt lat="48.878066" lon="2.180105">
        <ele>33.691636</ele>
        <time>2025-01-15T03:54:35.542Z</time>
      </trkpt>
      <trkpt lat="48.878292" lon="2.180482">
        <ele>33.633230</ele>
        <time>2025-01-15T03:54:43.960Z</time>
      </trkpt>
      <trkpt lat="48.878332" lon="2.180551">
        <ele>33.622699</ele>
        <time>2025-01-15T03:54:45.587Z</time>
      </trkpt>
      <trkpt lat="48.878406" lon="2.180678">
        <ele>33.698604</ele>
        <time>2025-01-15T03:54:48.530Z</time>
      </trkpt>
      <trkpt lat="48.878456" lon="2.180760">
        <ele>33.791211</ele>
        <time>2025-01-15T03:54:50.538Z</time>
      </trkpt>
      <trkpt lat="48.878494" lon="2.180822">
        <ele>33.861397</ele>
        <time>2025-01-15T03:54:52.033Z</time>
      </trkpt>
      <trkpt lat="48.878630" lon="2.181032">
        <ele>34.105478</ele>
        <time>2025-01-15T03:54:57.471Z</time>
      </trkpt>
      <trkpt lat="48.878743" lon="2.181227">
        <ele>34.320715</ele>
        <time>2025-01-15T03:55:02.531Z</time>
      </trkpt>
      <trkpt lat="48.878867" lon="2.181404">
        <ele>34.534885</ele>
        <time>2025-01-15T03:55:07.749Z</time>
      </trkpt>
      <trkpt lat="48.878952" lon="2.181547">
        <ele>34.694514</ele>
        <time>2025-01-15T03:55:11.786Z</time>
      </trkpt>
      <trkpt lat="48.879215" lon="2.182516">
        <ele>35.562645</ele>
        <time>2025-01-15T03:55:37.265Z</time>
      </trkpt>
      <trkpt lat="48.879573" lon="2.183812">
        <ele>37.779133</ele>
        <time>2025-01-15T03:56:18.391Z</time>
      </trkpt>
      <trkpt lat="48.879615" lon="2.183915">
        <ele>38.004205</ele>
        <time>2025-01-15T03:56:22.070Z</time>
      </trkpt>
      <trkpt lat="48.879635" lon="2.183963">
        <ele>38.109733</ele>
        <time>2025-01-15T03:56:23.753Z</time>
      </trkpt>
      <trkpt lat="48.879364" lon="2.184934">
        <ele>40.068689</ele>
        <time>2025-01-15T03:56:55.145Z</time>
      </trkpt>
      <trkpt lat="48.879036" lon="2.185929">
        <ele>41.698874</ele>
        <time>2025-01-15T03:57:26.399Z</time>
      </trkpt>
      <trkpt lat="48.879069" lon="2.186042">
        <ele>41.843248</ele>
        <time>2025-01-15T03:57:29.506Z</time>
      </trkpt>
      <trkpt lat="48.878878" lon="2.186192">
        <ele>42.224939</ele>
        <time>2025-01-15T03:57:37.288Z</time>
      </trkpt>
      <trkpt lat="48.878746" lon="2.186307">
        <ele>42.495056</ele>
        <time>2025-01-15T03:57:42.571Z</time>
      </trkpt>
      <trkpt lat="48.878641" lon="2.186396">
        <ele>42.708498</ele>
        <time>2025-01-15T03:57:46.683Z</time>
      </trkpt>
      <trkpt lat="48.878670" lon="2.186511">
        <ele>42.852318</ele>
        <time>2025-01-15T03:57:49.454Z</time>
      </trkpt>
      <trkpt lat="48.878928" lon="2.187246">
        <ele>43.825177</ele>
        <time>2025-01-15T03:58:08.497Z</time>
      </trkpt>
      <trkpt lat="48.878958" lon="2.187510">
        <ele>44.138017</ele>
        <time>2025-01-15T03:58:14.591Z</time>
      </trkpt>
      <trkpt lat="48.878891" lon="2.187939">
        <ele>45.051817</ele>
        <time>2025-01-15T03:58:24.501Z</time>
      </trkpt>
      <trkpt lat="48.878815" lon="2.188555">
        <ele>46.367275</ele>
        <time>2025-01-15T03:58:39.524Z</time>
      </trkpt>
      <trkpt lat="48.879013" lon="2.189630">
        <ele>48.710374</ele>
        <time>2025-01-15T03:59:13.913Z</time>
      </trkpt>
      <trkpt lat="48.878988" lon="2.189811">
        <ele>49.098556</ele>
        <time>2025-01-15T03:59:20.606Z</time>
      </trkpt>
      <trkpt lat="48.878752" lon="2.190510">
        <ele>51.886995</ele>
        <time>2025-01-15T03:59:51.231Z</time>
      </trkpt>
      <trkpt lat="48.878666" lon="2.190853">
        <ele>53.684344</ele>
        <time>2025-01-15T04:00:07.197Z</time>
      </trkpt>
      <trkpt lat="48.878626" lon="2.191096">
        <ele>54.910853</ele>
        <time>2025-01-15T04:00:18.668Z</time>
      </trkpt>
      <trkpt lat="48.878553" lon="2.191594">
        <ele>57.409059</ele>
        <time>2025-01-15T04:00:43.345Z</time>
      </trkpt>
      <trkpt lat="48.878531" lon="2.191809">
        <ele>58.474437</ele>
        <time>2025-01-15T04:00:54.240Z</time>
      </trkpt>
      <trkpt lat="48.878389" lon="2.193529">
        <ele>67.556915</ele>
        <time>2025-01-15T04:02:25.867Z</time>
      </trkpt>
      <trkpt lat="48.878115" lon="2.194607">
        <ele>74.130561</ele>
        <time>2025-01-15T04:03:24.736Z</time>
      </trkpt>
      <trkpt lat="48.877959" lon="2.195413">
        <ele>78.891441</ele>
        <time>2025-01-15T04:04:09.832Z</time>
      </trkpt>
      <trkpt lat="48.877906" lon="2.195876">
        <ele>80.868829</ele>
        <time>2025-01-15T04:04:33.377Z</time>
      </trkpt>
      <trkpt lat="48.877828" lon="2.196702">
        <ele>84.379920</ele>
        <time>2025-01-15T04:05:11.387Z</time>
      </trkpt>
      <trkpt lat="48.877805" lon="2.196806">
        <ele>84.841585</ele>
        <time>2025-01-15T04:05:16.144Z</time>
      </trkpt>
      <trkpt lat="48.877664" lon="2.197894">
        <ele>89.507457</ele>
        <time>2025-01-15T04:06:01.870Z</time>
      </trkpt>
      <trkpt lat="48.877581" lon="2.198163">
        <ele>90.480342</ele>
        <time>2025-01-15T04:06:11.770Z</time>
      </trkpt>
      <trkpt lat="48.877304" lon="2.198846">
        <ele>91.574841</ele>
        <time>2025-01-15T04:06:33.251Z</time>
      </trkpt>
      <trkpt lat="48.877234" lon="2.198977">
        <ele>91.805067</ele>
        <time>2025-01-15T04:06:37.374Z</time>
      </trkpt>
      <trkpt lat="48.876899" lon="2.199699">
        <ele>93.010292</ele>
        <time>2025-01-15T04:06:57.352Z</time>
      </trkpt>
      <trkpt lat="48.876811" lon="2.199888">
        <ele>93.326154</ele>
        <time>2025-01-15T04:07:02.320Z</time>
      </trkpt>
      <trkpt lat="48.876402" lon="2.200764">
        <ele>95.051236</ele>
        <time>2025-01-15T04:07:26.088Z</time>
      </trkpt>
      <trkpt lat="48.876304" lon="2.200764">
        <ele>95.328434</ele>
        <time>2025-01-15T04:07:29.718Z</time>
      </trkpt>
      <trkpt lat="48.876230" lon="2.200842">
        <ele>95.583124</ele>
        <time>2025-01-15T04:07:33.176Z</time>
      </trkpt>
      <trkpt lat="48.876193" lon="2.200906">
        <ele>95.741643</ele>
        <time>2025-01-15T04:07:35.360Z</time>
      </trkpt>
      <trkpt lat="48.876207" lon="2.201044">
        <ele>96.001401</ele>
        <time>2025-01-15T04:07:39.015Z</time>
      </trkpt>
      <trkpt lat="48.876247" lon="2.201136">
        <ele>96.206566</ele>
        <time>2025-01-15T04:07:41.975Z</time>
      </trkpt>
      <trkpt lat="48.876009" lon="2.201690">
        <ele>97.437562</ele>
        <time>2025-01-15T04:08:01.210Z</time>
      </trkpt>
      <trkpt lat="48.875580" lon="2.202713">
        <ele>100.116029</ele>
        <time>2025-01-15T04:08:42.195Z</time>
      </trkpt>
      <trkpt lat="48.875416" lon="2.203396">
        <ele>102.545379</ele>
        <time>2025-01-15T04:09:09.171Z</time>
      </trkpt>
      <trkpt lat="48.875220" lon="2.204182">
        <ele>105.353973</ele>
        <time>2025-01-15T04:09:43.406Z</time>
      </trkpt>
      <trkpt lat="48.875170" lon="2.204565">
        <ele>106.658616</ele>
        <time>2025-01-15T04:09:59.267Z</time>
      </trkpt>
      <trkpt lat="48.875144" lon="2.204900">
        <ele>107.785683</ele>
        <time>2025-01-15T04:10:12.149Z</time>
      </trkpt>
      <trkpt lat="48.875143" lon="2.204976">
        <ele>108.039664</ele>
        <time>2025-01-15T04:10:15.057Z</time>
      </trkpt>
      <trkpt lat="48.875139" lon="2.205750">
        <ele>109.557118</ele>
        <time>2025-01-15T04:10:42.664Z</time>
      </trkpt>
      <trkpt lat="48.874627" lon="2.205838">
        <ele>110.970633</ele>
        <time>2025-01-15T04:11:08.003Z</time>
      </trkpt>
      <trkpt lat="48.874536" lon="2.205853">
        <ele>111.221737</ele>
        <time>2025-01-15T04:11:11.926Z</time>
      </trkpt>
      <trkpt lat="48.874272" lon="2.205980">
        <ele>111.981354</ele>
        <time>2025-01-15T04:11:22.328Z</time>
      </trkpt>
      <trkpt lat="48.873621" lon="2.206442">
        <ele>113.245901</ele>
        <time>2025-01-15T04:11:42.024Z</time>
      </trkpt>
      <trkpt lat="48.873603" lon="2.206457">
        <ele>113.246624</ele>
        <time>2025-01-15T04:11:42.516Z</time>
      </trkpt>
      <trkpt lat="48.873574" lon="2.206481">
        <ele>113.247786</ele>
        <time>2025-01-15T04:11:43.339Z</time>
      </trkpt>
      <trkpt lat="48.873033" lon="2.206932">
        <ele>113.269509</ele>
        <time>2025-01-15T04:11:59.578Z</time>
      </trkpt>
      <trkpt lat="48.872721" lon="2.207278">
        <ele>113.283105</ele>
        <time>2025-01-15T04:12:09.796Z</time>
      </trkpt>
      <trkpt lat="48.871846" lon="2.208672">
        <ele>113.256791</ele>
        <time>2025-01-15T04:12:43.643Z</time>
      </trkpt>
      <trkpt lat="48.871705" lon="2.208896">
        <ele>113.245572</ele>
        <time>2025-01-15T04:12:49.300Z</time>
      </trkpt>
      <trkpt lat="48.870845" lon="2.209666">
        <ele>113.483798</ele>
        <time>2025-01-15T04:13:15.111Z</time>
      </trkpt>
      <trkpt lat="48.870841" lon="2.210012">
        <ele>113.823132</ele>
        <time>2025-01-15T04:13:20.957Z</time>
      </trkpt>
      <trkpt lat="48.870732" lon="2.210141">
        <ele>114.029059</ele>
        <time>2025-01-15T04:13:24.995Z</time>
      </trkpt>
      <trkpt lat="48.870048" lon="2.210748">
        <ele>115.209770</ele>
        <time>2025-01-15T04:13:52.775Z</time>
      </trkpt>
      <trkpt lat="48.869994" lon="2.210791">
        <ele>115.300647</ele>
        <time>2025-01-15T04:13:55.149Z</time>
      </trkpt>
      <trkpt lat="48.870049" lon="2.211033">
        <ele>115.551718</ele>
        <time>2025-01-15T04:14:02.193Z</time>
      </trkpt>
      <trkpt lat="48.870106" lon="2.211156">
        <ele>115.699259</ele>
        <time>2025-01-15T04:14:06.461Z</time>
      </trkpt>
      <trkpt lat="48.870634" lon="2.213021">
        <ele>119.511838</ele>
        <time>2025-01-15T04:15:16.615Z</time>
      </trkpt>
      <trkpt lat="48.870649" lon="2.213279">
        <ele>120.021733</ele>
        <time>2025-01-15T04:15:25.002Z</time>
      </trkpt>
      <trkpt lat="48.870741" lon="2.213389">
        <ele>120.372040</ele>
        <time>2025-01-15T04:15:30.391Z</time>
      </trkpt>
      <trkpt lat="48.870840" lon="2.213508">
        <ele>120.749769</ele>
        <time>2025-01-15T04:15:35.775Z</time>
      </trkpt>
      <trkpt lat="48.870913" lon="2.213595">
        <ele>121.027385</ele>
        <time>2025-01-15T04:15:39.154Z</time>
      </trkpt>
      <trkpt lat="48.870950" lon="2.214012">
        <ele>120.078904</ele>
        <time>2025-01-15T04:15:47.051Z</time>
      </trkpt>
      <trkpt lat="48.870992" lon="2.214482">
        <ele>118.200288</ele>
        <time>2025-01-15T04:15:54.075Z</time>
      </trkpt>
      <trkpt lat="48.870977" lon="2.214584">
        <ele>117.786326</ele>
        <time>2025-01-15T04:15:55.450Z</time>
      </trkpt>
      <trkpt lat="48.870934" lon="2.215012">
        <ele>116.071498</ele>
        <time>2025-01-15T04:16:00.801Z</time>
      </trkpt>
      <trkpt lat="48.870769" lon="2.216411">
        <ele>110.442137</ele>
        <time>2025-01-15T04:16:16.829Z</time>
      </trkpt>
      <trkpt lat="48.870496" lon="2.218017">
        <ele>99.417381</ele>
        <time>2025-01-15T04:16:35.142Z</time>
      </trkpt>
      <trkpt lat="48.870470" lon="2.218144">
        <ele>98.532978</ele>
        <time>2025-01-15T04:16:36.646Z</time>
      </trkpt>
      <trkpt lat="48.870022" lon="2.217597">
        <ele>92.724531</ele>
        <time>2025-01-15T04:16:46.497Z</time>
      </trkpt>
      <trkpt lat="48.869905" lon="2.217518">
        <ele>91.471434</ele>
        <time>2025-01-15T04:16:48.689Z</time>
      </trkpt>
      <trkpt lat="48.869791" lon="2.217472">
        <ele>90.338591</ele>
        <time>2025-01-15T04:16:50.740Z</time>
      </trkpt>
      <trkpt lat="48.869758" lon="2.217552">
        <ele>89.742014</ele>
        <time>2025-01-15T04:16:51.826Z</time>
      </trkpt>
      <trkpt lat="48.869357" lon="2.218354">
        <ele>83.377555</ele>
        <time>2025-01-15T04:17:03.603Z</time>
      </trkpt>
      <trkpt lat="48.869212" lon="2.218623">
        <ele>81.180338</ele>
        <time>2025-01-15T04:17:07.516Z</time>
      </trkpt>
      <trkpt lat="48.868933" lon="2.218542">
        <ele>78.452211</ele>
        <time>2025-01-15T04:17:12.294Z</time>
      </trkpt>
      <trkpt lat="48.868878" lon="2.218553">
        <ele>77.919403</ele>
        <time>2025-01-15T04:17:13.239Z</time>
      </trkpt>
      <trkpt lat="48.868820" lon="2.218629">
        <ele>77.183961</ele>
        <time>2025-01-15T04:17:14.529Z</time>
      </trkpt>
      <trkpt lat="48.868359" lon="2.219471">
        <ele>69.771306</ele>
        <time>2025-01-15T04:17:26.534Z</time>
      </trkpt>
      <trkpt lat="48.868202" lon="2.219984">
        <ele>65.824046</ele>
        <time>2025-01-15T04:17:32.645Z</time>
      </trkpt>
      <trkpt lat="48.868054" lon="2.220447">
        <ele>62.232794</ele>
        <time>2025-01-15T04:17:38.246Z</time>
      </trkpt>
      <trkpt lat="48.868001" lon="2.220613">
        <ele>60.945506</ele>
        <time>2025-01-15T04:17:40.321Z</time>
      </trkpt>
      <trkpt lat="48.867799" lon="2.221302">
        <ele>55.808052</ele>
        <time>2025-01-15T04:17:49.024Z</time>
      </trkpt>
      <trkpt lat="48.867673" lon="2.221305">
        <ele>55.234953</ele>
        <time>2025-01-15T04:17:51.272Z</time>
      </trkpt>
      <trkpt lat="48.867486" lon="2.221067">
        <ele>54.125810</ele>
        <time>2025-01-15T04:17:55.696Z</time>
      </trkpt>
      <trkpt lat="48.867090" lon="2.220739">
        <ele>52.074895</ele>
        <time>2025-01-15T04:18:04.407Z</time>
      </trkpt>
      <trkpt lat="48.867104" lon="2.220832">
        <ele>51.789483</ele>
        <time>2025-01-15T04:18:05.651Z</time>
      </trkpt>
      <trkpt lat="48.867164" lon="2.220932">
        <ele>51.384569</ele>
        <time>2025-01-15T04:18:07.584Z</time>
      </trkpt>
      <trkpt lat="48.867410" lon="2.221150">
        <ele>50.089590</ele>
        <time>2025-01-15T04:18:13.891Z</time>
      </trkpt>
      <trkpt lat="48.867593" lon="2.221370">
        <ele>49.028548</ele>
        <time>2025-01-15T04:18:19.125Z</time>
      </trkpt>
      <trkpt lat="48.867597" lon="2.221505">
        <ele>48.624275</ele>
        <time>2025-01-15T04:18:21.031Z</time>
      </trkpt>
      <trkpt lat="48.867596" lon="2.221530">
        <ele>48.549348</ele>
        <time>2025-01-15T04:18:21.386Z</time>
      </trkpt>
      <trkpt lat="48.867588" lon="2.221615">
        <ele>48.292474</ele>
        <time>2025-01-15T04:18:22.518Z</time>
      </trkpt>
      <trkpt lat="48.867574" lon="2.221655">
        <ele>48.156926</ele>
        <time>2025-01-15T04:18:23.125Z</time>
      </trkpt>
      <trkpt lat="48.867555" lon="2.221703">
        <ele>47.989336</ele>
        <time>2025-01-15T04:18:23.880Z</time>
      </trkpt>
      <trkpt lat="48.867521" lon="2.221761">
        <ele>47.756923</ele>
        <time>2025-01-15T04:18:24.912Z</time>
      </trkpt>
      <trkpt lat="48.867309" lon="2.221960">
        <ele>46.794031</ele>
        <time>2025-01-15T04:18:29.699Z</time>
      </trkpt>
      <trkpt lat="48.867272" lon="2.222036">
        <ele>46.555020</ele>
        <time>2025-01-15T04:18:30.905Z</time>
      </trkpt>
      <trkpt lat="48.867035" lon="2.222711">
        <ele>44.620858</ele>
        <time>2025-01-15T04:18:40.606Z</time>
      </trkpt>
      <trkpt lat="48.866805" lon="2.223346">
        <ele>42.788403</ele>
        <time>2025-01-15T04:18:50.128Z</time>
      </trkpt>
      <trkpt lat="48.866733" lon="2.223542">
        <ele>42.220915</ele>
        <time>2025-01-15T04:18:53.177Z</time>
      </trkpt>
      <trkpt lat="48.866721" lon="2.223576">
        <ele>42.123378</ele>
        <time>2025-01-15T04:18:53.701Z</time>
      </trkpt>
      <trkpt lat="48.866706" lon="2.223617">
        <ele>42.004783</ele>
        <time>2025-01-15T04:18:54.334Z</time>
      </trkpt>
      <trkpt lat="48.866659" lon="2.223742">
        <ele>41.640819</ele>
        <time>2025-01-15T04:18:56.311Z</time>
      </trkpt>
      <trkpt lat="48.866437" lon="2.224339">
        <ele>40.140334</ele>
        <time>2025-01-15T04:19:05.208Z</time>
      </trkpt>
      <trkpt lat="48.866409" lon="2.224436">
        <ele>39.941697</ele>
        <time>2025-01-15T04:19:06.586Z</time>
      </trkpt>
      <trkpt lat="48.866436" lon="2.224599">
        <ele>39.626497</ele>
        <time>2025-01-15T04:19:08.817Z</time>
      </trkpt>
      <trkpt lat="48.866567" lon="2.224714">
        <ele>39.195269</ele>
        <time>2025-01-15T04:19:12.057Z</time>
      </trkpt>
      <trkpt lat="48.866796" lon="2.224975">
        <ele>38.379376</ele>
        <time>2025-01-15T04:19:18.016Z</time>
      </trkpt>
      <trkpt lat="48.866880" lon="2.225078">
        <ele>38.071735</ele>
        <time>2025-01-15T04:19:20.329Z</time>
      </trkpt>
      <trkpt lat="48.867002" lon="2.225236">
        <ele>37.614863</ele>
        <time>2025-01-15T04:19:23.819Z</time>
      </trkpt>
      <trkpt lat="48.867019" lon="2.225259">
        <ele>37.549990</ele>
        <time>2025-01-15T04:19:24.300Z</time>
      </trkpt>
      <trkpt lat="48.867092" lon="2.225357">
        <ele>37.272366</ele>
        <time>2025-01-15T04:19:26.352Z</time>
      </trkpt>
      <trkpt lat="48.867303" lon="2.225587">
        <ele>36.532233</ele>
        <time>2025-01-15T04:19:31.899Z</time>
      </trkpt>
      <trkpt lat="48.867387" lon="2.225661">
        <ele>36.255478</ele>
        <time>2025-01-15T04:19:34.042Z</time>
      </trkpt>
      <trkpt lat="48.867504" lon="2.225758">
        <ele>35.875578</ele>
        <time>2025-01-15T04:19:36.882Z</time>
      </trkpt>
      <trkpt lat="48.867575" lon="2.225950">
        <ele>35.551250</ele>
        <time>2025-01-15T04:19:39.978Z</time>
      </trkpt>
      <trkpt lat="48.867597" lon="2.225990">
        <ele>35.492858</ele>
        <time>2025-01-15T04:19:40.726Z</time>
      </trkpt>
      <trkpt lat="48.867632" lon="2.226124">
        <ele>35.331394</ele>
        <time>2025-01-15T04:19:42.708Z</time>
      </trkpt>
      <trkpt lat="48.867695" lon="2.226194">
        <ele>35.198542</ele>
        <time>2025-01-15T04:19:44.398Z</time>
      </trkpt>
      <trkpt lat="48.867701" lon="2.226314">
        <ele>35.063766</ele>
        <time>2025-01-15T04:19:46.152Z</time>
      </trkpt>
      <trkpt lat="48.867756" lon="2.226383">
        <ele>34.942362</ele>
        <time>2025-01-15T04:19:47.769Z</time>
      </trkpt>
      <trkpt lat="48.867820" lon="2.226425">
        <ele>34.823683</ele>
        <time>2025-01-15T04:19:49.338Z</time>
      </trkpt>
      <trkpt lat="48.867805" lon="2.226459">
        <ele>34.777836</ele>
        <time>2025-01-15T04:19:50.035Z</time>
      </trkpt>
      <trkpt lat="48.867791" lon="2.226493">
        <ele>34.732914</ele>
        <time>2025-01-15T04:19:50.680Z</time>
      </trkpt>
      <trkpt lat="48.867790" lon="2.226526">
        <ele>34.695918</ele>
        <time>2025-01-15T04:19:51.161Z</time>
      </trkpt>
      <trkpt lat="48.867829" lon="2.226559">
        <ele>34.619929</ele>
        <time>2025-01-15T04:19:52.106Z</time>
      </trkpt>
      <trkpt lat="48.867823" lon="2.226571">
        <ele>34.603048</ele>
        <time>2025-01-15T04:19:52.338Z</time>
      </trkpt>
      <trkpt lat="48.867606" lon="2.227306">
        <ele>33.700815</ele>
        <time>2025-01-15T04:20:04.034Z</time>
      </trkpt>
      <trkpt lat="48.867584" lon="2.227381">
        <ele>33.608849</ele>
        <time>2025-01-15T04:20:05.201Z</time>
      </trkpt>
      <trkpt lat="48.867580" lon="2.227496">
        <ele>33.479880</ele>
        <time>2025-01-15T04:20:06.924Z</time>
      </trkpt>
      <trkpt lat="48.867543" lon="2.227529">
        <ele>33.406847</ele>
        <time>2025-01-15T04:20:07.939Z</time>
      </trkpt>
      <trkpt lat="48.867467" lon="2.227721">
        <ele>33.155896</ele>
        <time>2025-01-15T04:20:11.288Z</time>
      </trkpt>
      <trkpt lat="48.867433" lon="2.227842">
        <ele>33.008542</ele>
        <time>2025-01-15T04:20:13.141Z</time>
      </trkpt>
      <trkpt lat="48.867418" lon="2.227900">
        <ele>32.938748</ele>
        <time>2025-01-15T04:20:14.177Z</time>
      </trkpt>
      <trkpt lat="48.867306" lon="2.228323">
        <ele>32.580644</ele>
        <time>2025-01-15T04:20:21.399Z</time>
      </trkpt>
      <trkpt lat="48.866596" lon="2.230979">
        <ele>31.817330</ele>
        <time>2025-01-15T04:21:10.572Z</time>
      </trkpt>
      <trkpt lat="48.866558" lon="2.231121">
        <ele>31.732795</ele>
        <time>2025-01-15T04:21:13.363Z</time>
      </trkpt>
      <trkpt lat="48.866598" lon="2.231198">
        <ele>31.678691</ele>
        <time>2025-01-15T04:21:15.286Z</time>
      </trkpt>
      <trkpt lat="48.866598" lon="2.231276">
        <ele>31.635679</ele>
        <time>2025-01-15T04:21:16.866Z</time>
      </trkpt>
      <trkpt lat="48.866624" lon="2.231335">
        <ele>31.596519</ele>
        <time>2025-01-15T04:21:18.253Z</time>
      </trkpt>
      <trkpt lat="48.866673" lon="2.231449">
        <ele>31.521425</ele>
        <time>2025-01-15T04:21:20.877Z</time>
      </trkpt>
      <trkpt lat="48.866888" lon="2.231755">
        <ele>31.274532</ele>
        <time>2025-01-15T04:21:29.124Z</time>
      </trkpt>
      <trkpt lat="48.866933" lon="2.231822">
        <ele>31.221730</ele>
        <time>2025-01-15T04:21:30.861Z</time>
      </trkpt>
      <trkpt lat="48.867052" lon="2.232019">
        <ele>31.074244</ele>
        <time>2025-01-15T04:21:52.589Z</time>
      </trkpt>
      <trkpt lat="48.867088" lon="2.232095">
        <ele>31.022601</ele>
        <time>2025-01-15T04:21:55.114Z</time>
      </trkpt>
      <trkpt lat="48.867282" lon="2.231705">
        <ele>30.752976</ele>
        <time>2025-01-15T04:22:02.663Z</time>
      </trkpt>
      <trkpt lat="48.867316" lon="2.231641">
        <ele>30.707613</ele>
        <time>2025-01-15T04:22:03.900Z</time>
      </trkpt>
      <trkpt lat="48.867388" lon="2.231613">
        <ele>30.645313</ele>
        <time>2025-01-15T04:22:05.542Z</time>
      </trkpt>
      <trkpt lat="48.867510" lon="2.231669">
        <ele>30.538482</ele>
        <time>2025-01-15T04:22:08.372Z</time>
      </trkpt>
      <trkpt lat="48.867624" lon="2.231656">
        <ele>30.420595</ele>
        <time>2025-01-15T04:22:10.882Z</time>
      </trkpt>
      <trkpt lat="48.867678" lon="2.231680">
        <ele>30.343570</ele>
        <time>2025-01-15T04:22:12.124Z</time>
      </trkpt>
      <trkpt lat="48.867838" lon="2.231795">
        <ele>30.101268</ele>
        <time>2025-01-15T04:22:16.034Z</time>
      </trkpt>
      <trkpt lat="48.868485" lon="2.232591">
        <ele>28.961746</ele>
        <time>2025-01-15T04:22:34.835Z</time>
      </trkpt>
      <trkpt lat="48.868710" lon="2.232867">
        <ele>28.565930</ele>
        <time>2025-01-15T04:22:41.575Z</time>
      </trkpt>
      <trkpt lat="48.869103" lon="2.233466">
        <ele>28.004984</ele>
        <time>2025-01-15T04:22:55.029Z</time>
      </trkpt>
      <trkpt lat="48.869425" lon="2.234020">
        <ele>27.973389</ele>
        <time>2025-01-15T04:23:07.153Z</time>
      </trkpt>
      <trkpt lat="48.869937" lon="2.235085">
        <ele>27.917015</ele>
        <time>2025-01-15T04:23:31.268Z</time>
      </trkpt>
      <trkpt lat="48.869920" lon="2.235152">
        <ele>27.913946</ele>
        <time>2025-01-15T04:23:37.096Z</time>
      </trkpt>
      <trkpt lat="48.869729" lon="2.235297">
        <ele>27.900075</ele>
        <time>2025-01-15T04:23:44.229Z</time>
      </trkpt>
      <trkpt lat="48.869951" lon="2.236347">
        <ele>28.169466</ele>
        <time>2025-01-15T04:24:08.450Z</time>
      </trkpt>
      <trkpt lat="48.870270" lon="2.236177">
        <ele>28.301317</ele>
        <time>2025-01-15T04:24:19.513Z</time>
      </trkpt>
      <trkpt lat="48.870327" lon="2.236180">
        <ele>28.323564</ele>
        <time>2025-01-15T04:24:21.304Z</time>
      </trkpt>
      <trkpt lat="48.870373" lon="2.236231">
        <ele>28.345771</ele>
        <time>2025-01-15T04:24:23.063Z</time>
      </trkpt>
      <trkpt lat="48.870626" lon="2.237350">
        <ele>28.636609</ele>
        <time>2025-01-15T04:24:46.678Z</time>
      </trkpt>
      <trkpt lat="48.870817" lon="2.238063">
        <ele>28.783413</ele>
        <time>2025-01-15T04:25:02.689Z</time>
      </trkpt>
      <trkpt lat="48.870993" lon="2.238648">
        <ele>28.906081</ele>
        <time>2025-01-15T04:25:16.314Z</time>
      </trkpt>
      <trkpt lat="48.871204" lon="2.239352">
        <ele>29.053604</ele>
        <time>2025-01-15T04:25:32.485Z</time>
      </trkpt>
      <trkpt lat="48.871470" lon="2.240093">
        <ele>29.102429</ele>
        <time>2025-01-15T04:25:49.833Z</time>
      </trkpt>
      <trkpt lat="48.871683" lon="2.240576">
        <ele>29.080212</ele>
        <time>2025-01-15T04:26:01.060Z</time>
      </trkpt>
      <trkpt lat="48.872069" lon="2.241320">
        <ele>29.044009</ele>
        <time>2025-01-15T04:26:18.895Z</time>
      </trkpt>
      <trkpt lat="48.872437" lon="2.241949">
        <ele>29.019587</ele>
        <time>2025-01-15T04:26:35.040Z</time>
      </trkpt>
      <trkpt lat="48.872473" lon="2.242118">
        <ele>29.023684</ele>
        <time>2025-01-15T04:26:38.540Z</time>
      </trkpt>
      <trkpt lat="48.872499" lon="2.242619">
        <ele>29.035276</ele>
        <time>2025-01-15T04:26:48.584Z</time>
      </trkpt>
      <trkpt lat="48.872533" lon="2.242725">
        <ele>29.037996</ele>
        <time>2025-01-15T04:26:50.969Z</time>
      </trkpt>
      <trkpt lat="48.872641" lon="2.242890">
        <ele>29.043365</ele>
        <time>2025-01-15T04:26:55.651Z</time>
      </trkpt>
      <trkpt lat="48.872602" lon="2.242962">
        <ele>29.045516</ele>
        <time>2025-01-15T04:26:59.899Z</time>
      </trkpt>
      <trkpt lat="48.872174" lon="2.242353">
        <ele>29.066073</ele>
        <time>2025-01-15T04:27:16.029Z</time>
      </trkpt>
      <trkpt lat="48.872602" lon="2.242962">
        <ele>29.043590</ele>
        <time>2025-01-15T04:27:31.623Z</time>
      </trkpt>
      <trkpt lat="48.872653" lon="2.243025">
        <ele>29.031484</ele>
        <time>2025-01-15T04:27:33.374Z</time>
      </trkpt>
      <trkpt lat="48.872748" lon="2.242931">
        <ele>29.010603</ele>
        <time>2025-01-15T04:27:36.345Z</time>
      </trkpt>
      <trkpt lat="48.872942" lon="2.243062">
        <ele>28.971499</ele>
        <time>2025-01-15T04:27:42.506Z</time>
      </trkpt>
      <trkpt lat="48.873526" lon="2.243591">
        <ele>28.846268</ele>
        <time>2025-01-15T04:28:02.029Z</time>
      </trkpt>
      <trkpt lat="48.874665" lon="2.244825">
        <ele>28.598575</ele>
        <time>2025-01-15T04:28:42.192Z</time>
      </trkpt>
      <trkpt lat="48.875175" lon="2.245275">
        <ele>28.496715</ele>
        <time>2025-01-15T04:28:59.437Z</time>
      </trkpt>
      <trkpt lat="48.875272" lon="2.245361">
        <ele>28.477319</ele>
        <time>2025-01-15T04:29:02.777Z</time>
      </trkpt>
      <trkpt lat="48.875317" lon="2.245480">
        <ele>28.461723</ele>
        <time>2025-01-15T04:29:05.481Z</time>
      </trkpt>
      <trkpt lat="48.875338" lon="2.245534">
        <ele>28.454596</ele>
        <time>2025-01-15T04:29:10.555Z</time>
      </trkpt>
      <trkpt lat="48.875358" lon="2.245589">
        <ele>28.447456</ele>
        <time>2025-01-15T04:29:11.822Z</time>
      </trkpt>
      <trkpt lat="48.875214" lon="2.245499">
        <ele>28.440777</ele>
        <time>2025-01-15T04:29:16.117Z</time>
      </trkpt>
      <trkpt lat="48.874745" lon="2.245283">
        <ele>28.455979</ele>
        <time>2025-01-15T04:29:29.275Z</time>
      </trkpt>
      <trkpt lat="48.874447" lon="2.245029">
        <ele>28.466577</ele>
        <time>2025-01-15T04:29:38.155Z</time>
      </trkpt>
      <trkpt lat="48.874308" lon="2.244901">
        <ele>28.471618</ele>
        <time>2025-01-15T04:29:42.493Z</time>
      </trkpt>
      <trkpt lat="48.874281" lon="2.244876">
        <ele>28.472599</ele>
        <time>2025-01-15T04:29:43.344Z</time>
      </trkpt>
      <trkpt lat="48.874120" lon="2.244725">
        <ele>28.478467</ele>
        <time>2025-01-15T04:29:48.547Z</time>
      </trkpt>
      <trkpt lat="48.874169" lon="2.244918">
        <ele>28.482688</ele>
        <time>2025-01-15T04:29:52.262Z</time>
      </trkpt>
      <trkpt lat="48.874245" lon="2.245243">
        <ele>28.489726</ele>
        <time>2025-01-15T04:29:58.405Z</time>
      </trkpt>
      <trkpt lat="48.874289" lon="2.245649">
        <ele>28.644471</ele>
        <time>2025-01-15T04:30:05.753Z</time>
      </trkpt>
      <trkpt lat="48.874282" lon="2.246090">
        <ele>28.938261</ele>
        <time>2025-01-15T04:30:13.791Z</time>
      </trkpt>
      <trkpt lat="48.874196" lon="2.247094">
        <ele>29.612568</ele>
        <time>2025-01-15T04:30:34.298Z</time>
      </trkpt>
      <trkpt lat="48.874203" lon="2.247532">
        <ele>29.904361</ele>
        <time>2025-01-15T04:30:44.435Z</time>
      </trkpt>
      <trkpt lat="48.874325" lon="2.248324">
        <ele>30.631298</ele>
        <time>2025-01-15T04:31:04.954Z</time>
      </trkpt>
      <trkpt lat="48.874298" lon="2.248435">
        <ele>30.821278</ele>
        <time>2025-01-15T04:31:08.251Z</time>
      </trkpt>
      <trkpt lat="48.874268" lon="2.248561">
        <ele>31.036387</ele>
        <time>2025-01-15T04:31:12.011Z</time>
      </trkpt>
      <trkpt lat="48.874394" lon="2.248684">
        <ele>31.401842</ele>
        <time>2025-01-15T04:31:18.326Z</time>
      </trkpt>
      <trkpt lat="48.874438" lon="2.248911">
        <ele>31.781732</ele>
        <time>2025-01-15T04:31:25.139Z</time>
      </trkpt>
      <trkpt lat="48.874507" lon="2.249271">
        <ele>32.383664</ele>
        <time>2025-01-15T04:31:36.072Z</time>
      </trkpt>
      <trkpt lat="48.874506" lon="2.249577">
        <ele>32.874879</ele>
        <time>2025-01-15T04:31:44.791Z</time>
      </trkpt>
      <trkpt lat="48.874443" lon="2.249958">
        <ele>33.505516</ele>
        <time>2025-01-15T04:31:55.979Z</time>
      </trkpt>
      <trkpt lat="48.873882" lon="2.251044">
        <ele>35.216833</ele>
        <time>2025-01-15T04:32:33.426Z</time>
      </trkpt>
      <trkpt lat="48.873854" lon="2.251101">
        <ele>35.274311</ele>
        <time>2025-01-15T04:32:35.114Z</time>
      </trkpt>
      <trkpt lat="48.873709" lon="2.251578">
        <ele>35.698865</ele>
        <time>2025-01-15T04:32:47.201Z</time>
      </trkpt>
      <trkpt lat="48.873607" lon="2.252159">
        <ele>36.184709</ele>
        <time>2025-01-15T04:32:59.835Z</time>
      </trkpt>
      <trkpt lat="48.873578" lon="2.252757">
        <ele>36.669165</ele>
        <time>2025-01-15T04:33:11.704Z</time>
      </trkpt>
      <trkpt lat="48.873584" lon="2.253372">
        <ele>36.929808</ele>
        <time>2025-01-15T04:33:23.489Z</time>
      </trkpt>
      <trkpt lat="48.873627" lon="2.253797">
        <ele>36.951434</ele>
        <time>2025-01-15T04:33:31.136Z</time>
      </trkpt>
      <trkpt lat="48.873691" lon="2.254154">
        <ele>36.970044</ele>
        <time>2025-01-15T04:33:37.543Z</time>
      </trkpt>
      <trkpt lat="48.873768" lon="2.254483">
        <ele>36.987606</ele>
        <time>2025-01-15T04:33:43.557Z</time>
      </trkpt>
      <trkpt lat="48.873812" lon="2.254809">
        <ele>37.004343</ele>
        <time>2025-01-15T04:33:49.311Z</time>
      </trkpt>
      <trkpt lat="48.873832" lon="2.254923">
        <ele>37.010277</ele>
        <time>2025-01-15T04:33:51.378Z</time>
      </trkpt>
      <trkpt lat="48.873856" lon="2.255054">
        <ele>37.017116</ele>
        <time>2025-01-15T04:33:53.792Z</time>
      </trkpt>
      <trkpt lat="48.873973" lon="2.255204">
        <ele>37.028819</ele>
        <time>2025-01-15T04:33:57.937Z</time>
      </trkpt>
      <trkpt lat="48.873983" lon="2.255264">
        <ele>37.031931</ele>
        <time>2025-01-15T04:33:59.055Z</time>
      </trkpt>
      <trkpt lat="48.873994" lon="2.255296">
        <ele>37.033747</ele>
        <time>2025-01-15T04:33:59.697Z</time>
      </trkpt>
      <trkpt lat="48.874038" lon="2.255538">
        <ele>37.046375</ele>
        <time>2025-01-15T04:34:04.259Z</time>
      </trkpt>
      <trkpt lat="48.874116" lon="2.255750">
        <ele>37.051656</ele>
        <time>2025-01-15T04:34:08.690Z</time>
      </trkpt>
      <trkpt lat="48.874204" lon="2.256046">
        <ele>37.051656</ele>
        <time>2025-01-15T04:34:14.566Z</time>
      </trkpt>
      <trkpt lat="48.874313" lon="2.256015">
        <ele>37.051656</ele>
        <time>2025-01-15T04:34:17.608Z</time>
      </trkpt>
      <trkpt lat="48.874664" lon="2.256194">
        <ele>37.051656</ele>
        <time>2025-01-15T04:34:27.637Z</time>
      </trkpt>
      <trkpt lat="48.874854" lon="2.256291">
        <ele>37.051656</ele>
        <time>2025-01-15T04:34:33.218Z</time>
      </trkpt>
      <trkpt lat="48.875445" lon="2.256453">
        <ele>37.051656</ele>
        <time>2025-01-15T04:34:49.138Z</time>
      </trkpt>
      <trkpt lat="48.875438" lon="2.256587">
        <ele>37.051656</ele>
        <time>2025-01-15T04:34:55.298Z</time>
      </trkpt>
      <trkpt lat="48.875472" lon="2.256842">
        <ele>37.051656</ele>
        <time>2025-01-15T04:35:07.187Z</time>
      </trkpt>
      <trkpt lat="48.875506" lon="2.256941">
        <ele>37.051656</ele>
        <time>2025-01-15T04:35:12.273Z</time>
      </trkpt>
      <trkpt lat="48.875564" lon="2.257109">
        <ele>37.051656</ele>
        <time>2025-01-15T04:35:20.947Z</time>
      </trkpt>
      <trkpt lat="48.875510" lon="2.257347">
        <ele>37.051656</ele>
        <time>2025-01-15T04:35:32.456Z</time>
      </trkpt>
      <trkpt lat="48.875499" lon="2.257501">
        <ele>37.051656</ele>
        <time>2025-01-15T04:35:39.518Z</time>
      </trkpt>
    </trkseg>
  </trk>
</gpx>